GFSGBSN_850_thetae_000.txt.gz
Theta_e
311 312 311 311 312 312 313 313 314 314 314 314 313 313 313 312 312 312 312 312 312 314 315 317 316 314 317 318 318 318 317 316 318 318 318 319 319 319 319 318 318 319 319 318 317 316 317
313 312 312 313 312 313 313 314 314 314 313 313 313 313 313 313 312 312 312 312 313 315 317 317 315 315 317 318 317 317 318 317 317 319 318 319 319 319 319 319 320 319 319 318 318 318 317
313 313 313 313 313 313 314 315 314 313 313 312 312 312 312 312 312 313 312 313 314 316 317 317 315 315 317 317 317 315 316 317 316 318 319 317 318 319 320 321 318 318 320 320 318 318 319
314 314 313 312 313 314 315 315 314 313 313 312 312 312 312 314 313 312 313 314 317 317 318 317 316 316 317 316 315 314 315 315 316 318 318 317 317 317 319 317 317 319 320 320 319 319 319
314 314 313 312 313 314 315 315 315 315 316 315 315 315 315 315 313 313 313 316 316 318 318 318 317 318 317 316 316 313 314 316 318 319 318 316 317 318 317 321 320 319 318 318 319 318 320
315 314 313 312 313 314 315 316 316 316 316 315 316 315 315 315 314 313 315 316 317 318 317 317 317 317 316 316 314 314 317 318 318 317 318 319 319 320 320 319 318 318 318 318 318 319 320
315 314 313 312 313 314 315 316 317 317 316 317 316 316 316 315 315 315 316 317 317 317 317 316 316 316 316 316 316 316 316 315 316 318 320 318 320 320 318 318 318 317 318 318 318 318 321
315 315 314 313 312 313 314 316 316 316 316 316 316 318 320 316 316 316 317 320 317 317 317 316 316 317 317 317 318 317 316 317 318 319 319 319 319 317 317 318 317 317 318 318 319 318 321
313 314 314 313 312 313 313 315 316 316 316 316 317 317 319 320 319 318 317 317 315 316 317 317 316 316 315 317 317 317 317 316 318 318 319 319 317 315 317 320 320 318 318 320 320 320 320
312 313 314 314 313 313 313 314 315 316 316 315 317 317 316 319 318 316 317 317 316 317 319 317 317 317 316 316 318 316 316 317 318 318 318 318 316 318 319 320 320 320 318 319 320 321 323
310 311 313 314 313 313 314 313 314 315 315 315 315 316 317 317 318 318 316 317 319 323 322 317 317 317 317 318 316 317 315 318 319 318 319 317 318 320 320 319 319 321 319 319 320 322 323
309 310 312 314 313 313 314 314 313 314 315 315 315 315 316 315 317 317 316 315 321 326 320 318 317 319 319 318 317 317 318 316 316 319 319 318 317 319 319 318 318 318 319 320 321 323 325
309 310 310 313 313 313 314 314 314 313 314 315 315 315 315 315 317 315 315 317 323 323 318 318 318 319 319 319 319 318 319 320 320 319 321 320 320 319 318 320 320 320 321 324 327 326 325
309 310 310 311 314 313 315 315 315 314 311 314 315 315 315 316 316 315 315 325 322 320 320 317 318 319 320 319 319 319 319 320 319 319 320 321 322 320 319 320 320 320 321 324 323 324 322
309 309 309 310 313 314 315 315 316 317 313 313 314 315 315 318 315 316 322 328 324 320 318 318 319 320 321 319 319 319 319 319 318 318 321 321 321 318 317 318 318 320 322 319 321 316 324
309 308 309 310 312 314 314 316 317 318 315 314 314 315 315 315 315 317 326 319 319 317 318 318 320 319 321 321 320 320 320 318 318 317 317 319 321 317 318 318 318 320 318 321 320 325 317
310 308 308 309 311 313 314 317 316 319 316 315 315 318 316 317 317 324 325 320 319 317 318 320 321 321 321 321 320 321 319 318 317 318 317 317 318 318 318 320 320 321 321 319 318 320 319
310 309 308 308 310 312 314 316 316 319 321 319 319 322 319 319 322 318 321 319 317 318 318 319 320 320 321 320 321 321 320 319 317 317 318 317 319 316 316 317 317 318 319 318 316 317 319
309 309 308 308 308 311 313 314 320 318 321 322 322 321 321 321 327 324 318 318 317 319 318 319 320 319 319 320 321 320 319 317 317 318 319 318 319 316 317 319 318 319 318 317 317 317 319
309 309 309 308 307 309 312 314 318 321 322 319 320 329 318 318 316 320 321 320 319 316 317 318 318 318 320 320 320 321 320 318 317 317 314 316 318 317 314 314 315 314 314 315 316 319 318
309 309 309 309 308 308 310 314 314 319 318 317 318 321 317 325 320 320 320 319 319 319 317 317 318 319 320 321 319 320 319 318 316 315 317 318 317 317 316 315 315 315 315 315 316 316 318
309 309 309 309 308 307 309 311 314 316 318 316 321 320 315 316 317 319 318 320 319 317 318 318 319 318 317 317 315 317 316 316 315 317 317 316 317 316 315 314 314 315 315 315 315 316 316
308 308 308 308 308 307 308 309 313 314 317 317 317 316 319 310 316 322 320 319 318 318 316 317 318 318 318 317 316 316 316 316 316 316 317 318 318 317 320 313 315 318 315 315 315 315 315
308 307 308 308 308 307 307 308 310 315 316 317 316 316 317 320 317 319 317 317 318 317 319 316 317 319 315 315 315 314 313 313 315 315 315 313 317 314 319 316 321 315 313 313 314 314 314
308 308 307 308 307 307 307 308 309 314 315 315 316 315 315 313 316 315 316 317 316 316 316 316 316 314 316 317 318 318 315 314 313 311 313 314 316 314 316 315 315 314 313 313 313 314 313
309 308 308 307 307 307 307 308 309 312 315 316 317 315 314 314 319 314 316 317 319 319 318 316 314 315 315 316 318 320 319 315 315 314 309 310 311 317 315 316 317 315 311 310 312 315 313
310 309 308 308 307 307 307 307 309 312 316 317 317 316 315 313 313 314 318 318 315 317 320 317 316 315 315 315 319 322 319 313 316 316 314 312 311 314 315 315 315 313 311 310 316 317 312
311 310 310 309 308 308 308 308 309 312 315 317 316 316 316 314 314 314 314 314 314 317 321 315 317 316 315 316 314 316 315 317 315 314 314 315 317 314 313 314 315 310 311 314 314 310 309
311 311 310 310 310 309 308 308 309 311 313 315 316 315 315 315 315 314 314 313 313 314 315 314 317 316 317 317 311 311 315 308 318 317 312 315 314 314 314 316 313 312 311 311 310 309 310

GFSGBSN_850_thetae_003.txt.gz
Theta_e
311 312 311 312 313 313 313 314 314 315 314 314 314 313 312 312 311 311 311 312 312 314 315 317 312 313 315 320 318 318 317 318 319 319 319 320 320 320 320 320 319 319 319 317 317 317 318
312 312 312 313 313 313 313 314 315 314 314 314 314 313 313 313 312 312 312 312 314 315 318 316 312 313 317 320 317 317 318 318 319 320 319 319 319 319 319 319 320 319 320 320 320 320 319
313 313 314 313 313 313 314 315 315 314 313 312 313 313 313 313 312 312 312 314 316 317 317 315 314 315 320 319 317 317 317 318 318 320 319 319 319 319 320 321 320 320 321 321 321 321 321
313 314 314 313 313 313 314 315 315 313 312 312 311 311 312 312 313 313 314 315 316 317 317 315 314 316 320 316 317 316 316 317 318 320 320 319 319 321 321 320 320 321 322 322 322 321 321
314 314 314 313 313 314 315 315 316 316 315 314 313 313 313 313 312 313 314 316 317 318 318 317 317 320 318 315 317 316 316 317 318 320 318 318 320 320 320 321 321 321 322 320 322 321 322
315 314 314 313 313 314 315 316 317 316 316 316 316 315 315 313 313 313 315 317 318 318 317 317 318 319 316 317 316 315 316 318 320 320 320 320 321 322 321 321 322 321 319 319 320 321 320
315 315 314 313 313 314 315 316 317 317 317 317 316 316 315 314 314 315 317 317 318 319 319 319 318 317 317 316 316 317 317 318 319 320 322 320 323 323 321 320 320 320 320 320 321 321 321
315 315 314 314 313 313 315 316 317 317 317 317 317 316 316 315 315 316 317 324 324 319 318 317 318 318 317 318 318 317 318 319 320 321 320 320 322 320 320 321 321 321 321 321 321 320 321
314 315 314 314 313 314 314 316 316 316 316 316 319 320 317 316 316 317 325 324 317 318 319 318 318 318 317 318 319 319 319 318 319 319 319 322 320 319 320 322 322 322 321 323 322 322 321
313 314 314 314 313 314 314 315 316 316 316 317 317 319 319 319 319 322 324 316 316 318 321 318 318 318 318 319 319 318 318 319 319 319 320 320 319 320 321 322 322 323 320 321 321 322 324
311 312 314 314 313 314 314 314 316 316 316 316 317 317 318 319 322 320 320 316 315 321 325 318 319 319 318 320 319 319 319 319 320 319 321 321 321 322 322 321 321 323 321 321 322 323 323
310 310 312 314 313 313 314 313 314 316 316 315 317 317 317 318 322 319 317 317 316 328 323 319 319 321 320 320 320 320 320 319 320 321 322 321 320 321 322 320 320 321 322 323 324 325 325
309 310 310 313 313 313 314 314 313 315 315 315 315 316 317 318 322 316 316 320 322 327 320 319 320 321 321 321 321 321 322 322 323 323 323 322 322 321 320 323 323 322 324 327 328 327 327
309 309 309 311 314 314 315 314 314 313 315 315 315 316 316 316 316 316 318 324 327 322 320 320 320 321 322 321 321 321 322 322 321 322 322 323 325 321 320 321 322 322 323 328 324 325 324
309 309 309 310 314 314 316 314 315 313 314 315 315 316 319 316 315 315 321 328 325 321 320 320 320 321 321 321 321 322 321 321 319 321 323 323 323 320 320 320 321 322 323 320 324 322 325
309 308 309 310 313 314 316 315 317 313 312 314 318 317 320 317 315 318 328 324 322 320 319 320 321 322 322 322 322 322 322 320 320 318 318 319 324 319 319 320 321 322 320 324 322 325 318
309 308 308 309 312 314 316 315 319 315 313 314 319 318 320 316 316 323 329 324 321 320 320 322 322 322 323 322 322 322 321 320 320 320 319 318 319 320 319 321 322 323 323 320 318 320 321
309 308 307 308 311 313 315 317 319 316 314 316 320 323 316 317 323 327 325 322 320 321 321 322 322 322 323 322 323 323 322 322 319 319 321 318 320 319 318 319 320 320 321 319 318 318 318
309 309 308 307 309 312 314 318 317 320 318 323 321 322 318 320 330 330 322 321 321 321 321 322 322 322 322 323 323 322 322 319 319 320 321 319 321 320 320 321 320 320 319 317 318 317 319
310 309 308 308 308 310 313 317 318 320 321 322 322 328 322 323 322 323 323 322 322 320 320 321 321 321 322 322 322 323 322 320 319 319 316 317 319 318 319 317 316 316 316 316 317 319 320
310 309 309 309 307 309 312 314 319 320 322 319 323 325 323 326 325 323 323 322 322 321 320 320 321 322 322 322 322 322 321 320 318 316 318 319 319 319 318 316 315 315 316 316 316 316 319
310 309 309 309 308 307 310 313 315 318 317 320 321 322 321 323 322 323 320 322 321 320 320 320 321 321 320 321 317 318 317 316 317 318 318 318 320 318 317 316 315 315 315 315 316 317 317
309 309 309 309 308 307 308 310 314 316 317 321 317 319 323 318 323 324 323 322 321 320 319 319 320 319 320 318 318 318 318 318 317 319 319 319 319 318 320 317 317 320 318 316 316 316 317
308 308 309 309 308 307 308 309 313 315 316 318 318 320 322 324 323 323 320 320 321 320 320 319 318 320 319 317 317 317 317 317 318 318 318 320 318 318 320 317 324 318 316 315 315 315 315
309 308 308 308 308 307 307 308 310 315 315 316 316 319 319 325 321 320 320 320 319 318 319 319 319 319 318 318 320 318 316 313 315 315 316 317 319 317 320 318 316 316 315 315 315 315 315
309 308 307 307 308 307 307 308 309 314 315 316 316 315 319 316 323 319 320 320 322 322 320 318 317 318 320 320 319 321 320 317 318 316 313 315 317 320 318 318 319 318 315 313 314 316 315
309 308 308 307 307 307 307 307 309 312 316 317 317 315 319 320 318 318 321 321 320 319 321 319 318 318 319 319 322 323 321 317 317 317 314 314 314 319 316 318 316 315 313 313 317 318 315
310 309 308 308 308 307 307 307 308 311 315 317 317 316 319 318 317 317 317 319 319 319 324 320 320 320 321 316 319 321 319 319 317 315 316 317 318 315 316 317 316 313 313 316 315 314 313
311 310 310 309 308 308 308 308 308 310 313 316 319 316 315 320 319 314 314 316 317 318 319 319 319 320 319 322 318 318 320 314 318 318 315 317 316 317 317 317 314 314 313 314 313 312 311

GFSGBSN_850_thetae_006.txt.gz
Theta_e
310 310 311 312 312 313 313 314 314 314 315 314 314 314 313 312 311 310 311 310 312 313 315 315 313 315 315 318 320 318 319 319 318 318 321 321 321 321 321 320 319 319 318 318 317 317 318
310 312 312 313 313 313 314 314 315 314 314 314 314 314 313 312 311 311 311 312 313 314 316 316 313 315 314 322 318 318 318 319 319 319 319 320 320 320 319 319 320 319 318 318 318 319 319
312 312 313 313 313 314 314 315 315 314 313 313 313 313 313 313 312 312 312 314 314 316 317 315 312 314 318 321 317 318 318 318 319 320 320 320 320 319 320 320 320 320 320 320 320 321 320
313 313 314 313 313 314 315 315 315 313 313 312 312 312 313 313 312 312 313 314 315 317 317 315 312 313 322 318 318 317 317 317 318 320 320 319 320 321 322 320 319 320 321 321 321 321 322
314 314 314 313 313 314 315 315 315 315 315 313 312 312 312 312 312 313 313 315 316 318 317 314 313 315 322 317 317 317 317 318 318 320 319 319 320 320 320 320 320 321 321 322 323 321 322
314 314 314 313 313 314 315 316 316 317 317 316 315 313 313 313 313 313 315 317 319 318 317 317 319 323 318 318 317 316 317 318 320 320 320 320 321 321 321 322 321 321 321 320 320 321 319
314 315 314 313 313 314 315 316 317 317 317 317 316 315 313 313 313 314 316 317 318 319 320 320 318 318 316 315 317 317 317 318 320 321 323 321 322 323 322 321 320 320 320 320 322 321 320
315 315 314 313 313 314 315 316 316 317 317 317 316 315 315 314 314 316 319 327 324 321 319 318 318 318 318 319 318 317 318 320 320 321 321 320 322 320 320 320 321 320 321 321 322 321 319
314 315 314 314 313 314 314 316 316 317 317 317 318 316 315 315 316 317 323 327 325 320 320 319 319 318 319 320 320 319 320 319 320 321 319 323 321 320 320 322 322 322 321 323 322 322 322
313 314 314 314 313 314 314 315 316 316 316 318 319 319 316 316 317 322 325 321 323 318 321 317 319 318 319 319 319 318 319 320 320 320 321 321 320 321 322 323 322 322 322 321 321 321 322
311 313 314 314 313 313 314 314 316 316 316 317 317 319 319 317 325 323 325 316 317 324 326 319 319 319 318 321 320 320 319 320 320 320 321 322 322 323 323 322 321 323 322 321 322 322 322
310 311 313 314 313 313 314 314 315 316 316 316 317 317 318 319 326 325 320 316 316 332 327 319 320 321 320 320 321 320 320 321 322 322 322 321 321 322 322 321 321 322 323 323 323 324 330
309 310 311 313 313 313 314 314 314 316 316 315 317 317 320 323 326 317 316 319 323 329 321 320 321 321 321 321 322 322 322 323 324 323 324 323 322 322 320 323 324 322 325 331 334 334 332
309 310 310 313 314 313 315 314 313 315 316 315 316 316 317 320 321 317 319 325 328 323 321 320 321 321 322 322 321 322 323 322 322 324 323 324 326 322 321 321 321 323 323 333 328 331 328
309 309 309 312 314 314 315 314 314 313 315 315 315 315 319 316 315 316 326 329 327 321 321 320 321 321 322 321 322 323 322 321 319 321 324 324 323 321 319 320 320 323 323 320 325 323 327
309 309 309 311 313 314 315 314 315 314 314 315 316 320 321 317 314 317 329 329 325 321 320 320 321 322 322 321 322 323 322 321 320 319 319 319 324 319 319 320 321 321 320 324 327 327 321
309 308 308 310 312 314 315 316 317 313 313 315 320 318 323 315 314 322 330 329 322 320 321 320 322 321 323 322 323 323 323 321 321 320 320 319 321 321 320 321 321 322 323 321 319 322 323
309 308 308 309 311 314 315 316 319 314 313 318 320 322 320 315 320 322 329 323 320 321 322 323 323 322 323 323 323 323 323 323 319 320 321 318 320 325 319 319 319 319 320 319 326 320 324
309 309 307 308 310 313 315 317 319 314 314 318 322 325 315 316 328 336 324 323 322 321 321 322 323 323 323 324 324 323 323 320 320 321 321 319 323 326 322 322 320 319 319 318 320 320 320
309 309 308 307 309 312 314 318 320 315 319 325 324 328 320 321 327 327 325 323 323 322 322 322 323 322 323 323 323 323 323 321 319 318 315 318 320 319 321 318 317 317 316 316 316 324 321
309 309 309 308 307 310 313 317 318 320 319 322 326 325 320 325 325 324 324 323 323 322 322 321 322 322 323 323 323 323 322 320 318 315 318 319 320 319 318 316 316 316 316 316 316 317 318
310 310 309 309 307 308 311 314 318 319 321 319 325 324 323 325 323 323 321 323 323 322 322 321 322 322 322 324 320 321 319 318 319 319 319 319 323 319 318 316 316 316 315 315 315 316 316
310 309 309 309 308 307 309 312 315 317 317 323 320 321 324 322 324 326 326 323 323 322 321 321 322 322 322 321 320 319 319 319 318 320 320 321 323 321 322 317 317 322 320 317 316 316 316
309 309 309 309 309 307 308 310 314 315 318 322 322 322 324 328 326 324 323 322 322 321 321 320 320 322 319 318 318 318 318 319 319 318 319 320 319 319 320 318 324 319 316 316 316 316 315
309 309 309 309 309 308 308 309 312 315 315 316 317 324 322 321 324 323 322 321 321 320 320 321 320 319 318 319 322 317 317 314 316 316 317 319 320 316 322 318 317 316 316 316 315 316 315
309 308 308 309 309 309 307 308 310 315 315 316 316 320 323 321 326 321 321 321 324 324 322 320 320 320 320 322 321 318 324 318 319 316 315 317 320 322 316 317 318 318 316 314 314 317 317
309 308 308 308 308 308 308 308 309 313 316 316 315 316 322 324 321 321 322 323 321 322 323 320 320 321 321 318 318 327 324 317 320 319 315 314 316 317 317 316 317 315 314 314 316 318 315
309 308 308 308 308 308 308 307 308 311 316 317 318 315 322 321 320 321 321 321 321 321 326 320 322 321 324 316 320 323 321 322 320 317 316 315 317 314 316 316 316 314 314 315 317 315 314
310 309 308 308 307 307 307 307 308 309 313 317 322 316 316 323 320 318 319 320 320 320 321 320 320 321 322 322 321 321 319 315 318 322 315 319 320 321 318 318 315 315 314 314 314 314 312

GFSGBSN_850_thetae_009.txt.gz
Theta_e
308 309 310 311 311 312 313 313 314 314 314 314 314 314 313 312 311 310 310 310 310 312 312 314 314 314 314 315 319 317 318 319 316 316 318 321 321 320 317 317 318 315 315 316 316 317 318
308 309 311 312 312 313 313 314 314 314 314 314 314 314 313 312 311 310 310 310 311 313 314 315 314 314 314 321 318 318 318 318 319 319 320 321 320 320 319 318 316 317 316 316 316 318 318
309 310 312 312 313 313 314 314 315 314 313 313 313 313 313 312 311 311 310 312 313 314 315 316 314 314 314 317 318 317 318 318 318 319 320 319 320 319 320 319 319 318 315 315 316 319 317
309 312 313 313 313 313 314 315 314 314 312 312 312 313 313 312 311 311 312 313 313 315 316 315 313 313 314 319 318 317 317 317 317 319 320 319 319 320 320 318 318 318 316 316 317 318 318
310 313 313 314 313 314 314 315 315 315 314 313 311 312 313 312 311 312 313 313 315 317 316 314 314 313 320 317 315 317 317 317 318 319 319 318 320 320 319 316 316 317 315 319 318 319 319
312 314 314 314 313 314 314 315 316 316 316 315 313 312 312 312 312 313 314 315 317 318 316 315 317 323 321 318 317 317 316 318 319 320 320 319 320 317 315 315 318 318 318 318 318 318 318
313 314 315 314 313 314 315 316 316 316 317 316 315 313 312 312 313 313 315 317 317 317 318 317 318 320 316 315 317 317 317 318 320 320 319 321 318 318 318 319 319 319 318 318 318 319 319
314 314 315 314 313 314 315 316 316 316 317 316 316 314 313 313 313 314 316 323 326 325 320 320 318 317 318 318 317 317 318 319 319 319 319 317 318 318 319 320 320 319 321 320 318 319 317
314 315 315 314 313 313 314 316 316 316 316 317 316 314 313 314 314 316 322 327 325 321 319 319 318 318 319 319 319 318 319 320 318 319 318 318 319 319 320 320 320 320 320 320 320 318 318
313 314 314 314 313 313 314 315 316 316 316 319 319 316 314 314 316 317 323 324 325 318 316 317 318 317 318 319 318 318 318 319 319 319 318 318 319 321 321 321 319 323 321 321 320 319 318
312 314 314 314 313 313 314 315 316 316 316 317 319 318 315 316 324 324 326 320 317 319 319 319 319 318 318 320 319 318 316 321 319 317 320 320 320 321 321 320 320 322 321 320 320 320 320
311 312 312 314 313 313 314 314 316 316 315 317 317 318 318 319 326 324 322 317 316 325 321 319 319 320 319 320 320 320 319 321 321 320 318 319 320 319 319 321 320 320 322 322 321 320 321
311 310 312 313 313 313 313 314 315 315 316 316 317 317 321 324 327 318 316 315 319 322 322 318 320 321 320 321 320 321 321 320 321 321 321 320 320 320 320 321 320 319 321 322 323 321 322
310 310 311 313 313 313 314 314 314 315 316 315 316 317 320 322 323 316 316 323 327 323 320 320 320 320 321 321 321 321 320 319 318 321 321 322 322 319 319 319 319 320 321 317 326 322 321
309 310 310 312 313 313 315 314 313 314 315 315 315 316 317 317 316 316 325 324 326 323 320 320 320 321 321 321 321 321 318 318 317 317 321 323 321 318 317 318 319 322 318 318 320 320 316
308 310 310 311 313 314 315 314 314 313 315 315 315 315 319 316 315 315 325 325 325 320 320 320 321 321 320 320 321 321 321 320 320 318 318 318 321 318 318 319 320 318 318 319 316 319 320
308 309 309 310 312 314 315 314 314 313 314 315 317 318 319 320 313 319 323 328 321 321 322 322 322 321 322 320 321 322 321 320 319 319 317 318 321 319 319 318 319 319 320 318 317 315 316
308 309 308 310 311 314 315 316 317 313 314 315 320 320 323 317 317 323 323 326 320 320 321 323 322 322 322 322 323 323 323 321 320 320 319 317 317 315 319 318 318 318 319 318 313 318 313
309 309 308 309 311 313 316 317 318 312 314 316 321 324 320 316 316 316 324 322 321 320 321 322 322 323 322 323 322 323 322 320 320 318 318 318 318 316 320 320 318 318 317 319 317 311 314
309 309 307 308 309 312 315 317 318 313 314 319 325 318 319 323 326 327 326 322 322 322 322 322 322 322 323 322 322 323 322 320 318 315 315 318 318 316 316 317 315 315 315 315 317 312 315
309 309 308 307 308 311 314 317 317 314 315 321 324 322 317 316 320 323 324 322 323 322 321 322 321 322 322 322 322 322 321 319 318 315 318 317 318 317 316 315 315 315 314 314 314 314 313
309 309 308 307 307 309 313 316 319 315 315 321 324 325 316 319 318 323 321 322 323 322 321 321 321 322 321 321 321 321 320 319 319 317 319 318 316 315 316 316 314 314 313 313 313 314 314
309 309 309 308 307 308 310 314 317 318 319 320 322 321 325 323 321 321 322 323 323 321 321 321 320 318 316 319 319 319 318 318 319 318 319 317 311 310 315 314 313 311 315 316 315 315 315
309 309 309 309 308 307 309 312 315 317 318 323 321 322 323 315 321 322 323 322 322 321 320 321 320 317 318 318 318 318 317 316 317 317 317 313 313 308 307 306 309 317 314 314 315 314 313
309 309 309 309 308 307 308 310 314 315 318 319 319 324 321 309 323 323 322 322 320 321 320 320 319 318 317 318 310 310 308 305 311 315 316 316 309 305 309 310 311 314 315 314 313 313 315
309 309 309 309 309 308 307 308 312 315 315 315 318 323 321 320 318 323 321 320 318 319 318 320 319 318 320 314 305 310 312 313 314 315 312 314 308 306 308 305 305 312 314 314 314 310 315
309 308 308 309 309 309 308 308 310 315 315 316 315 318 322 321 320 321 321 320 321 321 316 320 320 320 321 307 312 311 312 315 314 312 308 305 305 305 311 302 308 312 314 313 312 310 315
309 308 308 308 308 308 308 308 309 312 316 317 315 320 321 321 320 321 321 321 320 321 313 320 315 318 311 310 307 308 309 309 312 313 310 307 306 309 309 307 309 312 313 310 311 315 314
309 308 308 308 308 308 308 308 308 309 315 318 317 316 318 320 318 320 321 321 322 322 320 319 315 320 319 311 307 310 308 311 308 310 313 313 311 309 309 308 310 314 314 313 314 314 312

GFSGBSN_850_thetae_012.txt.gz
Theta_e
307 306 307 308 310 311 312 313 313 314 314 314 314 314 314 313 312 311 310 310 310 310 310 312 313 313 314 315 316 317 318 318 318 316 315 315 320 321 316 316 316 313 314 315 317 317 315
306 307 308 309 311 311 313 313 313 314 314 313 313 313 313 313 312 310 310 310 310 310 312 313 314 314 314 318 320 317 318 318 318 319 319 319 320 320 319 317 315 315 315 315 316 317 317
306 307 308 310 312 312 313 313 314 314 313 312 312 313 313 312 311 310 310 310 311 312 313 314 315 314 314 316 318 317 317 317 317 318 319 319 319 319 320 316 316 315 313 313 314 317 317
306 308 309 312 312 313 313 314 314 314 313 312 311 312 313 312 311 311 310 311 312 313 314 315 315 314 314 319 319 317 317 317 317 319 319 319 319 319 318 317 317 316 313 314 316 316 318
307 308 310 312 313 313 313 314 315 315 315 313 312 312 312 312 311 311 311 313 313 315 316 316 314 314 313 319 316 317 317 317 318 319 317 318 320 320 318 313 313 313 314 316 317 316 317
308 309 312 313 314 313 314 314 315 316 316 315 312 311 312 311 311 312 313 314 315 317 316 315 318 317 314 318 316 317 316 318 319 319 319 319 319 314 313 312 315 315 316 315 316 316 317
309 310 313 314 313 313 314 315 316 316 316 315 314 312 311 312 312 313 315 316 317 317 316 313 316 319 318 316 316 316 315 317 319 320 318 319 316 316 317 317 317 317 316 316 316 317 317
309 312 313 314 313 313 314 315 316 316 316 316 314 313 312 313 313 314 316 321 327 324 317 314 318 319 318 318 317 317 317 318 319 318 318 315 317 317 318 319 319 319 318 318 318 318 315
309 313 314 314 313 313 314 315 316 316 316 316 314 313 313 313 314 316 319 325 325 321 320 318 318 318 319 319 317 318 319 319 318 318 317 316 318 318 319 318 320 319 318 319 319 318 315
310 313 314 314 313 313 314 315 315 316 316 317 314 313 314 314 315 316 317 325 323 319 312 316 317 317 319 318 317 318 318 319 319 317 316 317 319 319 319 319 318 321 320 319 319 317 315
311 313 314 314 313 313 313 315 315 316 317 318 316 315 314 316 325 325 325 325 318 319 315 316 318 318 319 319 318 317 319 321 318 318 318 319 319 319 319 319 319 320 320 320 319 318 318
312 313 314 314 313 313 313 314 315 316 316 318 318 317 316 319 325 323 323 317 316 321 317 318 318 319 317 319 319 318 319 320 320 318 316 318 319 318 318 319 319 318 320 320 319 318 319
312 313 313 313 313 313 313 314 315 316 316 317 317 318 321 322 324 320 316 317 318 317 319 317 319 319 319 319 320 319 317 317 318 319 319 319 318 318 319 320 318 317 320 319 321 319 320
312 312 312 313 313 313 313 313 315 315 315 317 316 318 323 323 323 318 316 317 325 321 319 317 318 319 319 319 318 319 318 317 316 319 319 319 320 317 317 318 319 319 318 316 325 319 318
311 311 311 312 313 313 313 313 314 315 315 316 316 317 319 319 317 317 321 320 322 322 318 319 319 319 320 320 319 318 317 316 317 317 319 320 319 318 316 317 318 319 316 316 317 314 314
310 310 311 311 313 313 314 314 313 315 315 315 316 316 316 316 316 315 322 321 324 320 319 318 319 319 319 319 320 319 319 318 319 317 316 318 318 317 317 319 318 315 316 319 313 317 318
309 310 310 310 312 313 315 314 313 314 315 315 315 315 316 315 315 317 320 323 322 320 322 319 320 319 320 318 319 320 320 318 318 318 315 318 316 317 319 317 318 317 317 316 315 312 315
308 310 309 310 312 314 315 314 313 313 315 314 318 316 319 320 312 317 319 323 319 319 321 321 321 322 320 321 322 322 321 320 319 319 316 316 314 313 318 317 317 317 317 315 311 317 310
308 309 308 309 312 314 315 315 314 313 314 316 321 324 323 317 309 310 319 321 320 320 320 321 321 321 321 321 322 322 320 318 316 316 318 315 315 314 318 318 316 317 316 317 312 308 311
308 308 307 309 311 314 316 317 315 313 314 316 322 315 320 320 321 317 322 321 321 321 321 321 320 321 320 321 320 321 320 319 314 313 315 317 316 314 316 317 313 314 314 316 313 310 312
308 307 307 308 311 313 316 318 316 312 314 320 324 318 315 313 315 321 322 320 321 321 321 321 320 321 320 321 321 320 319 318 317 315 316 314 316 316 314 314 314 314 314 313 313 313 313
308 307 307 307 310 312 315 318 316 313 314 319 323 323 315 313 314 320 319 320 320 321 320 321 319 320 319 319 319 320 317 316 316 316 317 315 313 313 315 314 314 313 312 312 312 312 313
308 308 307 307 308 310 313 317 317 313 315 318 322 322 316 319 314 317 319 320 321 320 320 320 318 316 315 318 316 317 317 317 317 315 317 314 309 307 311 310 311 309 313 315 314 313 313
309 308 308 307 307 309 312 315 317 315 314 320 322 324 322 313 316 317 322 321 320 319 319 318 318 316 317 317 317 316 315 314 316 315 314 310 309 302 304 302 305 313 312 312 313 313 313
309 309 308 307 307 308 310 314 316 317 318 322 321 323 322 307 319 321 321 319 319 319 319 319 318 318 316 312 306 308 306 307 309 313 315 311 303 305 302 307 306 311 313 313 312 312 313
309 309 309 308 307 307 309 313 315 316 319 318 318 323 320 317 315 322 318 319 316 315 315 319 316 319 318 307 303 308 308 308 313 315 311 310 303 303 306 302 302 306 313 313 312 311 313
309 309 309 309 308 307 308 310 314 314 314 315 318 322 319 321 320 321 318 318 319 316 314 319 319 319 316 300 309 308 312 311 312 311 307 304 301 303 298 299 305 306 312 313 310 309 314
309 309 309 309 308 308 307 308 312 315 315 315 316 318 320 320 320 321 321 320 320 319 312 318 314 315 307 305 303 308 308 308 309 311 309 307 306 305 302 300 308 309 312 310 309 314 314
309 308 308 308 308 308 308 308 309 313 316 315 317 320 319 318 319 320 321 320 320 319 319 319 314 316 315 307 306 309 307 309 306 310 310 311 307 307 309 309 308 312 313 313 313 314 314

GFSGBSN_850_thetae_015.txt.gz
Theta_e
308 307 308 306 307 308 309 310 311 313 313 314 314 313 313 313 313 312 311 310 309 309 309 310 311 313 313 315 316 318 317 317 317 316 315 316 316 318 316 315 316 313 312 314 314 314 315
307 307 307 306 307 308 310 311 312 313 314 314 313 312 313 313 313 312 311 310 309 309 310 311 313 313 314 315 319 318 317 317 317 317 317 316 315 319 319 317 312 313 312 313 316 315 314
308 307 306 307 308 309 311 312 313 314 314 313 312 312 312 313 312 311 310 310 310 310 311 313 314 314 314 317 318 318 316 316 317 317 319 319 319 319 318 314 316 314 312 313 314 315 315
309 306 306 307 308 310 312 313 313 314 313 313 312 311 312 312 312 311 310 310 310 312 313 314 314 314 315 317 318 317 316 316 317 318 318 318 319 319 316 315 315 314 311 312 313 315 314
309 305 306 308 310 311 313 313 314 314 315 315 313 311 312 312 311 311 310 311 312 313 314 315 314 314 314 317 318 317 316 317 318 319 319 319 320 317 316 312 311 311 313 315 316 314 314
310 306 306 308 311 312 313 313 314 315 316 315 314 311 312 311 311 311 311 312 314 315 316 315 318 315 314 316 315 317 316 317 319 318 319 319 319 313 311 310 311 314 316 314 315 315 315
310 307 307 309 312 313 313 314 315 315 316 316 314 311 311 311 311 312 313 315 317 316 316 312 314 314 318 317 317 316 316 317 319 319 316 317 314 314 315 316 315 316 315 315 315 315 314
309 307 308 311 312 313 313 314 315 315 316 316 314 312 311 311 312 313 315 321 326 324 319 312 314 317 318 317 316 316 316 318 318 316 316 314 316 316 316 317 317 317 316 317 317 314 314
310 307 309 312 313 313 313 314 315 315 316 316 314 313 312 313 313 315 317 322 324 321 322 318 318 318 318 317 317 317 318 319 317 317 316 315 317 317 317 317 319 319 317 318 318 314 314
309 308 309 313 314 313 313 314 315 316 316 316 314 313 313 313 315 315 317 325 323 321 311 315 316 317 318 317 316 317 318 319 317 315 315 318 317 318 317 317 318 321 319 318 318 314 317
309 308 311 313 314 313 313 314 315 315 316 317 315 314 314 316 323 320 325 324 320 321 313 315 317 317 319 319 317 316 319 320 316 317 317 319 318 318 317 318 318 319 318 318 318 315 315
308 309 312 313 314 313 313 314 315 315 316 317 316 315 314 320 324 323 323 317 317 318 316 317 318 317 317 318 318 317 320 320 318 316 315 317 318 317 318 318 318 317 319 317 317 316 318
308 309 312 314 314 313 313 314 315 315 316 317 317 315 315 322 325 320 316 316 315 318 317 317 318 317 317 318 318 317 316 315 317 318 319 317 317 316 317 320 317 317 318 318 320 318 319
308 310 313 313 313 313 313 314 315 315 316 316 317 317 319 322 323 319 316 312 322 320 317 316 317 317 318 318 317 317 317 316 315 317 317 318 318 316 315 317 318 317 317 317 325 319 317
309 311 313 313 313 313 313 313 314 315 315 316 317 320 321 319 319 317 317 315 320 319 317 318 318 318 319 319 317 316 316 315 316 316 320 318 318 316 316 316 317 318 315 315 315 312 314
309 312 312 312 313 313 313 313 314 315 315 316 318 319 318 317 316 316 318 319 321 319 317 317 319 318 318 318 319 318 318 317 318 314 315 317 317 316 316 317 316 315 315 316 311 315 318
310 310 311 311 312 313 313 313 313 314 315 315 316 316 316 316 316 316 315 319 324 319 321 318 317 318 318 317 318 319 319 318 317 318 315 317 313 315 316 316 317 316 315 313 313 310 313
311 309 310 310 312 313 313 314 313 314 315 314 316 310 319 317 312 314 318 321 321 319 321 320 320 320 317 320 321 320 320 318 318 318 315 315 312 313 317 315 315 316 316 312 310 316 309
310 309 309 310 312 313 314 314 313 314 314 315 316 324 324 319 308 308 315 321 319 318 319 320 320 320 319 320 320 320 319 317 314 315 317 314 313 314 317 316 314 317 316 313 309 306 312
309 308 308 310 312 313 314 314 313 313 314 316 318 315 322 320 313 312 318 320 320 320 320 320 319 319 319 320 318 319 319 318 313 313 315 315 314 312 315 315 313 313 314 314 311 309 310
308 308 308 310 312 313 315 314 314 313 314 318 321 314 318 314 316 320 317 319 320 320 320 319 319 320 319 320 320 319 318 317 314 315 315 312 314 314 312 312 312 313 312 313 314 312 312
308 307 308 309 312 314 316 317 315 313 314 319 323 317 314 311 315 317 318 320 319 320 319 320 318 319 318 318 317 319 316 314 313 315 315 312 312 311 315 312 312 312 311 310 310 311 312
307 307 307 309 311 313 316 318 315 313 315 319 321 322 315 313 313 315 316 319 319 318 319 319 317 315 314 316 316 316 315 315 315 315 315 311 307 305 306 309 309 305 309 312 312 311 311
307 307 306 308 310 312 316 318 315 312 314 317 321 323 319 311 310 314 319 319 319 318 318 317 317 315 315 315 315 316 315 314 315 314 313 309 305 300 304 302 304 308 309 311 312 312 312
307 307 306 308 309 312 315 317 314 313 314 319 322 324 320 306 315 318 318 317 318 318 318 318 317 317 316 312 306 309 305 306 308 312 310 309 302 304 303 305 305 309 312 311 312 310 311
308 307 307 307 308 311 315 316 316 314 314 319 321 321 318 318 316 319 318 317 314 313 314 318 315 315 316 303 303 305 306 308 312 314 310 306 301 302 303 300 301 305 311 312 311 310 312
309 308 307 307 308 310 315 316 317 317 317 321 320 321 318 319 320 319 317 316 317 314 312 318 319 317 314 299 300 304 310 308 311 309 307 304 299 301 294 298 304 305 311 312 310 307 313
309 309 308 307 307 309 313 315 316 316 318 317 319 320 319 320 320 321 319 319 318 317 311 317 314 315 305 305 302 303 304 307 308 309 309 309 308 303 302 301 307 307 310 311 310 310 314
309 309 308 308 307 308 309 314 315 314 314 314 316 318 319 318 319 320 320 320 319 318 318 318 316 314 313 304 300 304 306 307 305 309 308 309 306 307 307 308 307 309 311 313 312 312 314

GFSGBSN_850_thetae_018.txt.gz
Theta_e
313 311 307 306 307 307 307 307 308 310 311 312 313 313 313 312 313 313 313 312 310 309 309 309 310 312 312 313 315 318 317 317 317 317 317 315 315 316 316 316 316 314 313 313 313 315 315
313 311 307 306 307 306 307 308 309 311 312 313 314 313 312 312 313 313 312 311 309 309 309 310 311 312 313 315 318 318 316 317 316 317 316 316 315 315 318 315 315 314 312 312 313 313 313
313 312 309 307 307 306 307 308 310 312 313 314 313 312 311 312 312 312 311 310 309 309 310 311 312 313 313 316 317 317 316 316 316 316 317 317 316 317 318 315 314 312 312 311 312 314 313
313 312 310 307 306 306 307 309 311 312 313 313 313 313 311 312 312 311 310 310 309 310 312 312 314 314 313 316 317 318 316 316 316 317 317 318 318 317 318 314 313 312 310 311 312 314 313
314 311 311 308 305 306 308 310 312 313 314 314 314 313 311 312 312 311 310 310 311 312 313 314 315 314 315 316 318 316 316 316 317 319 318 317 317 316 313 311 311 310 312 314 315 313 314
314 312 310 307 305 307 309 312 312 313 314 315 315 313 311 311 311 310 310 311 312 314 315 316 317 316 314 316 316 316 316 315 318 318 318 318 317 312 311 310 312 312 313 313 315 314 311
315 314 311 307 305 307 310 312 313 314 315 315 315 312 311 311 311 311 312 314 317 316 316 312 313 313 315 315 316 316 316 316 319 319 316 315 313 314 315 313 312 314 314 314 313 312 313
315 315 310 308 306 308 311 313 313 314 315 315 314 313 311 311 311 311 314 319 325 322 321 312 312 314 317 317 316 316 316 318 317 316 315 313 315 315 316 316 315 314 314 315 314 313 315
316 315 310 308 306 309 312 313 313 314 315 315 314 312 311 311 312 313 317 319 324 323 321 317 317 316 318 317 316 317 317 318 316 316 315 314 316 316 317 316 317 317 316 316 315 315 314
316 316 310 308 307 310 313 313 313 314 315 315 314 312 313 313 314 315 316 325 324 323 311 315 316 316 317 317 315 317 318 318 315 314 316 317 317 316 315 316 317 319 317 315 314 315 317
316 316 310 307 307 311 313 313 313 314 315 315 314 313 314 314 317 317 324 322 322 321 312 313 316 317 318 318 316 316 319 318 315 316 316 318 318 316 316 318 317 318 316 316 315 314 314
316 317 310 308 308 312 313 313 314 314 315 316 315 314 314 319 322 323 321 317 318 316 315 316 317 316 316 317 317 318 319 319 318 315 314 316 317 316 317 317 316 316 317 315 315 314 317
316 317 311 308 309 313 313 313 313 314 315 316 316 315 315 321 324 319 316 317 313 317 316 316 316 316 316 316 316 315 315 314 316 317 317 315 316 314 316 319 315 316 316 317 319 317 319
315 317 311 308 311 313 313 313 313 314 315 316 316 316 317 324 323 318 316 311 317 318 315 315 316 316 317 317 317 315 315 315 314 315 315 316 315 315 314 317 317 315 316 316 323 319 317
315 317 311 308 312 313 313 313 313 314 314 315 316 317 323 320 320 318 316 311 315 317 316 316 317 318 318 318 316 315 315 314 315 315 318 317 317 315 315 315 317 316 315 314 314 312 314
312 317 310 309 313 313 313 313 313 314 314 315 317 321 323 316 316 317 312 313 319 319 316 316 317 317 318 318 317 317 317 316 317 315 314 316 317 315 315 316 315 316 313 315 311 314 316
314 316 309 310 313 312 313 313 313 314 314 316 320 318 319 316 315 315 311 314 321 321 318 317 317 317 317 317 317 318 317 317 317 317 315 314 313 313 314 315 316 315 314 312 311 309 312
315 314 309 312 313 312 313 312 313 313 313 315 318 310 319 316 312 311 315 319 322 317 319 319 318 317 316 318 319 319 318 317 316 317 316 314 312 313 315 314 314 315 314 310 309 313 308
316 311 309 312 311 312 312 313 313 313 314 316 316 323 323 316 308 307 313 318 319 317 318 319 320 319 318 319 319 319 318 316 313 315 315 313 313 314 314 313 312 316 314 310 307 306 312
314 309 311 312 311 312 312 313 313 313 314 317 316 317 323 319 310 311 315 319 319 319 319 319 318 318 318 319 317 318 318 316 313 314 315 313 311 311 313 313 312 313 315 311 310 307 309
311 309 309 310 311 312 313 314 313 313 313 318 317 316 319 315 315 311 313 318 319 319 319 318 318 318 318 319 319 318 317 315 313 314 314 310 313 312 312 311 312 311 311 312 311 310 311
309 308 309 310 311 312 313 314 313 313 314 320 320 314 314 312 317 317 314 317 318 319 318 319 318 318 317 317 316 317 315 312 310 314 314 310 311 310 314 311 310 312 310 309 310 311 310
308 308 308 310 311 313 314 315 313 313 314 320 322 319 317 309 312 315 315 318 318 317 318 317 316 315 316 317 316 315 313 313 313 314 312 309 307 305 305 307 305 306 308 308 308 308 308
307 307 308 310 311 313 315 315 313 313 314 318 321 321 316 308 309 315 316 318 317 316 317 316 316 314 314 316 316 315 314 314 313 311 310 306 304 299 302 301 304 308 309 309 309 310 308
307 307 308 309 312 314 316 317 314 313 314 317 320 322 318 303 309 314 316 316 317 317 317 317 316 315 315 312 307 310 306 307 308 308 306 306 302 302 302 304 305 308 308 310 310 310 309
306 307 308 310 311 314 317 317 315 313 314 316 319 322 319 313 312 316 316 316 313 312 313 316 314 313 314 301 302 306 310 311 311 314 308 304 300 301 297 301 301 305 308 311 310 310 309
306 306 308 309 312 315 316 316 314 312 314 316 319 321 318 319 319 318 316 316 315 313 311 315 314 316 312 298 300 303 306 306 310 309 308 304 300 300 292 298 303 304 310 310 310 309 309
306 306 307 309 313 316 316 316 313 313 314 318 320 320 319 319 320 319 318 318 316 316 311 316 313 314 304 305 302 302 301 306 308 308 309 308 308 302 299 298 307 306 310 310 309 310 312
307 306 307 308 312 316 317 318 316 314 316 317 319 320 319 319 319 320 319 319 318 317 317 317 316 314 313 304 298 299 305 303 304 308 307 309 306 306 305 307 306 308 310 312 311 310 312

GFSGBSN_850_thetae_021.txt.gz
Theta_e
313 312 311 312 310 307 306 307 307 307 308 310 311 313 313 312 312 312 312 312 311 310 309 308 308 310 311 312 314 318 316 317 317 318 317 315 315 315 318 317 316 314 315 312 313 314 321
317 312 312 311 310 307 306 307 307 307 309 311 312 313 312 311 311 312 312 312 310 309 308 308 310 311 312 314 317 317 316 316 317 317 317 316 315 315 317 315 316 315 312 312 311 312 315
323 314 313 312 310 306 307 307 307 308 310 312 313 313 312 312 311 312 312 311 309 309 309 310 311 312 313 314 316 316 317 316 316 316 317 316 315 315 316 316 314 311 314 312 312 312 313
323 320 313 313 311 307 306 306 307 308 311 312 313 313 313 312 311 312 311 310 309 309 310 311 312 313 313 316 316 317 317 315 315 315 315 316 316 315 316 314 313 313 313 315 313 313 312
323 322 314 313 312 309 306 306 307 309 312 313 313 314 314 312 311 311 310 309 309 310 311 313 314 314 314 316 317 316 316 315 316 316 315 316 316 316 313 314 315 314 315 315 315 313 314
322 323 316 314 312 310 305 305 307 310 312 313 314 314 313 311 311 311 310 310 311 312 313 315 316 316 315 316 317 315 316 315 317 317 316 316 315 315 313 314 316 316 315 314 316 315 317
320 321 319 314 314 310 306 305 308 311 313 314 314 314 313 311 311 310 310 312 316 315 315 313 312 313 314 316 315 315 316 316 319 318 318 314 317 317 316 313 312 313 314 315 314 314 319
319 320 321 315 315 311 306 305 309 312 313 314 314 314 313 310 310 310 311 316 321 321 321 314 313 313 315 316 316 315 315 317 317 317 315 317 318 316 317 315 316 315 316 316 316 316 319
315 319 320 316 315 313 307 306 310 312 313 314 314 314 312 310 310 312 314 320 322 324 321 317 316 314 317 317 315 317 316 317 315 316 315 318 317 315 317 317 319 317 318 317 319 317 317
308 316 319 318 315 314 308 306 311 313 313 314 315 314 311 310 311 313 317 320 325 324 314 315 315 316 316 316 315 316 317 317 315 316 317 318 316 316 317 318 317 320 317 316 318 319 321
303 309 317 319 315 314 308 306 311 313 314 314 315 314 312 312 316 315 319 324 322 321 316 313 315 316 317 316 315 316 318 318 316 315 317 318 317 317 319 317 316 319 316 317 315 317 318
303 305 312 319 316 315 308 307 312 313 313 314 314 314 314 313 317 318 324 318 321 319 322 315 316 315 316 316 316 317 318 318 317 316 316 316 315 316 317 315 315 316 318 318 317 318 320
303 305 311 317 316 315 308 308 313 313 313 314 314 314 314 316 320 323 318 320 317 319 316 315 316 315 316 316 316 315 316 317 318 320 319 317 316 314 315 319 316 318 320 323 325 325 323
303 304 307 315 316 315 308 309 313 313 313 314 315 315 314 318 324 320 319 314 317 317 316 314 315 315 317 316 316 315 316 317 315 316 317 317 318 315 314 317 318 317 320 326 323 325 323
302 304 305 314 316 315 308 310 313 313 313 313 314 315 317 320 324 318 314 315 316 316 315 316 316 317 317 317 316 316 315 315 315 315 320 319 317 315 314 315 317 317 318 316 318 313 320
301 305 306 312 316 314 309 312 313 313 313 313 314 314 316 323 319 319 314 314 315 317 316 315 317 317 318 317 317 317 317 316 316 315 314 317 319 314 315 315 315 317 314 319 316 318 318
301 304 306 312 316 312 309 313 313 313 313 313 312 317 322 318 319 317 315 313 319 322 318 316 317 317 317 317 317 317 317 317 316 317 314 313 317 316 315 317 318 317 316 314 314 314 316
302 304 306 310 317 311 310 313 313 312 313 312 317 312 321 317 313 310 314 315 321 318 318 318 316 316 317 317 319 318 319 317 315 317 318 314 315 318 316 314 315 315 315 315 317 315 312
302 305 302 310 315 309 312 313 312 313 313 313 318 322 322 316 313 311 312 317 319 316 317 318 319 317 318 319 320 318 318 315 313 314 316 314 316 319 318 315 314 316 314 311 310 312 315
302 303 303 309 314 309 312 313 312 313 313 315 318 319 323 316 311 312 315 317 318 318 318 317 317 317 318 319 317 319 318 315 313 314 314 313 313 316 318 315 314 315 315 311 313 316 313
302 303 306 311 312 310 311 312 312 313 313 316 317 316 320 316 311 310 312 316 318 319 318 317 318 317 318 320 318 318 317 314 313 314 314 313 316 313 312 312 312 311 313 313 313 313 317
302 303 307 313 309 310 312 312 313 313 312 317 316 315 314 312 312 312 312 317 318 318 317 318 319 317 317 318 318 319 317 313 311 314 314 311 315 311 313 311 311 313 311 311 313 312 311
303 305 312 309 309 309 312 312 313 313 313 317 319 316 315 307 313 312 313 316 317 317 317 316 316 316 317 316 315 313 312 311 312 315 313 311 311 311 312 308 308 311 311 312 311 311 314
306 310 310 309 308 310 312 313 314 313 313 318 319 316 314 308 311 313 315 317 316 316 318 315 315 315 314 315 315 314 313 312 311 309 309 308 306 304 311 306 312 311 310 309 311 310 309
309 310 308 308 309 311 312 314 314 313 313 318 319 317 316 305 309 313 315 315 316 316 316 316 315 314 315 313 312 313 311 311 310 308 306 306 306 306 313 310 308 309 307 310 312 313 310
309 307 308 308 310 312 314 315 314 313 314 318 321 320 319 310 310 316 315 315 314 313 314 314 312 312 311 303 308 313 316 314 311 313 308 305 304 311 305 310 311 309 306 310 310 316 310
307 307 308 309 311 313 315 315 313 313 314 318 319 321 320 315 313 315 316 316 315 313 313 312 312 313 311 305 309 311 313 307 311 311 310 310 307 310 302 312 309 306 308 310 314 314 308
307 307 309 310 312 314 316 316 314 313 314 317 318 320 320 319 317 317 316 317 315 316 315 314 314 314 307 310 311 309 311 309 310 309 311 312 312 311 303 308 313 305 311 314 313 310 309
307 309 310 313 315 315 317 317 315 313 315 315 318 319 320 319 318 318 318 317 317 317 318 314 316 313 312 309 304 304 309 305 307 314 307 312 311 313 310 313 307 307 311 312 311 311 310

GFSGBSN_850_thetae_027.txt.gz
Theta_e
322 322 323 323 322 320 313 312 310 308 306 307 307 308 309 311 313 312 311 311 312 312 311 309 308 308 309 320 319 317 317 313 313 316 316 315 316 317 318 318 318 320 321 321 323 325 324
318 322 322 321 323 322 317 313 310 307 306 307 307 308 310 312 313 312 311 312 312 311 310 309 308 309 312 319 318 320 316 313 315 317 316 315 317 317 318 318 319 320 320 319 319 324 327
313 316 322 321 323 323 321 314 312 308 306 307 307 308 311 313 313 312 311 312 312 310 309 308 308 310 315 319 318 321 318 318 316 317 318 318 318 318 319 321 320 319 319 318 318 322 323
300 310 318 320 321 321 322 317 312 310 307 307 307 309 312 313 313 313 311 311 310 309 309 309 310 311 318 318 318 319 320 319 318 318 318 319 319 318 319 320 319 319 320 320 320 321 323
298 300 314 320 321 321 321 321 314 311 307 306 307 310 312 313 314 312 311 311 310 309 309 310 312 317 321 317 317 318 318 318 318 318 318 318 319 319 320 321 320 319 319 319 319 320 321
299 300 302 316 318 318 321 323 316 312 309 306 307 311 313 314 314 312 311 310 309 310 311 312 315 320 320 318 319 317 317 319 320 319 319 319 319 321 322 321 320 318 319 319 319 320 322
298 302 305 307 317 320 320 322 318 314 310 306 307 311 313 314 313 311 310 310 314 319 314 319 319 319 318 318 317 317 316 318 320 320 322 320 321 321 321 321 320 320 320 318 320 322 320
299 302 302 307 312 317 319 318 321 314 311 306 307 312 313 314 313 311 310 317 321 323 324 316 317 317 317 317 318 317 317 319 320 321 321 321 321 322 321 319 320 319 319 320 320 320 322
303 303 304 305 309 314 318 319 322 315 313 307 308 313 314 314 312 310 310 316 323 323 326 320 318 318 317 317 318 318 318 319 320 320 321 322 322 321 320 319 319 320 320 321 321 321 321
304 304 303 304 305 312 317 320 321 316 314 308 308 313 313 314 312 312 314 313 317 318 327 320 319 319 318 318 318 318 318 319 320 321 321 322 322 321 320 321 321 321 322 322 322 323 322
303 304 304 303 305 307 313 317 320 317 314 309 309 313 314 314 321 316 324 321 323 326 324 319 319 318 318 318 318 318 318 318 319 319 321 323 322 322 322 323 323 324 322 323 323 324 325
303 303 303 303 304 306 310 314 319 318 315 310 309 313 313 314 313 320 322 324 326 328 323 319 319 318 319 318 317 319 318 318 320 320 321 322 321 323 323 322 323 323 323 323 324 323 324
302 302 302 303 303 305 306 312 318 318 315 310 309 313 313 313 316 320 321 325 326 324 320 318 319 319 319 319 318 319 319 319 318 320 321 322 322 322 322 323 323 322 323 325 325 324 324
300 301 302 301 301 302 305 307 315 318 315 311 310 313 313 313 318 321 326 325 326 320 320 318 319 319 318 319 319 319 319 319 319 321 321 322 323 322 322 323 323 323 323 325 322 322 321
298 301 302 301 301 303 303 305 312 317 316 312 310 313 313 313 313 322 326 327 324 319 320 318 318 318 319 319 319 319 319 319 320 320 322 322 322 321 321 322 321 323 322 323 324 326 324
298 300 302 301 301 302 303 304 308 316 317 311 311 313 314 314 313 321 326 323 322 321 321 319 319 319 320 320 319 319 320 321 322 322 323 322 323 321 321 321 322 322 322 322 321 322 322
297 299 302 302 301 301 303 303 305 313 316 309 315 316 316 317 314 321 327 323 321 320 320 320 319 319 320 320 319 320 321 322 322 322 322 322 321 323 321 321 321 323 322 321 322 324 323
297 298 301 301 300 301 302 303 305 311 315 310 316 320 322 316 320 323 324 322 320 321 323 320 321 320 320 320 320 319 321 321 321 322 321 322 322 323 323 322 321 322 323 323 322 321 321
297 300 300 299 299 300 301 304 306 310 314 311 317 319 323 321 325 329 323 321 321 322 323 322 320 321 320 320 321 320 319 321 321 323 321 323 321 323 323 323 321 320 320 321 320 321 321
297 299 300 298 299 299 300 304 305 309 314 313 318 323 323 322 321 324 323 321 321 321 322 321 320 322 323 323 323 323 323 321 320 321 316 318 321 322 324 323 322 322 321 320 320 321 319
300 299 299 298 298 300 300 303 307 309 312 314 318 320 320 325 326 325 322 321 321 322 322 322 323 323 323 323 324 324 324 321 320 318 319 322 323 322 322 321 320 320 319 320 320 319 320
298 298 298 298 299 300 301 303 305 309 310 313 319 320 319 321 321 322 320 321 320 322 323 323 322 321 322 323 323 323 324 323 323 322 323 321 322 322 323 321 320 319 319 318 319 318 318
296 296 297 299 299 300 301 302 306 310 310 313 319 319 320 322 325 322 324 321 320 323 324 323 322 323 324 324 324 323 323 322 323 324 324 323 322 321 319 317 318 320 320 319 319 318 319
295 295 296 299 299 301 301 302 304 311 311 315 319 319 321 325 324 321 320 320 320 323 324 323 323 324 323 320 320 320 320 320 320 321 322 323 322 321 321 316 323 316 316 316 317 317 317
294 296 298 299 301 302 301 303 305 311 311 316 320 319 320 325 320 319 318 320 319 322 324 323 322 322 320 321 323 322 322 322 319 317 317 318 320 320 325 318 317 316 314 315 315 316 316
295 297 299 300 302 301 302 303 308 310 312 316 322 322 319 325 321 317 318 317 323 325 324 319 319 319 319 324 326 324 324 322 323 322 316 315 317 319 318 325 325 318 315 314 315 316 314
297 299 300 301 303 303 304 309 310 310 312 315 324 318 318 317 316 316 318 319 319 323 325 320 319 319 318 327 329 328 324 321 322 322 320 321 321 323 321 324 321 317 314 314 317 318 315
299 299 302 303 303 306 309 310 310 312 313 314 323 317 318 320 319 319 317 317 318 321 327 321 321 321 322 326 331 327 328 322 321 319 321 321 324 322 323 321 322 313 315 316 318 314 314
300 302 303 305 307 310 308 309 311 312 313 317 323 317 321 321 322 322 320 319 319 321 322 320 322 322 322 325 328 328 323 318 324 322 318 321 321 322 320 320 316 314 314 314 314 314 314

GFSGBSN_850_thetae_030.txt.gz
Theta_e
318 319 322 323 324 322 323 321 315 312 311 308 306 307 307 308 310 312 312 312 311 312 312 311 309 308 309 321 319 321 316 315 312 314 318 317 315 316 318 319 319 319 320 321 322 326 325
300 313 319 321 321 323 321 323 320 313 311 308 306 307 307 308 310 313 313 312 311 312 311 309 308 308 311 320 319 321 317 315 314 316 318 316 316 317 318 318 319 319 321 321 320 325 325
299 299 305 316 318 322 320 323 322 316 313 309 307 307 307 309 311 313 313 312 311 311 310 309 308 309 316 317 320 321 319 316 317 317 317 317 317 318 319 320 319 321 320 321 319 324 325
299 299 299 302 318 316 321 321 322 320 314 311 307 307 307 309 312 313 313 311 311 310 309 309 309 311 319 319 319 319 321 320 319 318 318 319 320 319 319 321 321 321 320 319 320 323 324
300 299 299 299 308 312 320 320 321 322 316 312 309 307 307 311 313 313 312 311 310 309 309 309 314 319 321 319 318 318 319 319 320 319 319 319 319 320 320 321 322 320 320 321 320 321 324
299 299 299 299 299 306 318 320 320 320 319 313 310 307 307 311 313 314 312 310 309 309 310 311 313 319 317 320 318 318 318 319 321 320 320 320 320 321 321 322 322 320 320 320 319 319 321
299 299 299 299 299 299 315 318 318 318 322 314 311 307 308 312 314 314 311 309 318 319 317 318 320 318 319 319 319 318 318 320 321 321 322 321 322 321 321 322 321 320 320 320 319 320 320
299 299 299 299 299 298 302 315 314 319 322 316 312 307 308 312 314 314 311 318 323 324 325 322 315 319 318 319 319 318 318 319 322 321 321 323 322 321 322 321 321 321 321 321 320 320 320
302 300 299 299 299 298 299 312 318 320 320 318 313 308 308 313 314 313 311 310 321 321 324 322 318 317 319 319 318 318 318 318 321 321 322 323 322 322 322 320 320 320 320 322 320 319 318
301 302 302 300 301 301 298 308 315 317 318 319 314 308 309 313 313 313 313 311 317 319 325 322 319 318 319 318 318 318 318 318 321 321 323 323 322 322 320 320 320 322 323 322 322 321 320
300 300 303 304 304 302 300 304 313 316 318 319 315 309 309 313 322 318 325 320 327 327 328 322 320 318 319 319 319 318 319 319 320 321 322 324 322 322 321 322 323 322 322 323 321 322 326
300 300 302 303 304 305 301 302 311 316 318 318 315 310 310 313 314 318 323 327 328 330 326 320 319 320 319 318 318 318 318 319 319 320 321 321 321 322 323 323 323 323 323 323 323 323 328
301 299 301 302 303 304 305 302 306 314 319 319 315 311 309 313 317 317 321 328 327 324 320 320 319 319 319 319 318 319 319 318 319 320 321 320 321 322 323 323 322 321 322 327 330 330 329
298 299 301 302 302 303 303 303 305 310 315 318 315 312 309 313 321 322 325 329 325 320 322 319 318 319 319 319 318 318 319 318 318 319 320 322 323 322 322 322 323 323 321 327 329 328 327
295 298 299 301 302 303 304 304 305 307 313 318 315 312 309 313 316 322 325 329 324 323 320 320 319 319 319 319 318 318 319 318 318 319 322 323 323 322 322 322 321 322 322 322 322 328 332
295 299 298 299 302 302 303 303 304 306 312 316 315 312 310 313 314 321 325 326 322 321 321 320 319 319 318 319 319 319 319 319 319 320 322 324 324 323 321 321 321 321 321 324 322 324 323
296 298 297 298 300 302 303 301 302 305 309 315 314 313 313 313 315 320 326 325 324 320 320 321 319 319 319 320 320 319 319 320 322 322 322 323 324 323 322 321 319 323 322 320 319 325 329
296 297 296 297 299 302 303 301 303 304 308 313 313 315 316 314 318 317 325 322 321 322 320 321 321 320 319 320 320 319 320 321 321 321 322 321 322 324 322 322 322 321 323 322 331 323 326
296 296 295 296 297 300 302 302 303 303 307 312 313 316 319 316 319 322 322 323 321 322 322 322 321 321 320 320 320 320 320 323 323 323 323 323 322 323 321 323 323 321 320 320 322 324 325
295 295 295 296 298 300 302 302 303 303 306 312 314 319 323 321 316 321 324 323 322 321 321 322 321 320 321 320 321 321 321 322 322 322 318 322 321 320 325 322 322 323 321 319 321 328 323
295 296 297 297 298 301 302 302 303 303 305 312 315 319 321 322 323 322 325 322 322 322 321 322 321 320 322 323 321 323 322 323 322 320 320 322 321 320 320 321 322 322 321 320 320 321 322
296 296 297 298 300 301 301 301 302 303 306 309 315 319 320 320 320 322 323 325 322 322 322 323 322 321 323 323 323 323 323 324 322 322 322 322 324 322 324 322 322 321 321 320 319 319 319
297 298 299 299 300 300 300 300 301 303 305 309 313 318 321 321 322 323 326 326 323 323 322 322 322 323 323 324 324 325 324 324 323 325 324 325 326 325 324 319 318 319 320 319 318 319 319
298 299 300 300 300 299 299 300 301 303 305 309 312 319 320 324 321 323 324 324 322 323 325 323 322 325 324 323 322 322 322 322 323 324 324 325 326 328 328 317 322 317 317 316 317 317 317
298 298 298 299 299 298 298 299 301 301 304 309 313 318 320 323 322 322 325 325 321 320 324 323 325 325 323 323 325 324 325 321 321 320 320 322 324 326 327 322 318 317 316 316 316 316 316
297 296 297 297 297 299 299 300 301 301 304 309 313 317 320 324 324 320 322 322 323 326 325 322 323 322 323 327 331 327 328 322 322 321 317 317 322 326 322 327 325 320 315 315 315 318 315
296 296 294 296 297 299 300 300 301 301 305 308 310 315 322 321 321 320 322 322 322 326 326 323 321 321 322 332 325 333 328 321 326 325 319 322 324 323 323 325 323 318 315 315 319 322 316
296 293 294 297 299 300 301 301 301 303 306 307 313 317 318 319 321 320 319 319 321 325 327 323 323 323 328 328 332 332 330 327 324 320 322 322 326 322 327 322 322 315 315 317 320 316 315
294 294 297 299 300 301 302 302 303 304 307 309 311 317 321 321 324 322 320 319 319 322 325 322 324 323 324 328 331 333 322 318 327 326 319 323 323 327 323 324 318 314 314 314 314 314 315

GFSGBSN_850_thetae_033.txt.gz
Theta_e
300 305 315 317 320 320 322 322 322 322 318 313 310 307 307 307 308 309 310 312 312 311 311 311 309 308 308 314 315 321 318 316 311 311 314 316 318 317 315 315 316 316 317 318 326 326 326
300 300 300 309 318 320 316 322 321 322 321 315 311 307 307 307 308 309 312 312 312 311 311 310 308 308 309 320 321 321 319 316 313 315 316 318 318 315 316 316 316 318 318 318 320 326 325
299 300 300 300 304 314 317 315 322 320 322 319 312 309 307 307 308 310 312 313 311 311 310 309 308 309 309 310 320 320 320 318 316 316 317 317 319 319 319 318 320 320 318 318 318 324 324
300 300 300 300 300 301 307 316 316 319 321 322 315 310 307 307 308 311 313 312 311 310 309 309 309 311 311 316 318 319 320 321 319 317 317 318 319 319 319 319 320 319 318 317 318 323 323
300 300 300 300 300 300 300 310 311 318 320 322 318 312 308 307 308 311 313 312 310 309 309 309 313 323 318 320 319 317 319 320 320 319 318 318 319 319 320 318 317 318 317 320 320 322 324
300 300 300 300 300 299 299 303 309 316 319 320 321 314 309 306 308 312 313 311 309 309 309 310 311 315 316 319 317 318 318 319 319 320 319 319 319 318 317 318 319 319 319 319 320 318 323
299 300 300 300 300 300 299 299 303 311 317 319 321 316 311 306 308 313 313 311 322 322 316 311 316 313 319 319 319 318 318 319 321 320 321 321 318 319 321 320 321 321 319 318 317 317 321
299 299 299 300 300 300 299 299 299 311 318 318 319 318 312 306 309 313 313 311 320 318 322 323 324 318 317 319 319 318 318 319 321 320 321 320 321 320 321 322 322 322 320 319 318 318 319
302 300 300 300 300 300 299 299 299 304 316 315 319 320 313 307 310 313 313 311 316 319 322 322 321 321 316 319 319 318 318 318 319 320 320 322 321 322 321 320 321 321 322 319 319 318 317
303 303 302 303 302 299 299 298 299 299 310 313 318 320 314 307 311 319 319 312 311 317 323 323 323 319 316 318 319 318 318 318 319 321 320 320 321 322 321 321 321 321 321 322 322 318 317
301 302 302 301 303 304 303 302 299 301 309 318 318 319 314 307 315 318 325 319 325 324 327 322 321 318 317 318 318 318 317 318 319 321 321 321 322 322 322 322 322 322 321 321 322 322 323
299 300 301 301 301 301 305 305 302 302 310 316 317 320 315 307 312 317 324 326 326 328 328 322 320 318 318 319 318 318 318 318 319 320 319 319 321 322 322 322 321 321 321 322 322 321 323
299 298 299 301 301 300 303 304 305 302 308 314 318 319 316 308 311 316 317 324 325 326 320 320 319 319 318 318 318 317 317 317 316 319 322 321 320 321 321 321 321 321 321 322 322 323 324
300 298 298 298 301 300 302 304 304 302 306 313 317 318 316 308 312 322 321 324 329 320 321 320 319 319 318 318 317 317 318 316 316 316 320 321 323 321 322 321 323 321 320 323 327 325 324
298 299 297 298 301 300 301 302 304 304 304 311 316 317 315 310 315 320 323 326 322 322 319 321 318 318 317 318 317 316 315 317 316 315 317 322 324 322 322 321 321 322 323 321 324 323 321
298 298 298 297 298 300 301 302 303 304 304 308 311 314 315 312 311 316 322 322 324 321 321 321 319 318 318 317 318 316 316 317 318 317 320 322 323 322 322 321 319 320 319 320 320 320 321
297 297 297 297 296 299 300 302 303 304 304 307 311 314 315 314 312 317 320 321 322 322 321 321 319 318 318 318 317 317 318 317 318 321 321 320 323 324 322 322 319 320 319 320 319 320 321
296 296 296 296 296 298 300 302 303 304 303 307 313 315 314 310 316 316 317 320 321 321 322 323 321 320 318 318 320 317 318 323 320 321 321 321 322 323 324 321 320 320 321 321 317 319 320
295 295 294 294 296 298 299 301 303 303 303 308 313 314 314 312 313 315 315 319 321 322 321 322 321 321 320 318 321 318 323 322 322 321 321 322 319 318 318 320 321 320 319 319 320 318 320
294 294 294 294 295 298 299 300 302 303 303 309 313 315 317 316 311 314 315 317 321 321 322 321 321 321 320 319 320 320 322 322 322 319 319 322 321 318 317 318 321 322 320 319 318 315 317
293 293 293 294 296 297 298 299 302 302 303 309 313 314 317 318 317 314 315 317 322 323 322 321 321 321 320 320 320 322 323 321 322 319 320 319 319 318 318 320 321 321 321 319 318 318 317
293 293 294 294 296 296 296 298 302 302 304 307 313 315 318 320 318 318 316 318 321 322 322 321 322 320 319 321 321 321 323 322 321 320 320 319 321 320 321 321 318 319 319 318 318 318 317
293 293 294 295 295 296 296 298 301 302 304 307 309 314 317 319 318 319 316 319 321 321 321 321 321 320 322 322 323 323 324 322 321 320 319 320 320 316 319 314 314 312 315 316 318 317 316
294 294 295 295 296 296 297 299 302 302 303 307 308 313 317 318 320 319 317 317 322 321 322 321 321 321 323 323 322 322 321 321 323 322 322 321 320 313 314 311 310 314 315 314 314 314 312
295 296 296 296 297 298 298 299 301 302 303 306 308 311 318 308 318 318 316 319 321 322 321 322 324 323 323 322 320 319 315 313 318 319 319 321 315 315 312 313 315 315 315 316 314 314 313
296 296 298 299 298 301 300 301 301 302 303 305 307 311 313 319 319 318 316 320 321 322 322 323 324 323 323 321 314 320 318 319 320 317 317 317 316 310 313 313 310 315 314 315 314 314 314
296 298 299 299 299 299 301 301 301 301 301 305 305 307 309 319 320 320 317 318 322 322 321 321 322 322 325 310 316 314 315 320 319 318 314 311 311 310 307 309 313 318 314 314 311 312 315
297 298 299 298 299 300 300 300 300 300 301 302 305 306 311 316 320 320 319 320 322 323 319 322 321 319 319 316 315 313 311 315 317 321 316 314 314 309 312 315 316 315 314 312 315 314 314
297 297 296 296 297 298 299 299 299 300 301 302 305 307 310 310 317 322 322 322 321 323 323 321 321 321 323 320 316 313 316 311 315 314 318 317 317 315 315 314 315 314 313 314 314 315 315

GFSGBSN_850_thetae_036.txt.gz
Theta_e
300 300 300 304 315 316 319 315 322 322 322 322 319 312 309 307 307 307 308 310 312 311 311 310 309 308 308 309 311 319 318 315 312 311 313 313 316 317 314 314 314 313 315 320 324 324 324
300 300 300 300 300 311 316 319 316 319 321 322 322 316 310 306 307 307 308 310 312 311 310 310 309 308 308 313 321 320 319 316 314 315 316 316 318 318 316 315 316 318 318 322 324 323 323
300 300 300 300 300 300 304 315 317 317 319 321 322 320 312 307 307 307 308 311 312 311 310 309 308 308 308 310 319 319 320 318 316 316 316 317 318 318 319 317 319 319 317 324 324 324 324
300 300 300 300 300 300 300 301 313 316 314 319 320 322 315 309 307 307 309 312 312 310 309 309 308 309 309 311 316 317 319 320 318 318 317 317 318 319 319 318 318 318 315 317 323 322 324
300 300 300 300 300 300 300 300 301 307 314 315 318 322 319 311 307 307 309 312 311 310 309 309 309 318 313 317 318 319 319 319 319 320 318 318 318 319 319 317 315 315 316 317 320 321 321
300 300 300 300 300 300 300 299 299 301 308 311 318 319 321 313 308 307 310 313 311 312 310 310 309 313 313 318 319 317 318 318 320 319 319 319 319 315 315 316 318 319 318 318 319 319 322
305 302 299 300 300 300 300 299 299 299 304 309 316 318 320 317 309 306 310 313 317 323 317 313 312 310 313 317 318 318 318 318 320 320 319 320 318 318 317 318 318 320 321 319 315 316 322
304 304 303 299 299 300 300 300 299 299 300 304 315 317 318 319 310 306 311 313 319 315 318 319 320 323 318 319 316 318 318 319 320 320 320 318 320 319 318 321 321 320 320 319 317 316 320
303 304 304 302 299 299 300 300 299 299 299 305 316 318 317 320 310 307 313 315 314 314 318 319 316 317 317 317 317 319 318 318 318 319 320 319 320 321 321 321 320 319 320 320 320 317 315
302 302 303 304 304 302 300 301 300 298 298 303 316 316 316 320 309 308 322 322 311 312 320 321 321 321 317 316 317 318 318 319 318 319 319 319 319 321 321 321 320 320 319 319 320 317 314
305 303 302 302 303 304 304 303 301 299 298 301 314 315 315 319 309 317 323 324 318 322 315 319 322 319 315 316 318 318 318 318 318 320 319 318 320 321 321 321 321 321 320 320 320 320 319
304 303 302 301 302 303 304 305 306 303 299 302 312 316 318 317 312 313 321 324 322 324 323 323 321 316 316 316 317 318 317 317 318 320 319 318 320 320 321 321 320 320 320 320 320 320 321
301 303 303 301 300 301 302 302 305 306 303 302 311 316 318 317 314 307 318 321 322 324 320 321 318 317 316 317 317 317 316 316 315 319 320 320 321 320 321 321 320 321 319 319 320 320 320
297 301 302 302 300 299 301 301 301 305 305 303 311 314 317 318 313 313 319 324 323 320 321 320 318 317 317 317 317 316 315 314 315 316 318 319 320 320 321 321 321 320 318 319 322 321 320
294 297 303 302 301 299 300 301 301 303 305 304 309 312 316 315 315 313 321 324 319 322 318 318 318 317 317 316 316 315 315 314 314 313 315 321 323 321 320 320 320 320 320 319 322 320 319
294 298 302 302 301 299 298 299 301 301 304 304 308 310 313 315 315 310 319 319 320 321 320 320 318 317 316 315 316 314 314 315 316 314 317 320 321 320 321 321 320 318 319 320 318 322 323
295 296 302 301 300 300 298 299 301 301 304 303 307 311 313 315 315 311 318 318 319 319 320 321 320 318 317 316 315 315 315 315 315 318 318 319 318 320 321 321 321 318 318 318 317 316 318
296 296 300 300 299 299 299 298 301 302 303 304 308 312 313 314 313 312 317 316 317 318 320 321 321 320 317 316 316 315 317 316 318 319 319 319 320 321 321 320 319 317 319 318 315 317 317
297 297 298 299 299 298 298 298 300 303 303 304 309 312 313 315 314 311 314 317 316 317 320 321 321 320 319 316 319 317 319 321 321 318 318 318 319 319 319 316 319 319 317 318 317 314 316
298 296 297 298 298 297 297 297 299 301 303 304 309 312 313 314 314 310 312 315 317 316 317 319 321 321 319 319 318 319 322 321 321 319 320 318 317 317 317 316 317 320 320 318 316 314 316
298 295 297 297 297 297 296 296 297 301 304 304 308 311 312 314 313 311 311 314 316 316 318 320 319 320 321 318 317 321 321 320 320 318 319 317 318 317 316 317 320 320 320 319 317 316 316
297 295 296 297 296 295 295 295 296 300 304 303 308 312 313 314 313 312 312 313 314 314 317 318 320 321 318 318 317 319 321 319 319 319 318 317 317 318 319 317 316 318 316 315 317 317 316
296 295 296 296 295 295 294 295 296 299 301 303 306 310 314 312 314 313 313 313 313 313 316 316 319 319 319 318 319 320 321 320 319 317 318 318 317 313 318 312 313 312 314 315 316 316 316
295 294 295 295 294 294 294 295 299 299 300 304 305 310 313 313 317 316 314 314 313 314 314 320 319 319 320 321 321 321 320 320 320 319 319 316 316 309 311 309 311 315 313 314 312 311 311
294 294 294 294 294 294 295 296 298 299 299 302 305 309 312 311 315 317 316 314 313 315 318 317 319 321 321 321 317 317 313 315 316 316 318 318 312 313 311 311 313 314 313 312 312 314 312
294 294 294 294 294 295 296 297 297 297 298 301 305 307 311 312 313 316 317 315 314 316 317 319 321 322 321 316 312 316 317 317 319 316 314 314 312 312 310 311 310 312 313 313 312 312 313
295 294 295 295 295 295 296 296 296 298 298 301 304 307 308 311 317 317 317 316 315 316 318 321 322 322 322 308 312 312 315 317 316 315 311 309 309 309 304 307 308 311 313 313 310 309 313
296 296 296 296 296 296 296 296 297 298 300 302 304 304 305 310 313 318 317 315 315 317 317 320 320 318 314 315 315 310 308 314 314 316 313 313 311 307 311 309 313 314 313 312 310 313 314
296 297 298 299 298 297 298 298 298 299 301 302 304 304 305 306 310 314 317 320 316 317 321 321 321 320 320 318 314 310 312 306 312 315 315 315 311 311 312 312 312 312 314 314 314 315 315

GFSGBSN_850_thetae_039.txt.gz
Theta_e
299 299 299 299 302 313 317 318 319 315 322 322 322 322 319 311 307 307 307 308 309 311 311 310 310 309 308 308 311 319 319 314 311 311 311 313 316 317 315 313 313 312 314 319 323 325 324
299 299 299 299 299 299 304 316 317 318 316 317 321 321 322 315 309 307 307 308 310 312 311 310 309 308 308 309 320 320 317 314 313 312 312 315 317 317 317 314 314 317 317 322 323 324 323
299 299 299 299 299 299 299 301 312 317 318 316 317 319 322 320 311 307 307 308 310 312 311 309 309 308 308 309 319 320 320 318 313 314 315 317 317 317 318 316 318 318 319 323 323 322 323
300 299 299 300 299 299 299 299 299 309 315 316 316 312 319 322 315 308 307 307 311 312 310 309 308 308 308 309 314 319 319 320 318 316 316 317 318 318 318 318 317 316 315 320 323 323 322
301 301 300 299 300 299 299 299 299 299 307 313 314 310 315 321 319 310 307 307 311 312 310 309 308 310 310 313 313 318 319 319 319 319 318 317 318 318 318 316 315 313 315 316 319 321 320
306 303 301 301 299 300 300 299 299 299 299 306 307 311 315 319 321 313 307 308 312 311 314 313 309 309 310 316 318 318 318 318 319 319 318 319 318 314 313 314 317 319 318 316 318 320 319
304 305 305 304 300 300 299 299 299 298 298 300 306 313 316 317 320 317 307 310 312 321 318 316 310 308 309 315 317 317 318 317 318 319 317 319 317 318 316 316 317 319 319 319 315 317 321
305 304 304 305 306 303 301 301 300 299 298 299 302 311 312 316 318 318 307 311 316 314 314 317 317 318 320 321 321 318 318 318 319 318 319 316 318 317 318 318 319 319 319 318 318 318 319
305 305 303 304 304 305 304 306 305 301 299 298 299 307 313 318 319 318 307 317 318 314 312 314 316 315 316 318 319 318 318 319 318 318 318 317 318 319 320 319 319 318 319 319 319 317 314
301 303 305 304 303 304 305 305 306 304 300 298 299 306 318 317 316 317 313 320 314 312 317 319 321 317 317 317 317 318 318 318 317 318 318 317 318 319 320 320 319 319 318 318 318 318 313
298 300 302 305 303 302 303 304 306 307 305 298 300 308 318 317 315 310 321 319 314 320 309 313 321 318 316 316 317 317 318 318 317 319 317 317 319 320 320 319 319 319 320 319 319 318 318
297 297 300 303 304 303 302 303 304 305 306 303 301 311 316 317 317 314 320 318 320 316 314 319 320 317 314 315 317 316 318 317 317 318 318 316 318 319 318 320 319 319 319 317 318 318 319
299 298 296 300 303 304 302 302 303 304 305 305 303 310 315 311 315 317 309 320 323 319 315 320 318 315 314 315 315 316 315 314 317 318 319 319 320 319 320 319 319 318 318 319 319 319 319
300 299 297 297 301 305 303 301 302 302 304 305 304 310 313 315 317 316 316 322 321 318 318 320 317 315 314 315 315 315 314 314 313 316 316 318 318 318 320 320 320 319 317 317 321 319 318
301 300 299 295 299 304 303 302 301 302 302 304 304 308 311 315 317 314 318 323 317 318 320 314 317 316 315 316 316 315 313 313 312 313 315 319 320 320 319 320 319 320 320 317 319 317 317
302 301 300 297 296 300 303 303 300 301 301 304 304 307 309 313 316 315 316 320 319 318 320 320 317 316 316 315 315 314 313 313 314 313 315 317 318 319 320 320 319 319 317 319 317 320 323
303 302 300 299 295 298 302 302 301 301 300 304 304 308 308 311 315 312 314 317 318 318 318 321 321 318 316 315 314 313 314 314 314 314 315 317 315 317 320 319 318 317 317 316 315 314 317
303 303 301 300 297 294 299 302 300 300 300 304 304 307 309 311 313 312 311 314 316 317 317 319 320 321 318 315 314 314 314 314 315 316 316 317 315 316 318 319 318 317 317 315 315 316 315
303 303 302 300 297 296 298 301 300 298 301 303 305 308 310 309 313 313 311 312 315 316 316 317 320 320 318 315 315 314 314 318 319 315 317 317 317 317 317 316 317 319 316 317 315 311 316
303 303 302 300 297 298 301 301 300 298 301 304 306 309 312 311 312 312 311 313 316 315 315 316 318 320 320 318 315 316 319 319 319 317 317 317 316 316 317 317 317 319 318 316 316 314 315
304 302 301 300 297 301 300 300 299 299 301 303 305 308 311 314 312 312 311 312 314 317 315 315 315 318 320 320 316 320 320 320 318 317 317 316 317 315 315 315 318 317 318 316 315 314 315
303 302 301 299 297 299 300 299 298 299 301 304 305 310 311 311 312 311 311 312 313 315 315 316 315 318 315 318 318 319 318 318 318 318 317 315 315 316 317 315 315 318 316 315 315 315 314
303 301 300 299 297 300 299 299 298 298 299 300 304 306 310 311 311 312 313 311 312 313 314 314 316 318 317 318 318 318 318 318 316 316 315 315 315 312 315 312 312 312 313 314 314 315 315
301 300 300 298 297 298 298 298 298 297 297 300 303 306 310 309 311 311 312 312 311 313 313 314 313 313 317 319 319 319 318 316 317 316 315 314 312 308 311 309 312 314 312 312 313 311 310
300 300 299 297 298 298 297 297 297 296 296 299 302 305 309 309 311 313 311 312 312 312 312 312 314 313 313 318 316 317 312 316 315 315 318 315 310 310 312 312 313 314 311 311 311 312 311
299 299 298 297 297 297 296 295 296 295 296 297 300 305 306 310 311 313 312 312 312 312 311 312 314 314 317 314 311 317 319 318 318 316 313 310 309 312 307 311 313 313 311 312 310 311 311
299 298 297 296 297 296 296 296 295 294 295 297 299 303 305 308 311 313 315 313 312 311 312 314 314 320 321 307 310 313 313 316 316 315 311 310 308 311 304 307 310 309 312 311 311 310 312
297 295 295 295 296 295 294 294 294 295 296 300 299 302 304 306 309 312 314 316 315 313 313 316 319 318 311 313 314 311 309 313 312 314 312 314 311 307 305 305 313 311 311 310 309 311 313
294 295 294 294 294 294 294 295 297 297 297 298 299 300 304 305 306 310 312 315 314 314 313 318 318 318 318 316 312 310 311 304 311 314 314 314 312 312 312 311 311 312 311 313 314 314 313

GFSGBSN_850_thetae_042.txt.gz
Theta_e
299 300 300 299 299 299 301 309 316 319 319 317 320 322 321 322 320 311 307 307 307 309 311 311 310 309 309 309 308 317 318 314 311 311 312 314 316 316 314 313 312 311 312 317 315 323 324
299 299 299 299 299 299 299 299 304 315 317 318 317 316 320 320 321 316 308 307 307 308 311 311 310 309 308 309 317 319 315 313 312 311 313 314 317 317 317 315 313 315 317 319 322 323 322
304 300 300 299 299 299 299 298 299 300 313 316 317 318 314 318 321 320 312 307 307 308 311 311 309 308 308 309 316 319 318 317 313 313 314 315 316 317 317 315 316 317 321 322 322 322 322
305 305 304 303 299 299 300 299 298 298 300 312 315 317 316 313 318 321 317 309 307 308 311 311 309 308 308 309 315 319 318 319 316 315 315 315 316 316 317 317 315 314 316 321 321 322 322
306 305 305 306 305 300 300 301 300 299 299 299 308 314 316 313 314 320 320 310 307 308 311 311 309 309 309 309 311 316 317 318 319 318 317 316 317 317 317 314 314 313 314 315 319 321 321
306 307 305 306 306 306 302 301 300 300 299 299 300 310 315 313 315 319 320 312 307 309 311 312 313 310 308 313 316 317 318 318 318 318 317 318 317 313 312 312 316 318 318 316 318 320 320
300 305 307 306 305 306 306 303 303 301 299 299 299 304 311 315 318 319 318 309 311 316 318 317 310 309 309 313 316 317 317 318 318 318 316 318 316 317 315 314 316 318 318 319 317 316 322
299 301 303 307 305 305 305 306 306 306 302 299 298 299 308 315 313 318 318 308 313 314 315 316 316 316 319 320 319 317 317 317 318 317 318 316 317 316 316 316 318 318 319 318 316 316 317
300 298 300 303 306 305 304 305 306 306 306 301 299 298 305 313 313 318 318 309 316 318 313 313 314 315 315 316 318 317 317 317 317 317 317 316 316 318 319 318 318 318 318 318 318 316 314
301 300 298 301 303 306 304 304 305 305 306 304 299 299 308 309 316 316 317 316 318 316 313 315 317 317 316 317 317 317 317 318 316 317 316 317 316 318 319 319 316 319 317 318 318 317 316
301 301 300 297 299 303 304 304 303 304 304 306 302 299 309 315 316 312 316 317 313 316 309 311 320 318 317 316 316 317 317 318 315 317 316 317 318 319 319 318 317 317 318 319 318 318 317
302 301 301 300 298 299 302 304 303 303 304 306 305 299 309 313 317 313 318 315 317 317 312 313 319 317 314 315 316 315 317 316 316 318 317 315 317 317 317 318 317 318 318 315 315 316 319
302 302 302 301 299 298 300 304 304 302 303 304 306 302 309 312 314 311 316 316 323 317 312 316 319 314 313 313 314 314 313 314 315 317 317 317 318 318 319 319 317 316 316 318 319 319 320
301 302 302 301 300 298 298 301 305 302 302 303 304 304 308 311 312 314 314 319 321 316 315 317 316 313 313 313 313 314 313 313 313 313 314 316 316 318 318 318 317 318 317 317 320 319 317
302 301 302 302 301 300 297 299 303 303 301 302 304 304 306 310 313 311 315 320 319 316 318 314 315 315 314 314 314 314 312 312 312 313 315 317 318 318 318 319 318 318 318 315 317 316 316
302 302 301 302 302 300 299 296 300 304 301 301 304 304 304 308 310 314 313 317 319 315 319 320 316 315 314 313 314 313 312 312 313 312 313 316 316 318 319 319 318 318 316 317 315 320 321
303 303 302 302 303 301 300 296 299 304 301 301 303 304 304 308 312 313 314 314 316 317 318 319 321 321 315 314 313 312 313 313 312 312 313 314 314 314 319 318 317 317 316 314 314 313 316
300 303 303 302 303 301 300 298 298 303 301 301 303 303 306 307 313 312 314 311 313 316 317 317 318 320 321 314 313 313 314 314 313 314 315 315 312 312 315 317 316 315 316 314 314 316 313
298 299 303 302 303 302 300 299 297 302 301 300 303 305 307 307 312 312 312 313 311 315 315 317 318 319 319 316 315 313 313 314 314 313 314 315 314 314 314 314 316 318 316 315 312 310 315
299 298 301 302 303 303 300 299 297 302 300 300 303 304 309 309 310 309 311 312 312 313 314 315 317 318 319 318 314 314 314 317 317 314 315 315 314 313 314 314 314 318 316 315 315 313 314
299 300 300 302 303 303 300 299 297 300 300 301 304 304 308 310 309 310 309 310 312 312 314 314 314 317 318 319 317 316 318 319 317 316 315 314 315 314 314 315 315 316 317 314 314 314 315
299 300 299 303 303 302 301 299 296 299 300 301 303 305 308 308 307 309 310 310 311 311 314 314 315 314 316 318 317 317 319 317 317 314 314 313 315 313 316 314 314 318 315 314 314 314 313
299 300 299 303 303 302 300 298 296 297 299 301 303 305 308 308 308 308 309 310 310 312 312 314 314 314 315 315 315 315 316 317 315 316 314 313 313 311 316 311 313 312 312 314 313 313 314
301 300 300 302 302 301 300 298 299 300 299 301 302 304 307 307 310 309 308 309 310 311 313 313 314 314 314 315 317 317 315 315 315 316 313 312 311 308 309 309 312 314 312 312 313 312 311
300 300 300 302 301 300 299 300 299 300 298 301 302 304 307 302 308 310 310 309 310 311 312 313 313 313 313 313 316 317 314 316 315 313 314 311 309 310 312 311 312 314 311 311 311 310 308
300 300 300 301 300 300 299 299 300 298 298 299 302 304 305 308 307 309 310 310 310 310 310 311 312 312 312 313 311 317 319 318 317 316 311 310 308 311 306 311 312 312 312 310 309 310 308
300 301 302 300 300 299 300 299 299 298 298 298 300 301 302 306 309 309 310 310 310 310 309 310 311 314 315 305 310 312 315 316 316 317 314 309 308 309 302 307 310 310 310 310 311 310 310
302 302 300 300 300 299 299 299 298 298 298 298 297 298 299 305 306 310 311 311 311 311 309 310 311 313 310 313 314 312 309 313 313 314 315 316 313 307 304 306 316 310 310 310 309 310 311
300 300 300 299 299 298 299 298 298 298 298 297 297 296 299 301 306 308 311 312 310 311 311 313 312 313 313 314 309 307 309 304 311 315 311 316 314 313 313 314 311 311 310 312 312 311 311

GFSGBSN_850_thetae_045.txt.gz
Theta_e
303 301 300 299 299 299 299 299 300 304 311 316 317 318 315 320 321 321 321 314 308 307 307 309 311 310 309 309 309 312 318 313 311 311 311 314 315 315 316 314 312 314 314 314 317 321 323
304 304 303 300 300 299 300 299 299 299 300 308 315 316 318 316 315 319 320 320 311 307 307 309 311 310 309 308 311 318 315 313 311 310 313 315 316 316 316 315 313 315 315 319 321 322 323
307 306 305 305 303 301 299 300 299 299 299 299 303 313 315 317 316 315 318 320 315 308 307 308 311 310 309 309 309 318 316 314 312 312 313 314 316 316 316 317 316 316 320 322 323 322 323
306 307 307 306 306 305 303 300 301 300 299 298 299 304 311 315 316 315 313 319 318 310 307 307 311 310 309 309 309 319 318 317 315 314 314 315 315 316 316 316 316 315 318 323 320 323 322
302 304 306 308 306 306 306 304 301 300 300 299 298 299 304 311 314 313 312 317 320 312 307 308 310 310 309 309 309 316 318 317 318 317 315 315 315 316 316 316 317 317 318 317 318 322 322
302 302 302 304 307 306 305 306 304 300 300 299 299 299 300 308 312 309 312 315 318 310 309 312 312 311 312 311 314 312 315 316 318 317 316 317 316 317 316 317 317 320 319 318 319 322 322
301 301 301 302 303 306 306 306 305 304 301 300 299 298 299 307 314 313 317 315 310 312 316 314 313 312 309 311 316 315 316 318 317 317 318 318 320 321 318 316 317 318 319 320 318 316 323
303 302 301 301 300 303 306 306 305 305 305 302 300 299 298 303 312 316 316 315 311 314 315 313 314 316 316 317 318 317 316 317 318 318 318 318 321 318 316 316 318 318 319 319 318 317 318
297 301 302 301 301 299 302 306 305 305 305 306 304 301 298 302 310 313 315 315 315 315 316 314 312 313 314 315 316 317 316 317 316 317 318 319 318 317 319 318 319 319 319 319 320 318 315
300 299 300 301 301 301 299 303 306 304 304 305 306 304 300 304 308 308 312 314 311 317 314 313 314 315 314 316 317 316 316 317 316 318 318 318 316 317 319 320 318 319 317 318 319 320 320
302 301 301 301 301 301 300 298 303 305 304 304 305 306 302 309 313 313 314 314 315 315 315 312 319 317 317 316 315 317 317 317 318 317 318 319 318 319 319 319 317 320 317 319 319 320 319
301 301 301 302 302 301 301 299 299 304 304 303 304 306 303 309 310 312 315 316 316 319 315 311 318 318 318 316 315 314 316 316 316 318 317 316 316 318 319 318 317 317 318 317 317 319 322
302 302 301 302 302 302 301 301 298 300 303 303 303 305 305 307 311 310 315 316 320 320 312 313 319 315 315 314 314 314 315 317 319 319 320 317 318 317 318 319 318 318 320 322 323 324 324
302 303 302 302 302 302 302 301 300 298 301 304 302 304 305 306 310 311 314 316 319 315 315 315 315 314 315 313 314 314 314 316 313 314 315 318 317 318 318 319 321 319 320 325 322 323 321
302 303 303 302 302 302 302 302 301 298 299 303 302 303 304 304 309 312 314 318 317 316 316 315 314 316 314 313 314 314 314 316 315 315 318 318 318 316 317 318 319 319 321 318 320 317 323
301 301 303 303 303 302 302 302 301 299 298 302 302 303 303 303 307 311 313 316 317 315 318 320 315 315 316 314 315 315 314 313 314 314 315 318 318 318 319 319 318 318 317 322 319 323 323
302 300 300 302 303 303 302 302 301 300 298 301 302 303 303 303 309 311 312 314 314 315 317 319 321 322 316 314 315 314 315 313 313 312 313 316 317 316 319 320 320 319 319 316 318 318 321
302 303 300 298 302 303 303 302 302 300 298 301 302 303 303 304 308 310 310 311 312 313 315 317 318 320 321 315 314 314 316 316 313 313 316 316 317 318 318 317 316 317 319 318 323 319 317
298 298 301 300 298 303 303 302 302 299 298 302 301 302 303 303 308 309 310 312 312 313 314 317 318 318 319 317 314 314 314 313 312 314 317 317 316 317 317 316 316 319 317 315 315 315 318
299 299 299 298 297 300 303 302 302 299 298 301 301 303 305 305 307 308 310 311 313 311 313 315 317 317 318 318 316 314 315 314 313 313 314 315 316 318 318 318 317 319 318 316 319 320 320
300 299 299 299 297 298 301 302 302 300 298 301 302 304 305 307 306 308 310 310 312 313 312 314 315 316 318 318 318 315 316 317 316 315 315 317 318 315 314 313 315 317 318 316 318 319 321
300 300 300 300 298 299 300 302 301 300 298 301 302 304 306 307 306 307 309 310 311 311 312 313 315 315 316 318 318 319 317 318 318 315 316 314 318 315 315 314 315 318 316 316 316 315 316
301 300 300 300 299 299 301 302 301 300 299 300 301 303 304 307 307 306 307 310 310 312 311 312 313 314 315 316 315 316 315 315 317 318 316 315 316 316 318 312 314 317 316 316 316 315 317
301 300 299 301 299 300 302 301 300 299 298 300 301 303 305 306 307 306 306 308 309 310 311 311 312 312 312 313 313 315 315 314 314 315 315 315 315 313 316 311 320 318 312 314 316 315 314
299 300 300 299 300 300 303 301 300 299 298 301 302 303 304 305 307 307 307 307 309 310 310 311 313 314 315 313 314 317 316 316 315 314 314 313 313 314 319 318 316 314 313 314 315 316 313
299 299 299 300 300 300 301 301 300 299 299 301 301 303 304 305 307 308 308 307 309 309 310 311 312 313 313 312 311 314 322 319 318 316 311 309 311 319 311 319 321 318 313 310 311 316 312
300 300 300 301 300 303 301 300 300 299 299 300 301 301 303 305 306 308 309 309 308 309 310 310 312 312 313 308 313 315 317 318 320 319 317 314 312 317 312 319 317 313 311 310 317 318 310
300 300 301 300 303 300 301 300 300 299 298 299 301 301 302 303 304 307 309 309 308 308 309 309 312 312 312 312 314 315 314 317 317 316 317 318 317 316 312 317 321 310 309 315 316 311 310
300 300 301 302 301 300 300 300 298 298 298 299 299 299 301 301 302 302 305 308 309 309 309 310 310 311 311 314 312 311 313 310 316 320 312 320 317 319 318 320 315 310 314 312 312 311 310

GFSGBSN_850_thetae_048.txt.gz
Theta_e
307 305 304 303 301 300 299 299 299 299 299 300 304 310 312 314 314 317 319 319 320 318 309 307 308 310 310 312 311 312 317 314 313 311 313 315 317 318 318 318 318 318 319 318 319 321 326
307 309 307 305 304 303 302 300 299 299 299 299 299 302 312 314 313 315 314 316 317 320 314 308 307 309 311 313 309 312 317 312 311 312 313 315 318 318 319 319 319 319 319 321 322 324 325
302 305 307 308 307 306 306 303 300 299 299 299 299 299 301 310 312 314 316 311 314 319 319 310 307 308 311 312 309 314 314 312 311 313 314 314 316 318 319 320 319 319 321 324 324 325 325
303 303 304 305 308 308 306 306 304 301 300 299 299 299 299 302 309 312 315 311 309 316 320 314 307 309 313 311 309 315 315 315 313 312 314 315 315 317 319 319 319 320 321 322 325 326 325
302 302 302 303 304 307 308 306 306 305 301 300 300 299 299 299 303 311 312 308 308 315 318 315 308 310 314 310 309 311 318 317 317 315 314 315 316 319 319 320 319 320 320 320 321 325 326
303 302 302 301 302 303 305 308 306 306 305 301 300 300 299 299 300 307 308 308 312 312 314 311 312 313 312 312 312 311 317 316 318 318 317 317 319 321 321 320 318 319 320 320 321 325 326
303 304 303 302 302 301 302 304 307 306 305 305 302 301 300 298 299 306 308 314 316 315 313 317 316 315 310 312 315 316 315 315 318 319 321 320 322 322 320 320 319 321 321 320 322 322 325
298 297 300 302 303 302 302 300 304 308 305 305 305 304 302 299 299 306 312 314 316 314 315 315 312 315 314 313 317 317 316 319 319 321 321 322 323 321 321 321 320 322 321 321 322 320 321
302 302 301 297 299 301 302 301 299 305 307 305 305 305 305 301 303 303 312 312 315 316 317 316 315 314 315 315 316 317 316 318 320 321 322 322 321 320 321 322 322 323 322 321 322 322 320
301 300 301 302 301 299 301 301 301 299 306 306 304 305 306 303 305 309 311 309 315 312 320 315 315 315 315 315 317 316 317 318 319 319 320 321 321 320 322 322 322 322 322 321 322 322 321
302 302 301 300 301 302 300 301 301 301 302 306 305 304 305 304 312 312 314 313 316 316 316 315 317 316 317 316 316 317 316 318 319 319 320 321 322 322 322 321 321 321 321 322 322 322 322
303 303 302 302 301 301 301 301 301 301 300 303 305 304 304 305 310 312 314 316 316 320 317 314 319 319 319 317 316 316 316 317 318 320 320 321 320 321 321 321 321 321 322 322 323 323 324
302 302 303 303 303 302 302 301 302 301 301 300 304 303 304 306 308 312 313 317 319 317 314 315 320 319 318 318 317 317 318 319 320 320 320 320 320 320 320 322 322 322 322 324 325 325 325
303 303 303 303 303 303 302 302 301 302 301 298 301 304 303 305 307 309 314 318 316 311 314 316 319 319 318 317 317 318 318 319 319 319 319 320 320 320 320 320 322 322 322 324 325 325 324
303 303 303 303 303 303 303 302 302 302 302 301 298 302 303 304 305 309 314 317 312 313 315 315 317 321 319 316 317 318 318 318 319 319 319 319 319 319 321 321 321 323 323 322 324 324 325
304 303 303 304 304 303 303 303 302 302 302 301 298 301 303 303 304 306 311 314 311 314 316 317 315 320 321 316 316 317 319 318 319 319 318 319 319 321 321 321 321 322 322 323 324 325 324
306 305 305 303 304 303 303 303 303 302 302 301 299 303 303 303 304 305 311 314 312 313 316 319 319 315 319 317 316 317 318 317 319 318 319 319 320 322 322 323 323 323 323 322 323 323 323
302 301 300 302 303 303 300 303 303 303 302 300 301 304 304 303 305 306 308 312 310 312 317 318 320 321 322 318 317 316 317 317 317 318 319 319 320 320 321 321 321 321 321 323 323 321 322
299 298 298 298 302 303 301 302 303 303 302 300 300 302 303 303 305 308 308 310 310 312 316 318 319 320 321 321 318 317 318 318 316 318 319 319 319 320 320 319 320 320 321 321 322 321 322
299 300 300 299 304 302 302 300 303 303 301 300 301 304 304 304 304 308 310 309 310 310 312 316 318 319 321 321 319 317 317 316 315 317 317 318 319 319 320 319 319 320 320 320 321 323 322
299 300 301 302 299 300 302 301 300 303 301 300 301 305 305 306 307 309 311 310 310 310 311 314 317 319 320 321 319 319 316 319 316 315 316 319 319 319 318 318 318 318 318 320 320 321 322
301 300 300 302 301 299 299 301 300 304 301 300 300 305 305 306 305 307 310 310 310 310 311 314 315 317 319 320 318 320 318 318 320 319 319 319 319 320 320 319 318 318 318 318 319 319 321
301 302 300 300 301 300 299 300 300 304 302 300 300 304 304 306 307 307 310 309 309 310 311 310 314 315 317 317 317 316 316 316 317 319 321 320 320 320 319 319 319 320 320 319 320 321 321
299 299 300 302 300 301 300 299 300 303 301 300 301 303 305 307 308 307 306 308 309 310 311 311 311 315 315 314 315 315 313 316 317 319 319 321 321 321 321 318 327 319 319 320 320 321 321
299 300 301 301 300 300 300 299 301 302 301 300 301 303 304 309 308 307 307 307 307 308 311 311 312 312 312 312 313 312 315 314 318 319 321 320 322 322 327 322 320 318 317 319 320 321 320
300 299 303 301 301 300 300 300 300 302 300 301 301 302 305 308 307 306 308 307 309 311 312 311 311 313 313 315 316 317 313 311 317 320 315 318 319 325 319 323 330 320 319 318 318 322 319
300 300 301 301 300 301 300 300 300 301 300 300 301 302 303 305 305 305 308 307 306 309 312 311 313 314 313 316 320 318 316 315 317 321 320 318 319 324 324 326 323 320 317 315 321 323 318
300 300 300 300 300 301 299 300 301 300 299 300 301 302 303 305 305 306 307 307 307 308 313 310 314 314 315 316 318 319 321 318 319 318 321 320 322 324 323 327 326 316 314 320 321 319 318
300 300 300 300 299 300 300 301 300 299 300 300 301 301 303 304 302 303 306 307 307 308 309 310 310 312 313 315 317 316 321 319 317 321 318 321 322 324 322 323 322 315 319 317 319 319 316

GFSGBSN_850_thetae_051.txt.gz
Theta_e
305 309 309 308 306 304 303 301 299 299 299 299 299 299 300 304 309 313 314 313 313 317 317 320 312 307 309 317 316 314 317 317 313 313 314 317 318 319 320 319 319 320 320 320 321 322 326
304 303 305 308 309 308 306 305 304 300 299 299 299 299 299 299 302 311 312 315 313 312 315 318 317 308 314 317 315 312 310 315 315 316 315 317 319 319 320 320 320 321 320 321 322 324 323
303 304 303 303 307 308 309 307 306 304 300 299 299 299 299 299 299 301 307 309 309 311 311 314 319 312 313 315 315 315 317 316 316 315 316 317 318 319 320 320 319 320 321 323 323 324 324
303 302 302 303 303 305 307 308 307 306 305 302 300 300 299 299 299 300 303 307 308 309 308 312 317 310 315 315 313 316 318 317 316 315 316 317 318 319 320 320 320 319 321 321 323 325 325
305 304 304 303 303 303 303 306 308 307 306 305 303 301 301 299 299 299 300 304 306 306 306 311 315 315 317 316 312 313 318 317 316 316 316 317 317 319 320 320 320 320 319 322 324 324 326
300 301 304 304 304 303 303 302 305 307 307 306 305 304 302 300 299 299 300 303 306 307 311 312 315 317 316 315 313 312 318 318 318 318 318 317 318 321 321 321 320 320 320 321 320 325 324
302 302 300 301 305 304 303 303 301 303 307 307 306 305 304 303 300 299 300 314 317 319 316 314 317 314 314 315 316 314 316 319 318 319 320 319 322 322 323 322 321 320 320 320 322 324 324
302 302 302 301 298 299 303 303 303 301 303 307 306 305 305 306 303 300 305 313 314 317 315 315 316 316 317 316 317 315 318 319 319 321 321 323 323 323 323 322 321 320 321 321 323 322 323
303 303 302 302 302 302 298 300 303 302 301 304 307 306 305 306 305 301 310 313 315 316 315 312 313 315 315 316 317 316 318 319 321 322 322 323 323 322 321 322 320 320 322 322 323 324 322
302 302 302 302 302 302 302 302 299 298 301 301 305 306 305 305 303 307 312 312 313 317 316 313 318 317 317 316 318 316 317 319 321 322 322 322 322 322 322 322 321 321 321 322 321 322 321
302 302 302 302 302 302 301 301 302 300 301 301 300 305 305 304 310 313 315 314 317 319 310 316 317 317 317 317 318 318 317 317 321 321 321 321 321 322 322 322 322 322 322 322 321 323 323
303 303 302 303 303 303 302 302 301 302 300 301 300 303 305 304 306 313 316 317 319 318 313 315 319 318 320 317 317 318 317 317 318 320 320 321 321 322 322 322 322 322 322 322 323 323 325
303 303 303 303 303 303 303 303 302 301 302 302 301 301 305 306 306 312 314 316 316 313 312 314 319 320 320 320 318 319 319 319 319 320 321 320 322 322 322 322 323 322 322 325 325 325 326
304 304 304 303 303 303 303 303 303 303 301 301 301 300 302 305 306 309 312 315 313 311 312 317 318 320 321 319 319 319 320 319 319 320 322 322 322 322 322 321 324 323 323 326 329 328 326
304 304 304 304 304 303 303 303 303 303 302 302 302 301 300 304 305 309 308 315 314 312 312 313 317 321 320 319 320 319 319 319 319 320 321 322 322 321 321 321 322 324 324 323 324 327 327
304 304 304 304 304 304 303 303 303 303 303 302 302 303 303 304 306 307 308 313 312 311 311 314 315 320 321 319 318 320 320 319 319 319 320 320 321 320 320 321 322 322 324 324 325 327 328
304 304 304 305 304 304 304 304 304 303 303 302 302 303 303 304 305 307 309 311 314 310 311 313 315 317 320 322 319 319 320 319 319 319 320 321 321 321 323 323 323 323 325 324 324 325 328
302 305 303 304 304 305 305 304 304 304 303 302 302 305 303 304 306 306 308 311 310 313 312 314 316 320 316 320 320 318 319 319 318 320 320 320 321 323 323 322 322 323 323 324 326 326 325
300 300 300 300 302 303 303 304 304 304 303 302 303 303 303 304 306 307 307 308 308 311 312 313 316 319 320 320 322 320 318 318 317 319 321 321 320 322 322 322 322 323 324 324 325 324 325
299 299 299 299 299 300 300 301 303 304 303 302 302 304 304 305 305 308 309 309 308 309 312 312 314 316 318 322 321 321 319 319 317 318 319 320 321 321 323 322 321 322 321 321 322 327 324
298 298 298 299 299 299 299 299 302 303 303 303 301 305 304 306 307 309 309 308 307 309 311 312 313 314 317 318 319 320 320 320 318 316 318 321 321 320 319 320 320 320 321 321 321 322 323
297 298 299 300 300 300 300 300 300 303 302 303 300 305 305 307 307 308 308 308 308 308 311 312 314 315 317 318 318 320 320 319 319 319 319 320 321 321 320 319 319 319 319 319 319 320 321
299 299 300 301 301 300 301 301 301 304 302 302 300 303 305 306 308 308 310 308 308 309 309 309 313 315 316 317 319 319 318 317 319 320 320 321 322 321 322 320 320 323 319 319 319 319 320
301 300 300 300 300 300 301 301 301 301 301 302 300 303 306 309 309 309 308 308 308 308 310 310 309 313 313 315 316 316 314 314 317 318 319 322 322 322 325 322 326 320 320 320 320 320 320
301 300 300 300 300 302 302 301 301 304 301 302 302 303 306 310 308 308 308 308 307 308 311 310 309 310 312 315 315 316 316 314 316 318 317 320 323 325 327 325 320 319 320 320 320 320 320
300 301 301 300 300 303 302 301 301 299 301 302 303 302 305 308 308 307 307 307 309 311 311 309 310 312 314 316 315 315 313 311 311 314 317 318 322 326 325 324 325 322 320 320 320 323 320
300 300 300 300 300 300 300 300 300 300 301 302 303 302 304 306 306 306 308 309 307 309 311 311 313 313 313 316 317 315 315 313 313 318 322 322 323 327 327 326 322 320 320 320 323 324 320
300 300 300 300 302 301 301 300 300 301 301 302 302 302 304 306 306 305 307 308 307 308 311 310 312 314 315 317 316 314 318 315 315 315 321 322 322 326 326 328 328 320 320 322 322 321 321
301 301 303 301 301 300 300 300 300 301 302 301 302 302 303 305 305 306 307 308 308 308 308 310 313 313 313 314 316 316 322 322 316 320 315 322 322 324 323 324 322 319 320 320 320 321 322

GFSGBSN_850_thetae_054.txt.gz
Theta_e
301 301 305 307 309 309 308 307 304 302 300 299 299 299 299 299 299 299 301 304 309 309 309 310 314 317 318 318 319 319 316 317 315 312 316 315 317 318 319 320 319 319 320 320 321 321 323
301 300 303 303 304 307 309 309 308 307 305 301 300 299 299 299 299 299 299 301 306 307 308 309 309 314 318 317 318 316 316 314 316 313 316 316 318 320 320 321 320 320 320 320 320 322 323
304 304 303 302 303 303 304 307 308 308 307 306 303 300 300 299 299 299 299 300 302 304 307 308 308 313 317 317 316 316 318 318 316 316 316 316 318 319 320 322 320 319 319 320 322 322 323
304 305 305 304 304 303 304 303 305 307 308 307 306 305 301 300 299 299 299 299 301 304 306 306 307 313 316 312 317 317 317 318 317 317 316 318 318 318 320 320 320 320 319 319 323 323 324
302 301 303 305 305 305 304 303 302 304 307 307 307 306 305 302 299 299 299 299 300 303 305 306 308 316 315 315 317 315 317 317 317 316 316 317 318 318 319 320 320 320 320 320 323 323 325
301 304 303 303 303 305 305 304 303 303 302 306 307 307 305 304 301 300 299 299 302 305 311 313 315 315 315 314 317 316 315 318 317 316 317 317 318 319 320 320 321 321 321 321 320 324 324
302 302 303 303 303 302 303 305 305 303 303 301 306 307 306 305 304 302 299 300 315 320 319 317 315 312 311 318 315 314 314 318 319 318 319 318 319 319 321 322 323 322 321 320 323 324 324
302 302 303 303 303 303 302 300 300 304 303 302 301 305 306 305 305 303 301 311 312 317 317 314 318 318 316 317 317 317 314 319 319 320 320 320 321 321 322 323 323 321 321 321 322 324 322
302 303 303 303 303 303 303 303 302 298 301 302 302 303 305 305 305 303 302 306 313 315 316 312 311 311 314 315 317 318 315 318 320 320 321 321 322 323 322 323 321 320 320 320 323 323 323
302 303 303 303 303 303 303 303 303 302 302 297 297 301 303 306 303 307 306 311 311 313 317 311 311 313 311 315 316 317 317 317 320 319 320 322 322 323 323 322 321 321 320 321 323 323 322
302 303 303 303 303 303 303 303 302 302 302 302 299 301 301 305 308 312 315 312 315 318 310 313 314 317 315 315 317 316 317 318 320 321 321 322 322 322 322 322 322 322 323 323 321 321 322
302 303 303 303 304 303 303 303 303 303 302 301 300 301 301 303 305 309 314 314 317 317 312 313 318 318 318 317 317 318 317 317 319 321 322 321 321 322 322 322 322 322 322 323 322 322 325
303 303 303 304 304 304 303 303 303 303 303 301 302 301 301 304 306 307 309 314 317 313 311 312 319 320 318 319 319 318 320 319 319 320 322 321 320 321 322 322 323 322 322 325 326 326 328
302 303 303 304 304 304 304 303 303 303 303 303 301 302 301 303 305 307 309 314 311 310 312 316 316 320 320 320 320 319 320 320 320 319 320 322 322 320 322 322 323 323 323 327 328 331 328
303 303 303 304 304 304 304 304 304 303 303 303 301 302 302 303 305 306 308 312 310 309 312 313 315 318 321 321 320 319 320 321 320 319 321 321 321 320 322 322 322 324 323 323 326 327 331
303 303 304 304 304 304 304 305 304 304 303 303 303 302 303 303 304 306 308 310 310 309 310 312 313 317 320 322 320 319 319 320 321 320 320 321 324 322 322 322 322 321 324 325 325 329 330
303 303 303 303 303 304 304 304 304 304 304 303 303 303 304 304 305 306 308 310 310 308 309 311 313 313 314 319 320 320 320 320 320 320 320 321 322 323 322 321 321 321 323 326 326 325 329
302 303 303 303 303 304 304 304 305 305 304 304 304 304 303 304 305 307 308 310 309 309 308 311 313 313 315 318 321 321 320 321 320 320 320 321 322 323 322 321 321 321 323 324 328 326 328
302 303 303 303 304 302 306 304 305 305 304 304 303 303 304 304 306 307 308 307 308 310 309 311 312 313 315 318 321 322 324 320 320 320 321 320 321 323 321 322 323 322 323 323 325 326 328
302 302 304 302 300 300 301 303 306 305 304 304 303 304 304 305 304 307 308 309 308 307 309 309 312 314 315 318 319 321 322 321 319 319 319 320 322 322 324 324 323 323 322 324 325 328 327
301 301 301 300 299 299 299 299 301 305 303 305 302 303 305 305 305 308 309 308 308 309 307 308 310 313 314 317 319 319 322 322 319 318 319 322 322 323 321 321 322 323 322 322 323 323 328
300 300 299 299 299 298 298 299 300 302 304 305 300 304 305 306 305 307 308 310 308 309 308 308 310 312 314 315 318 318 321 321 321 319 320 321 323 322 323 320 320 321 321 321 321 321 321
297 296 297 297 297 298 298 299 300 300 302 304 301 302 305 306 308 308 308 310 309 309 309 308 309 312 314 315 316 319 315 318 321 321 321 322 323 323 323 321 320 320 321 321 320 321 320
298 298 299 299 300 300 299 299 300 300 300 302 300 302 304 307 308 308 308 308 309 309 310 309 309 311 312 313 316 317 315 313 314 320 320 321 322 322 324 322 323 320 321 320 320 320 320
300 301 301 301 301 301 300 300 300 301 300 300 300 303 304 308 308 308 308 309 308 308 310 310 309 308 310 315 317 317 314 312 315 319 319 319 321 325 325 324 321 320 320 320 321 320 320
300 300 300 300 301 302 301 301 301 301 300 300 301 303 305 307 309 307 308 308 310 310 310 310 308 309 310 312 316 316 317 314 314 316 318 318 318 322 327 324 324 322 321 320 321 321 321
300 300 300 300 300 300 301 300 300 300 301 301 302 303 304 306 307 307 308 309 308 309 311 311 309 312 311 314 315 317 316 313 314 316 316 318 317 322 325 326 324 320 320 319 322 322 322
300 300 300 300 299 302 301 300 300 300 301 301 302 302 304 304 307 307 306 308 308 309 311 311 311 314 313 316 316 316 317 315 313 313 319 318 319 322 324 326 326 321 320 321 321 320 321
300 301 301 302 299 301 300 300 301 301 302 300 303 303 304 305 306 306 306 306 308 309 310 310 312 312 313 314 316 316 321 319 316 317 316 319 317 321 322 323 323 321 320 320 320 321 322

GFSGBSN_850_thetae_057.txt.gz
Theta_e
303 303 303 302 302 303 302 302 305 308 308 303 301 300 299 299 299 299 299 299 300 301 304 306 307 308 308 314 316 317 319 317 317 315 312 313 316 315 315 315 317 317 317 319 320 320 322
305 304 304 303 302 301 301 301 303 305 308 308 306 302 300 300 300 300 299 299 299 300 301 303 306 308 310 317 312 318 317 316 314 316 312 315 316 317 318 319 317 319 319 318 319 319 321
303 305 306 305 303 302 302 302 301 301 305 307 308 307 304 300 300 300 300 299 300 300 302 304 306 309 311 306 311 317 317 318 317 316 313 316 316 316 318 318 320 320 317 317 317 321 321
301 301 301 302 305 305 305 304 303 302 302 305 305 307 307 305 301 300 300 300 300 300 301 303 305 308 313 306 307 313 316 317 318 316 316 316 316 317 318 318 319 317 317 317 316 320 323
302 302 303 304 303 302 304 305 305 304 303 302 304 306 307 306 304 301 300 300 300 299 301 306 308 312 315 314 313 310 316 317 318 317 317 316 317 318 318 316 316 316 316 316 317 320 323
302 302 303 303 303 304 304 303 305 305 304 303 302 303 306 306 306 304 301 300 300 300 309 316 314 314 312 311 314 317 315 316 318 317 317 316 317 315 314 314 317 319 319 316 316 320 324
302 302 302 303 302 303 302 302 301 301 305 305 303 302 304 305 306 305 303 300 309 317 319 318 315 306 309 312 317 316 317 315 317 317 315 317 315 315 314 315 317 318 320 318 318 323 322
301 301 301 302 303 303 304 304 303 303 300 301 304 303 301 304 305 305 304 302 307 313 314 315 316 318 317 314 317 317 315 315 318 318 315 316 317 317 317 317 319 322 320 318 318 322 321
300 301 302 302 302 303 303 303 304 304 303 301 300 302 301 301 304 305 303 301 300 309 313 311 310 312 311 310 317 316 316 315 318 319 318 317 318 318 318 319 321 321 319 318 319 322 321
300 301 302 302 303 303 304 304 304 304 304 303 302 300 297 301 303 309 307 311 312 313 314 312 310 311 311 311 316 313 317 314 319 319 319 318 319 319 320 321 321 320 320 319 319 321 321
301 301 302 302 302 303 304 304 303 303 303 302 303 302 299 301 305 308 312 314 316 315 304 310 311 312 312 311 315 315 316 317 317 319 318 319 319 319 320 322 321 320 322 322 322 320 318
300 301 301 302 302 303 304 304 303 303 302 302 302 302 301 301 302 304 308 312 317 317 316 311 317 316 313 311 313 317 315 316 317 317 318 318 319 319 320 321 321 321 321 322 321 319 320
300 301 301 302 302 303 303 304 304 304 303 303 303 301 301 302 302 304 309 309 315 315 307 308 318 317 317 315 312 314 315 315 316 318 319 319 319 319 320 320 320 320 320 321 322 322 320
300 300 301 302 302 303 304 304 304 304 304 303 303 301 301 300 301 305 308 311 314 308 308 312 311 314 319 317 316 315 314 316 315 316 318 319 321 320 319 320 321 320 320 322 324 326 323
300 301 302 302 302 303 303 304 304 304 304 304 303 303 302 302 301 304 307 311 309 309 309 308 308 309 315 318 319 317 317 316 317 316 317 319 320 319 319 320 320 323 321 320 322 327 325
300 301 302 302 302 303 303 304 304 304 305 304 303 304 302 302 302 303 307 309 310 310 309 308 308 312 312 317 319 318 318 318 318 317 317 318 320 319 320 319 319 320 321 323 321 326 327
299 300 301 302 302 303 303 304 304 304 305 305 304 304 303 303 303 304 307 307 307 308 309 309 308 308 309 311 313 315 318 318 317 318 317 317 317 320 321 320 320 320 320 321 323 323 325
298 299 300 301 302 302 303 303 304 304 305 305 305 305 304 303 304 305 305 306 306 307 308 309 309 309 310 311 312 314 318 320 318 317 318 317 318 318 319 320 320 320 319 320 324 326 323
298 299 300 301 301 301 302 303 304 304 305 305 304 303 304 303 305 304 305 306 306 306 308 308 309 309 309 311 312 320 320 319 320 319 318 317 318 320 321 319 320 320 319 320 321 324 324
299 299 300 301 301 302 303 303 303 303 305 305 303 303 303 304 304 303 305 306 307 306 306 307 309 309 308 310 312 319 319 319 319 319 320 318 317 318 320 320 320 321 320 320 321 320 322
299 299 300 300 301 302 303 304 303 303 305 305 302 302 304 305 304 304 304 306 307 308 307 306 307 308 309 309 312 315 319 319 319 319 319 319 318 318 319 320 321 322 322 320 321 322 324
299 300 300 300 301 302 302 302 301 300 302 306 300 302 304 304 305 304 305 306 306 307 307 307 307 307 308 309 309 313 319 320 319 319 319 319 319 317 318 319 320 322 322 321 320 323 323
299 300 300 300 301 300 300 300 300 299 300 306 303 303 304 305 305 305 305 305 307 306 307 307 308 307 307 308 310 318 317 317 317 318 318 319 319 320 319 319 319 319 319 320 320 319 320
299 298 298 297 297 298 298 299 299 299 299 300 303 303 304 307 305 305 305 305 306 307 308 307 308 307 307 309 316 315 313 314 315 315 317 317 320 318 316 317 322 319 317 318 318 319 318
297 297 298 298 298 298 298 298 298 298 299 300 300 302 304 305 305 305 305 305 305 306 307 308 308 307 308 307 310 314 312 314 315 315 316 316 319 318 320 321 319 320 318 318 318 318 317
299 299 300 300 300 301 301 299 299 299 298 299 301 300 302 304 306 306 306 306 306 307 306 306 307 308 309 307 309 311 313 315 315 314 315 311 317 317 316 321 321 319 318 319 319 318 319
300 300 300 300 300 300 300 301 300 300 299 299 301 301 301 300 305 306 306 306 307 307 307 307 308 308 309 307 309 311 315 314 314 313 313 312 312 316 317 320 318 319 318 319 319 317 319
300 300 300 300 300 300 300 300 301 302 301 300 301 300 301 302 304 306 307 306 307 307 308 307 308 309 310 307 308 307 307 312 313 314 315 315 315 315 317 319 320 319 320 318 316 318 318
300 300 300 300 300 301 300 300 300 302 301 300 301 301 300 302 304 306 307 306 306 308 308 308 309 309 310 309 308 309 307 308 310 312 314 317 315 317 317 316 318 316 319 319 319 317 321

GFSGBSN_850_thetae_060.txt.gz
Theta_e
306 305 303 302 302 301 301 302 303 304 306 304 302 302 302 300 300 300 300 300 300 300 300 300 301 303 305 311 309 313 312 318 317 317 316 312 315 315 312 313 314 314 315 318 317 318 323
304 306 306 306 306 304 303 302 302 302 302 303 305 302 302 301 302 300 300 300 300 300 299 300 302 304 308 314 309 313 318 317 316 315 316 313 312 315 315 316 316 317 318 318 318 318 323
301 301 303 302 304 306 306 305 305 304 303 302 302 305 303 301 303 301 300 300 300 300 299 300 303 306 312 304 307 316 317 317 317 318 316 315 312 316 315 316 318 318 316 315 316 317 320
303 300 301 303 302 301 300 303 304 305 304 303 302 302 305 304 304 301 300 301 300 300 299 299 303 308 310 305 305 306 307 316 316 317 318 315 315 316 315 317 317 316 315 315 315 316 321
304 303 302 300 303 302 301 301 299 302 305 305 303 302 302 303 305 303 302 300 301 300 299 301 308 310 310 309 311 312 308 312 315 317 317 316 316 316 317 315 313 315 315 316 316 316 319
303 303 302 302 303 303 302 303 303 302 301 304 305 304 303 302 304 303 301 300 301 300 299 305 315 312 308 307 313 316 316 312 316 317 317 317 316 314 312 312 315 315 316 316 316 314 322
302 302 302 302 301 301 302 303 304 304 303 302 300 304 304 302 302 304 302 301 304 315 316 316 316 310 309 310 312 315 315 314 315 317 315 315 313 314 313 313 315 316 316 316 316 319 323
301 302 302 300 301 302 302 303 303 304 304 304 303 299 304 303 300 303 303 303 305 308 306 306 312 315 314 315 316 314 316 316 315 315 314 314 315 315 314 315 315 316 316 317 316 320 320
300 301 300 300 301 302 302 302 303 303 304 304 304 303 300 299 298 301 305 304 309 311 309 310 308 311 309 309 315 312 314 316 315 316 315 315 316 316 316 316 317 316 317 318 317 317 319
299 300 301 300 301 301 301 302 303 304 304 303 304 304 303 301 296 302 308 310 309 312 309 309 310 308 309 311 314 308 310 315 314 317 317 315 316 316 317 317 317 317 318 319 319 318 319
299 300 299 300 301 301 301 301 302 304 304 303 303 302 303 302 299 305 310 310 312 311 297 304 310 309 311 311 311 312 308 315 313 317 317 319 318 317 318 318 318 319 320 320 321 318 317
298 299 299 299 300 300 301 302 303 304 304 303 302 302 302 302 300 299 302 308 313 314 309 310 312 311 311 310 312 315 313 315 316 316 317 317 318 317 318 318 318 320 320 320 318 317 320
298 298 299 299 299 300 301 302 303 304 304 303 303 302 302 302 301 301 304 310 313 313 307 306 316 314 312 311 310 312 313 314 316 316 315 317 318 317 317 317 318 319 317 319 320 320 321
297 297 298 298 299 300 300 302 303 304 304 304 303 303 302 302 302 301 305 311 311 308 305 308 309 308 317 312 311 312 313 312 315 315 315 316 318 317 318 318 319 318 318 319 323 322 321
296 297 297 298 299 301 302 302 302 304 304 304 304 304 303 302 302 301 304 310 309 308 308 307 307 307 308 314 315 312 312 313 314 315 316 318 318 318 318 318 318 320 319 318 320 323 323
294 295 297 299 299 301 302 302 303 303 304 305 304 304 304 303 302 301 305 308 308 308 307 309 307 307 309 309 313 313 316 316 314 314 314 316 318 317 318 318 317 319 320 321 320 322 324
295 296 297 298 299 300 301 302 303 303 304 304 305 304 303 303 302 303 304 306 307 307 307 309 308 308 308 309 312 314 316 315 316 316 315 314 316 317 318 318 318 319 319 321 320 320 322
295 296 297 298 298 298 300 302 303 303 304 304 305 304 303 303 303 303 304 305 306 306 306 308 308 309 308 309 311 312 313 314 317 319 318 316 315 317 316 317 318 318 319 319 321 323 321
296 297 297 298 298 298 299 301 302 303 303 303 305 303 304 303 303 304 303 304 305 305 306 307 308 308 307 307 310 311 314 316 319 319 320 318 316 318 318 317 317 317 318 319 320 320 321
296 297 297 298 299 299 300 301 301 302 303 303 302 302 303 303 303 303 303 303 305 305 305 305 307 307 308 308 307 309 312 315 318 319 318 318 321 319 318 318 317 319 319 319 319 319 320
296 297 297 298 299 299 300 301 301 301 302 303 300 301 304 305 304 304 303 304 304 305 306 306 306 306 307 308 308 307 311 317 318 318 318 319 321 318 318 317 318 319 320 319 319 319 320
296 297 298 299 299 300 300 300 301 301 302 304 299 302 303 303 304 304 304 304 304 305 306 306 306 305 305 307 307 308 308 309 318 318 317 316 319 319 319 318 317 318 319 320 320 318 319
297 298 298 299 299 300 300 300 301 301 302 304 303 303 304 304 305 305 304 303 304 304 305 306 306 306 306 305 306 306 312 316 317 317 316 314 317 317 319 316 318 318 318 319 319 319 319
298 298 299 299 299 300 300 300 301 302 302 302 303 302 304 305 304 305 305 304 304 304 305 305 305 306 307 307 309 314 313 314 314 315 315 313 313 316 317 314 321 318 317 317 318 318 318
299 299 298 298 298 298 299 300 301 301 301 300 301 301 303 305 304 304 304 304 304 303 304 306 306 306 306 306 308 308 308 310 312 315 317 316 315 314 318 319 318 319 318 317 318 318 317
297 297 297 297 298 298 298 297 297 299 300 300 300 300 300 303 306 304 304 304 304 304 304 304 305 306 306 305 305 306 306 310 313 315 315 312 312 314 314 317 320 317 317 317 317 317 316
297 298 298 298 299 299 299 299 298 298 298 299 300 300 300 299 303 304 304 304 304 304 303 304 305 305 305 304 304 307 307 309 311 312 312 310 308 313 315 317 316 316 318 318 320 318 317
300 300 300 300 300 300 300 300 300 300 299 298 299 300 300 300 301 304 305 305 304 304 304 305 306 306 307 307 306 305 304 310 312 312 312 311 311 312 314 318 317 317 319 319 316 318 319
301 300 300 300 300 300 300 300 300 301 301 299 299 299 300 300 301 302 304 306 306 305 305 306 307 307 307 308 305 305 303 302 309 311 311 313 313 313 314 314 314 317 317 317 317 316 317

GFSGBSN_850_thetae_066.txt.gz
Theta_e
302 303 303 304 304 304 305 306 306 306 304 303 302 302 302 301 301 302 302 302 302 300 300 300 300 300 300 305 303 310 316 315 314 314 316 315 311 314 311 310 311 311 312 315 317 317 315
304 303 304 303 304 303 304 303 302 303 304 304 304 303 302 302 301 301 301 301 303 302 300 300 300 299 300 309 305 305 307 307 308 307 315 315 312 313 314 312 311 314 314 315 315 316 320
304 304 304 304 304 304 304 304 303 303 302 301 301 303 304 302 300 301 301 301 301 302 301 300 300 299 301 301 304 304 305 312 315 313 316 315 314 314 314 313 314 316 314 312 312 314 318
302 302 303 304 303 303 303 303 303 303 303 303 302 301 301 303 303 301 299 300 301 301 302 300 300 300 305 303 303 304 305 305 316 317 316 316 317 314 313 314 313 314 313 313 312 313 316
301 302 302 302 303 303 303 303 302 302 302 302 303 303 302 301 300 299 300 299 300 302 302 301 300 301 304 303 304 312 312 309 305 317 316 314 316 314 313 313 312 311 312 312 312 313 316
301 301 301 302 302 302 301 302 301 300 301 304 304 304 304 304 303 302 299 298 301 305 304 300 306 305 302 303 307 314 315 315 313 310 309 313 316 311 309 311 313 313 313 312 313 314 314
300 300 300 300 300 301 301 301 301 302 302 303 302 303 303 304 304 304 301 298 302 306 305 307 308 306 305 309 311 313 313 313 313 314 310 314 313 314 311 312 311 312 313 314 312 312 315
299 299 299 299 300 300 301 300 300 301 302 302 302 303 304 304 303 304 303 305 305 305 305 305 305 307 306 311 312 308 309 313 311 312 313 311 315 314 312 312 313 314 314 313 312 313 313
299 299 299 299 299 299 299 300 301 300 300 301 301 303 303 303 304 303 301 305 306 304 307 307 307 306 306 307 309 307 310 314 312 312 313 315 315 313 313 312 313 313 313 313 312 312 313
298 298 298 298 299 298 299 299 299 299 299 301 301 302 303 303 302 301 304 306 306 306 307 306 308 307 305 306 311 307 309 308 312 312 312 313 314 314 313 313 313 314 312 313 314 314 316
298 297 297 298 298 297 299 299 299 299 300 301 302 302 303 303 302 302 302 304 305 308 299 303 308 306 309 307 308 310 308 310 312 312 313 313 314 315 314 313 313 314 313 313 314 315 315
297 297 297 297 297 298 298 298 298 299 300 300 301 302 303 303 303 302 303 300 306 308 306 304 308 310 311 310 309 311 311 310 311 313 314 313 315 313 315 315 313 315 316 316 316 315 317
296 296 296 296 297 297 297 297 298 299 299 300 301 303 303 303 303 302 301 302 310 309 305 305 307 310 311 311 309 310 310 310 312 312 313 313 314 315 315 316 314 315 316 318 319 319 320
297 297 296 296 296 296 297 296 298 298 298 299 301 303 304 303 303 302 302 306 310 308 307 307 306 307 310 310 310 309 308 309 309 313 312 313 314 315 315 316 316 315 316 317 322 321 319
296 295 295 295 296 296 295 296 297 297 299 300 301 303 304 303 303 303 301 305 307 308 307 307 307 307 307 308 312 311 310 308 308 311 314 314 314 313 315 316 317 317 316 315 317 317 319
295 296 296 295 295 296 295 295 296 298 298 300 302 303 304 304 303 303 301 302 307 307 306 307 307 306 308 308 310 312 315 314 314 311 312 314 315 315 316 314 315 316 315 318 316 321 322
294 295 295 294 295 294 294 294 296 297 298 301 303 303 304 304 303 302 302 300 303 304 305 306 309 308 308 307 308 308 312 316 317 317 312 313 314 315 314 315 315 316 316 317 317 316 319
294 294 294 294 293 293 294 294 294 296 298 300 302 304 304 304 302 302 303 301 303 303 305 305 306 307 307 307 307 308 311 316 314 317 316 317 314 314 315 314 314 315 316 317 318 318 317
294 294 293 293 293 294 294 294 295 295 297 299 302 302 303 304 304 303 302 302 301 304 304 305 306 305 306 306 305 306 308 311 315 317 318 317 319 318 317 315 314 315 314 315 317 316 319
294 293 292 293 293 294 294 294 294 295 296 299 299 301 302 303 303 304 303 303 302 302 302 303 304 304 305 306 306 306 307 308 308 314 317 317 319 321 322 320 318 318 317 316 315 316 316
292 292 293 293 293 294 295 294 295 296 297 298 300 299 302 303 303 303 303 303 303 304 302 303 303 303 304 304 305 306 306 307 307 308 316 315 316 318 319 317 317 317 315 315 318 315 316
292 293 293 293 293 293 294 296 296 297 298 299 299 300 302 302 304 304 303 303 304 303 304 304 304 305 303 304 304 304 305 305 306 307 315 314 314 316 315 315 315 315 314 315 317 315 315
293 294 294 295 295 295 296 296 297 297 298 300 300 300 302 304 304 305 303 304 303 304 303 303 304 305 304 304 304 304 304 304 305 306 308 313 313 313 313 313 314 312 315 312 312 314 315
295 295 296 297 296 296 296 296 296 297 298 298 299 300 301 304 304 304 304 303 304 304 304 303 303 303 305 305 305 305 305 304 304 304 306 311 312 310 310 310 314 310 314 312 315 312 311
296 296 298 298 298 297 297 297 297 297 298 298 300 300 301 302 305 303 304 304 303 303 304 303 304 304 303 305 306 306 304 307 308 309 310 310 310 309 309 311 310 310 309 313 313 312 311
298 298 298 298 298 298 298 298 298 298 298 298 299 300 302 303 303 304 304 305 304 303 303 303 303 303 304 303 305 308 307 305 308 311 311 310 310 312 311 312 309 307 313 316 316 313 315
297 298 297 297 298 299 298 299 299 299 299 299 300 300 301 300 303 303 304 305 304 303 303 302 303 303 304 301 305 307 308 305 307 311 311 312 311 313 314 315 311 309 313 316 320 311 312
298 298 297 297 297 298 298 299 299 299 299 299 300 300 300 300 302 304 304 304 304 303 303 302 303 303 303 304 305 306 302 304 305 308 310 310 310 311 311 314 312 312 312 315 314 311 311
299 299 298 298 299 298 298 298 298 298 299 301 300 300 300 300 300 303 304 304 304 304 303 303 304 303 302 301 300 301 301 298 305 307 306 308 308 308 309 308 308 312 311 311 311 312 313

GFSGBSN_850_thetae_069.txt.gz
Theta_e
304 304 303 303 303 303 303 303 303 303 302 303 303 302 300 300 300 300 301 301 301 301 303 304 300 300 301 301 302 305 313 316 318 316 315 313 314 314 314 312 311 312 313 312 313 314 315
303 303 303 304 304 305 304 304 304 303 302 302 301 300 299 299 299 299 299 299 300 301 301 302 301 300 301 303 305 305 305 311 311 314 312 315 312 313 313 312 312 313 312 314 315 315 315
303 303 303 303 303 303 303 303 303 304 303 303 302 300 300 299 299 298 298 299 300 299 300 301 301 301 301 302 304 303 303 305 309 311 309 312 313 313 313 314 313 314 316 315 315 314 316
302 302 302 302 302 302 302 302 303 303 302 303 301 301 301 302 302 302 300 299 299 299 300 302 302 302 303 306 303 303 303 305 305 313 312 313 313 313 313 313 313 315 314 316 314 315 317
302 302 301 301 301 302 302 302 301 302 302 302 303 303 303 303 303 303 303 302 300 299 302 303 302 302 302 304 303 308 307 305 304 308 314 314 315 315 313 314 314 313 316 314 314 314 320
300 300 301 300 301 300 301 301 301 302 302 302 302 303 302 302 303 303 303 302 300 304 305 302 307 304 303 304 306 314 314 314 309 306 313 312 313 315 313 314 313 313 315 314 316 316 316
300 300 300 299 300 300 300 301 301 300 300 302 302 302 301 302 303 304 303 301 302 305 305 306 307 305 304 306 307 311 314 313 311 309 313 315 315 317 315 315 313 314 314 315 314 314 314
299 300 299 299 299 299 300 300 300 300 301 300 300 301 301 303 303 303 303 305 303 302 304 304 304 305 304 306 310 313 314 310 311 313 311 314 316 316 314 313 314 314 315 315 315 314 315
298 299 299 299 299 299 299 299 298 300 300 300 300 300 300 302 302 302 301 303 305 302 306 307 307 307 306 305 307 307 310 312 312 312 313 312 314 315 315 314 315 315 316 316 315 314 315
297 297 298 298 298 298 298 298 299 299 298 299 299 301 301 302 302 302 305 304 305 303 308 306 308 307 306 307 307 306 306 309 313 313 313 313 312 314 315 315 315 316 314 315 315 315 314
297 297 297 298 297 297 297 297 298 298 298 298 300 301 301 302 303 303 303 303 305 306 303 303 307 306 307 306 306 311 307 308 308 312 314 315 314 315 314 315 314 315 315 315 315 315 315
296 296 297 297 296 297 297 297 298 298 298 299 299 300 301 302 303 303 302 302 301 308 306 305 307 310 310 310 308 311 309 309 309 312 313 314 313 314 314 314 314 315 315 316 316 317 319
295 295 295 297 297 296 296 297 296 297 298 298 299 300 301 303 303 303 302 301 308 308 306 306 307 308 308 310 310 310 311 309 310 310 313 314 315 314 314 315 314 315 317 318 321 321 321
295 295 295 297 298 296 296 296 296 296 297 298 298 299 300 302 304 303 302 304 307 307 308 307 307 307 309 309 310 310 309 309 309 311 311 314 314 316 315 317 317 316 317 320 319 323 322
295 294 295 296 295 295 295 296 296 295 296 298 298 299 300 302 303 303 301 304 306 306 307 307 307 307 308 308 310 311 310 310 309 311 313 314 312 313 315 317 318 317 317 318 318 318 321
295 294 295 294 296 297 296 295 295 295 295 298 298 299 301 302 303 303 302 302 304 307 306 307 307 307 308 308 308 311 315 315 317 313 312 315 316 315 315 315 316 318 317 319 318 320 321
293 295 293 295 295 295 294 295 295 294 295 297 298 300 301 302 302 302 303 303 301 301 302 306 307 308 308 307 307 307 313 314 313 317 312 313 315 315 315 315 316 317 318 318 318 319 320
293 293 295 295 294 294 294 294 293 294 295 296 297 301 301 302 303 300 303 302 301 302 303 305 306 307 307 306 306 308 311 312 309 316 317 317 315 315 314 314 314 316 317 318 321 320 320
293 293 293 294 294 294 293 293 293 294 294 295 299 300 300 303 304 304 303 302 301 303 304 305 306 306 306 306 306 306 308 309 307 310 316 317 318 320 318 316 317 318 316 317 317 318 319
293 293 293 294 294 294 293 294 294 295 295 296 298 300 301 303 303 303 304 303 302 301 302 303 304 304 305 306 306 307 307 307 306 307 308 317 318 319 321 320 318 319 317 316 317 319 318
293 293 294 294 294 293 292 293 293 295 295 295 297 299 301 301 302 303 304 304 303 302 302 302 303 304 304 305 305 306 306 306 306 306 315 316 316 317 316 316 318 317 317 315 314 317 320
292 292 294 294 293 293 293 293 294 295 294 295 297 298 300 301 302 303 304 305 303 303 304 303 303 304 304 305 305 305 305 305 306 307 309 309 315 317 316 316 316 316 315 315 314 316 316
296 295 292 291 292 293 293 293 293 294 295 296 297 298 300 300 302 304 304 304 304 304 303 303 303 304 305 305 304 304 304 304 304 305 305 308 314 315 315 314 315 313 314 314 316 314 315
297 297 295 294 294 295 296 296 295 295 295 296 297 298 299 300 302 304 305 304 304 304 304 303 303 305 304 304 305 304 304 304 304 305 305 307 310 312 314 312 314 310 310 313 314 314 315
296 296 296 296 296 296 297 297 297 297 296 296 297 298 300 300 300 302 304 303 303 303 304 303 303 303 303 303 306 307 306 307 308 306 306 306 309 312 315 314 312 310 310 311 313 313 315
297 297 297 297 297 297 298 298 298 297 297 297 297 297 299 300 301 302 304 304 304 304 304 303 303 303 303 305 307 306 307 306 307 310 309 308 309 312 313 313 313 310 311 315 314 314 315
296 298 297 297 297 298 298 298 298 298 297 297 298 297 299 300 301 301 303 304 304 303 304 303 303 303 303 306 306 306 306 306 308 309 309 310 310 310 313 313 313 311 311 316 315 315 314
297 297 297 297 298 298 298 298 298 298 297 297 297 299 298 299 301 302 303 303 304 303 304 302 303 303 304 305 306 306 306 307 306 308 310 310 311 312 311 313 312 310 313 314 311 311 311
299 298 299 298 298 297 297 298 299 299 299 298 298 299 299 299 300 301 302 303 303 303 303 302 304 303 304 305 304 305 305 304 307 308 307 309 310 312 312 313 310 311 312 310 310 311 311

GFSGBSN_850_thetae_072.txt.gz
Theta_e
303 303 303 303 303 303 303 304 304 304 303 303 301 300 299 299 299 299 299 299 299 300 300 301 302 304 306 308 305 305 305 314 314 314 314 315 315 315 317 316 316 317 316 316 316 316 316
303 303 303 303 303 303 303 303 303 303 304 304 302 301 299 299 299 299 299 299 299 299 299 300 300 301 307 309 306 305 304 308 316 316 315 314 315 316 315 316 316 316 316 316 316 317 317
303 303 303 302 302 302 302 302 303 303 303 303 303 301 300 300 301 301 299 299 299 300 299 299 300 301 306 307 309 307 304 303 305 310 315 314 315 314 315 317 315 316 317 317 317 317 318
301 302 303 302 301 302 302 302 302 302 302 302 303 301 302 302 302 301 299 298 299 300 300 300 301 304 306 305 307 307 305 304 303 308 311 312 312 314 315 316 316 317 317 318 318 317 318
302 301 301 302 301 301 301 301 301 301 302 302 302 302 302 302 301 301 300 299 300 301 301 303 304 306 307 305 304 305 304 305 305 306 308 313 314 315 316 317 317 318 319 319 318 318 320
300 300 300 299 301 300 300 300 300 300 301 301 302 302 302 301 300 301 301 300 301 303 307 304 308 307 305 306 308 311 314 312 309 307 312 314 316 319 319 319 319 320 319 318 318 318 320
299 300 300 300 299 299 299 299 300 300 300 301 301 300 300 301 300 301 301 305 306 308 305 308 308 308 307 309 307 311 314 314 312 309 314 316 319 319 320 319 319 319 318 318 318 317 318
298 298 299 300 300 299 299 299 299 299 300 301 301 300 300 300 301 301 302 305 303 302 305 305 304 305 305 306 308 310 312 313 314 313 312 318 319 318 319 319 318 318 317 318 318 318 317
297 297 297 298 299 299 298 300 299 299 300 299 299 299 300 301 301 303 304 304 304 304 307 306 307 308 308 307 306 307 313 312 313 315 312 315 317 316 318 318 318 318 318 318 318 317 317
297 297 298 298 298 298 298 298 298 297 299 299 298 299 300 301 303 303 305 304 304 303 311 308 308 308 308 307 308 306 309 312 313 314 314 315 314 315 317 318 318 319 318 317 318 318 318
296 297 297 297 298 298 297 298 298 297 298 298 298 298 300 301 303 304 304 302 304 307 307 305 307 307 308 308 307 311 308 307 309 313 315 316 315 313 313 316 316 317 317 317 318 319 319
296 297 296 296 297 298 296 297 297 297 298 297 298 299 299 302 302 303 303 302 304 313 306 306 308 310 311 309 309 311 308 307 308 308 312 314 315 316 313 316 317 317 317 317 318 319 320
295 295 296 296 296 295 298 297 296 297 296 297 298 298 299 301 303 303 303 304 310 307 307 307 308 308 308 309 312 310 312 309 310 309 310 312 312 315 316 315 315 317 318 321 323 323 322
296 296 296 295 295 297 298 297 295 296 296 296 297 298 298 301 302 302 304 306 309 305 308 308 309 309 310 311 313 311 313 312 309 310 311 312 314 313 316 317 317 317 319 322 323 325 324
294 293 293 295 294 295 296 295 296 296 296 295 296 298 299 301 300 302 303 307 305 306 307 309 308 308 309 309 311 313 317 317 311 311 310 312 313 314 314 316 317 318 320 319 320 321 324
293 295 293 295 294 294 294 296 297 295 295 295 297 299 300 302 301 302 304 304 305 308 307 308 308 309 309 309 310 314 317 315 317 315 312 314 313 313 315 315 317 319 319 320 321 323 324
292 292 292 293 295 294 295 296 296 294 295 294 296 300 300 300 301 303 304 305 304 304 305 307 309 309 309 308 308 310 316 314 311 316 315 314 316 317 316 316 318 318 320 320 321 321 323
292 293 293 293 293 293 294 294 294 294 294 294 298 300 300 301 303 302 304 305 303 303 304 306 307 308 308 308 308 308 310 311 309 311 317 317 317 317 317 316 316 318 318 319 321 322 321
293 293 293 293 293 293 296 294 294 293 293 296 297 298 299 302 304 304 304 305 304 304 304 305 306 307 308 308 307 307 309 310 308 308 311 315 318 315 314 315 317 317 318 318 319 320 322
293 293 293 292 293 293 294 294 294 293 294 295 297 300 299 301 301 304 305 305 305 303 304 305 306 306 307 308 308 307 308 307 307 307 309 313 316 320 319 318 319 320 319 319 320 321 320
293 292 292 293 293 294 294 295 294 293 294 295 296 298 300 302 301 304 304 304 304 304 303 303 305 306 306 307 308 308 308 307 307 308 311 317 315 315 315 314 314 315 316 316 317 317 319
295 295 295 295 293 293 294 294 294 293 294 295 296 297 298 300 301 304 305 304 305 305 305 304 305 306 306 307 307 307 307 307 307 308 309 311 313 316 314 313 314 315 314 315 315 315 318
297 297 297 297 296 293 294 294 293 293 294 296 296 297 298 299 301 302 302 304 306 305 304 304 305 305 306 307 306 306 306 306 307 307 308 309 313 314 314 314 314 315 315 314 315 315 318
297 298 297 297 298 296 291 293 293 293 293 295 296 297 297 298 300 302 301 302 304 305 306 305 304 305 305 305 306 306 307 307 307 308 307 309 313 313 314 315 314 312 312 313 314 314 315
297 297 298 297 297 297 294 292 293 293 294 294 295 297 297 299 300 300 300 304 304 304 305 305 304 304 304 304 307 308 309 308 309 309 309 309 310 312 313 312 311 311 311 311 311 312 315
297 297 297 297 297 297 296 296 296 296 297 295 295 295 297 300 301 299 300 301 304 305 306 305 304 304 304 306 307 307 308 308 309 311 309 309 309 311 313 312 313 312 314 314 315 313 314
297 297 297 296 298 297 297 297 297 297 297 297 297 296 296 298 298 300 302 302 303 304 305 305 304 304 303 308 307 308 308 307 308 310 311 309 310 312 312 314 313 312 312 315 315 316 312
298 298 297 297 297 298 297 298 298 298 298 298 297 297 296 297 297 299 301 302 303 303 305 304 305 303 303 307 307 307 308 308 307 309 310 311 310 311 312 311 313 312 314 315 314 312 311
299 300 298 298 298 299 297 298 298 298 298 298 298 297 298 298 299 300 300 302 303 303 303 303 305 304 305 307 307 307 308 308 307 308 309 312 312 313 312 312 313 313 313 311 312 312 312

GFSGBSN_850_thetae_075.txt.gz
Theta_e
303 303 303 302 303 303 303 304 303 303 303 304 304 302 300 299 298 298 298 299 299 299 299 299 300 300 302 311 313 311 308 307 308 315 318 317 318 318 319 319 318 319 319 318 318 318 318
304 304 304 303 302 302 303 302 302 303 303 304 304 302 300 299 299 298 298 298 299 299 299 300 300 300 305 311 312 309 308 309 315 318 316 317 318 317 318 319 320 319 319 319 318 318 318
303 303 304 304 303 302 303 302 303 302 302 303 303 302 300 300 299 298 298 298 298 299 299 300 300 300 308 308 309 310 310 308 310 317 319 317 317 317 317 319 318 318 319 319 320 319 319
302 302 301 303 303 302 302 302 302 302 301 302 303 302 302 301 301 299 298 297 298 298 299 300 301 306 309 307 307 309 310 310 309 309 314 317 318 316 317 318 319 319 320 321 321 321 320
301 301 301 301 301 302 301 301 301 300 300 301 301 302 302 302 300 299 297 297 298 300 300 301 307 310 310 308 308 308 308 309 309 308 311 312 314 315 316 319 321 321 321 322 322 321 320
300 301 301 301 302 300 300 300 300 300 300 300 301 301 301 300 299 298 297 298 305 304 309 309 309 310 310 308 309 311 315 311 308 308 309 309 312 316 317 319 321 322 322 322 322 323 320
299 300 299 300 300 302 301 300 299 300 299 300 302 301 301 299 300 298 299 307 308 312 310 309 310 311 309 308 309 311 314 315 313 312 311 310 314 316 317 318 320 322 323 323 323 322 320
299 298 298 298 299 300 301 300 299 300 299 300 301 300 300 299 300 301 306 307 306 305 307 306 307 307 306 306 307 308 312 316 315 318 314 311 316 317 319 320 321 322 322 323 322 321 320
297 298 298 298 298 298 299 299 298 300 299 299 300 299 298 299 301 306 306 306 306 307 308 308 309 309 309 309 308 308 308 313 316 318 316 315 314 318 319 320 321 322 323 323 322 322 320
298 298 297 296 298 299 298 299 298 298 298 298 299 299 298 300 304 306 307 306 306 307 312 312 310 310 311 309 311 308 308 311 313 315 315 315 317 316 319 320 321 322 321 321 321 321 322
296 296 296 297 298 298 298 299 297 298 297 298 299 298 298 299 304 305 306 306 307 308 310 308 309 309 310 311 311 311 308 309 314 314 314 315 316 318 317 318 319 320 320 321 321 321 322
297 297 296 296 296 296 296 298 297 297 297 297 298 298 299 302 304 305 305 306 307 314 311 308 310 310 312 312 312 311 312 308 311 311 313 315 315 317 317 316 316 318 319 319 320 321 324
295 295 296 297 297 297 297 296 297 298 296 297 297 297 298 301 304 305 306 307 311 309 308 308 310 310 310 312 313 313 313 310 309 309 311 311 314 315 316 316 315 318 320 322 323 324 324
295 294 295 296 296 296 295 296 299 297 296 296 297 296 299 301 303 304 306 307 308 307 308 310 310 310 310 313 314 314 314 313 309 310 310 311 312 313 315 316 316 318 320 323 326 328 326
293 293 294 294 293 294 295 295 297 296 296 296 296 297 300 302 302 303 306 309 306 307 307 308 310 309 309 312 313 314 314 317 315 310 312 313 314 315 315 316 316 318 319 319 321 324 326
293 293 294 294 295 294 295 295 295 296 297 296 297 300 301 303 303 304 305 306 306 307 309 309 307 309 310 311 313 314 317 316 317 317 312 314 314 314 315 315 316 316 319 320 321 324 326
292 292 292 293 293 293 293 295 296 297 296 295 297 300 301 302 303 304 305 305 305 305 307 308 309 310 310 311 311 313 318 315 312 314 316 312 316 316 315 316 317 317 317 319 321 322 325
292 293 293 292 293 294 293 294 295 296 294 294 297 301 302 303 304 304 304 305 304 305 305 307 308 310 310 310 310 310 311 313 311 312 317 314 319 318 316 315 316 317 317 320 323 324 324
292 292 293 293 293 293 293 294 295 295 294 296 298 299 301 302 304 304 304 304 305 305 305 306 307 307 309 310 309 309 309 311 309 309 312 312 317 319 319 317 317 318 319 319 321 322 324
293 293 293 293 293 294 293 293 295 295 294 295 298 301 299 302 302 304 305 305 305 304 306 305 306 307 308 309 310 309 309 309 309 309 307 311 317 318 316 318 319 318 319 320 320 322 321
294 294 294 293 293 293 293 293 294 295 294 295 297 299 301 304 303 304 304 305 305 306 305 305 306 306 307 308 308 309 309 309 309 308 310 314 318 318 318 317 316 318 319 319 320 320 321
294 295 295 295 295 294 293 292 293 294 294 295 296 298 299 300 302 303 303 304 306 305 305 306 306 306 306 307 308 309 309 309 310 309 310 312 312 313 316 315 315 315 316 317 317 317 318
295 296 296 297 297 297 295 293 293 294 295 295 296 297 299 300 301 303 305 304 304 305 305 305 306 306 307 307 307 308 308 308 309 309 310 311 312 312 315 312 314 316 315 315 316 317 317
296 296 297 298 298 298 297 296 293 294 294 295 296 297 298 300 301 301 302 303 304 304 305 305 306 307 306 307 307 307 307 308 308 309 309 310 312 313 315 315 315 313 313 314 315 316 316
296 297 297 298 298 298 298 298 296 294 294 294 296 297 298 300 299 300 300 302 303 304 304 305 305 306 306 307 308 308 310 309 310 310 310 310 311 313 315 314 313 312 312 312 313 313 315
297 297 297 297 297 298 298 298 298 293 294 294 295 297 298 300 300 299 300 300 303 304 306 305 305 306 306 306 309 309 309 310 310 310 310 310 310 312 313 313 312 311 314 315 314 315 315
297 297 297 297 297 297 298 297 297 294 292 293 295 295 297 298 298 301 301 301 301 304 305 305 306 306 305 307 309 309 310 309 311 312 312 312 312 313 313 313 312 313 313 314 315 316 313
297 298 298 298 298 297 297 298 297 297 294 294 295 295 296 297 298 298 299 301 303 303 306 305 306 305 304 309 309 309 309 310 309 310 312 312 312 312 312 314 313 311 313 314 316 315 314
297 298 298 299 299 298 297 298 298 298 297 297 297 296 296 297 298 299 298 299 301 303 304 303 305 305 305 307 308 309 310 310 309 310 311 313 311 312 311 312 313 314 314 313 313 313 313

GFSGBSN_850_thetae_078.txt.gz
Theta_e
305 304 305 304 304 302 303 303 302 303 303 303 304 304 304 301 300 299 299 298 299 299 299 299 300 300 301 310 311 311 313 312 309 309 316 316 319 319 320 320 319 319 319 319 319 320 319
304 304 304 305 304 304 303 303 303 303 302 302 303 303 303 301 299 299 299 298 298 298 298 299 299 300 301 309 309 312 312 310 311 318 319 319 318 319 319 319 319 319 319 319 319 320 319
302 302 302 302 303 304 303 302 302 302 302 302 301 303 302 302 301 301 299 297 297 298 298 299 299 300 306 306 308 310 310 311 310 312 318 319 318 319 319 319 318 319 319 320 320 320 320
302 302 302 302 302 301 302 302 301 301 301 301 300 302 302 301 301 300 297 296 297 297 298 299 300 304 309 306 308 309 309 309 311 311 313 317 319 319 319 318 319 320 320 320 320 320 321
300 300 300 301 302 301 301 301 300 300 300 300 300 301 302 301 300 297 296 296 298 302 302 301 303 309 311 310 309 310 309 309 310 312 311 310 315 318 319 319 319 320 321 321 321 321 322
300 300 301 301 300 301 302 302 301 300 299 300 299 301 302 301 299 297 297 298 306 307 311 311 311 312 312 310 310 311 313 315 311 311 311 310 312 316 317 318 321 320 321 322 322 322 323
299 299 299 299 298 299 300 301 302 300 300 300 300 300 301 300 299 297 305 308 310 312 314 313 314 313 312 311 309 310 311 316 312 311 312 311 311 312 314 319 319 320 321 322 324 323 323
300 298 297 299 299 299 299 299 301 300 299 300 299 300 300 299 298 302 308 309 307 307 308 307 307 307 307 307 307 308 309 314 316 315 315 314 314 313 314 314 316 317 319 321 324 324 322
298 299 299 298 298 297 298 299 299 300 299 298 299 298 300 298 299 307 307 308 307 308 308 308 310 310 310 310 310 309 308 309 316 317 317 319 318 316 313 315 316 319 321 322 323 323 323
299 298 298 297 296 296 298 299 299 300 298 298 298 298 299 298 302 307 308 307 307 308 311 314 311 310 311 311 312 311 310 309 310 315 316 318 317 316 315 317 318 321 321 322 323 323 325
296 296 297 297 297 297 298 297 298 299 298 297 298 298 299 298 299 304 307 306 308 308 317 313 310 311 311 312 312 312 311 310 310 313 314 316 316 316 317 318 318 322 321 322 323 323 324
295 295 295 296 296 296 296 296 297 297 298 297 297 297 298 299 303 304 306 306 308 312 316 309 312 313 313 313 313 312 312 309 310 311 315 315 315 316 317 318 318 318 321 321 322 322 324
294 296 296 295 296 297 298 297 297 297 297 298 296 296 297 299 302 305 305 307 313 312 309 309 311 311 311 311 312 313 314 313 310 311 313 313 314 315 316 317 317 318 318 323 325 325 325
295 295 295 294 295 295 296 296 296 296 298 298 296 297 297 298 300 303 305 309 311 308 310 311 310 310 310 311 313 314 314 315 312 310 309 310 311 312 313 315 316 318 318 324 326 328 325
294 294 294 293 293 294 294 295 295 296 297 297 296 297 298 297 300 302 306 307 307 308 308 308 309 309 308 310 312 315 315 315 316 311 310 312 310 312 314 313 314 318 320 319 323 322 328
293 293 293 292 293 294 294 295 294 296 296 296 297 299 299 300 301 303 306 307 307 307 309 309 309 308 308 310 311 312 313 317 318 315 312 313 314 314 314 315 316 318 319 320 320 324 329
292 292 292 292 292 293 294 294 293 295 296 297 297 298 299 300 303 304 305 306 306 306 307 308 308 309 310 310 311 312 316 317 315 313 315 316 313 315 315 315 317 317 319 319 321 322 327
293 292 292 292 293 292 293 294 294 295 297 297 298 300 301 302 304 304 306 305 305 306 306 306 307 308 310 311 311 311 312 315 311 311 315 317 316 316 316 316 315 317 318 318 322 326 325
293 293 293 292 292 293 294 293 294 294 296 297 298 298 299 303 304 305 304 304 305 306 305 306 306 307 308 308 309 310 311 311 310 310 311 311 315 318 318 319 317 316 317 319 319 322 325
292 293 293 293 293 293 293 294 293 293 295 295 298 301 298 302 303 304 305 305 305 304 305 305 306 306 307 307 308 309 310 310 309 309 308 309 313 318 321 321 319 320 319 319 321 322 324
293 293 294 294 295 295 294 293 294 293 294 295 297 299 301 304 303 303 304 305 306 305 305 305 306 306 306 307 307 308 309 310 310 309 309 311 315 316 314 318 318 319 321 320 322 322 323
293 293 294 295 296 296 295 294 293 294 294 296 296 298 298 300 302 303 304 304 305 306 306 307 306 306 306 307 307 308 309 309 311 310 310 311 314 313 313 314 317 316 316 316 319 320 318
293 293 295 296 296 297 297 296 294 293 294 296 296 297 298 300 301 302 305 304 304 304 305 306 306 307 306 306 307 308 309 309 310 311 311 312 311 312 313 313 314 317 316 315 316 317 317
293 295 295 296 296 297 298 298 296 294 293 295 296 297 298 300 300 302 302 303 304 304 305 305 305 307 308 307 308 309 309 309 309 310 309 310 311 313 315 314 316 314 314 314 315 315 316
294 295 296 296 297 297 298 298 298 295 293 294 296 297 298 300 300 300 301 302 303 304 305 305 305 306 305 308 308 307 308 309 309 309 309 310 310 313 315 314 313 312 313 312 312 313 315
295 295 296 297 297 298 298 298 299 298 295 294 295 297 297 300 300 299 300 300 302 303 304 305 305 305 304 308 308 307 308 308 309 310 310 310 312 313 314 313 313 312 311 314 314 313 316
295 296 297 297 297 298 298 297 298 298 298 295 295 296 297 298 298 299 301 301 301 302 304 305 305 306 306 307 307 307 308 309 311 311 311 311 312 313 313 313 313 311 314 314 316 317 314
295 296 296 297 297 298 298 297 298 298 298 296 295 296 296 297 298 298 299 299 301 303 305 305 306 306 306 306 307 307 309 310 310 310 312 312 312 313 312 312 313 312 313 314 317 314 314
295 296 297 298 298 298 299 298 297 298 298 297 295 296 296 296 297 299 299 299 300 301 302 303 303 305 306 306 307 308 310 312 310 310 312 313 311 312 311 312 312 314 315 314 313 313 312

GFSGBSN_850_thetae_081.txt.gz
Theta_e
304 304 304 304 305 305 304 303 303 303 303 303 303 302 302 303 302 299 298 298 298 298 298 298 299 299 300 306 307 308 309 310 312 312 309 315 313 315 316 316 317 316 316 317 317 318 318
301 302 302 303 303 303 304 304 303 302 302 302 302 302 301 302 301 300 299 298 298 297 297 298 298 299 301 307 306 309 311 311 310 310 317 316 316 317 318 317 317 318 318 317 317 317 318
302 302 302 302 302 302 302 302 302 302 301 301 301 301 301 301 301 300 298 298 296 296 297 297 298 300 303 302 305 306 309 310 310 310 310 318 319 319 318 317 318 318 316 316 316 317 316
301 300 300 301 301 302 302 302 302 301 300 300 301 300 300 302 302 299 298 296 296 297 297 300 301 302 305 303 306 306 308 309 310 312 312 311 314 316 318 319 319 317 316 316 317 316 318
300 300 300 300 301 301 301 301 302 303 301 300 300 300 300 301 301 299 296 296 297 299 304 306 303 303 309 309 310 310 310 308 309 311 311 311 310 311 316 317 316 316 316 317 318 317 318
301 301 299 299 299 299 299 298 300 301 302 300 300 300 300 300 300 298 296 302 304 305 308 310 308 310 310 308 310 310 311 314 315 312 310 312 310 310 313 314 318 317 316 315 317 318 319
299 300 300 298 298 299 298 299 299 299 301 301 299 299 300 299 300 297 304 308 308 311 309 313 312 310 312 312 311 309 309 312 315 311 309 310 307 308 310 314 316 317 317 317 318 318 320
298 298 299 299 299 298 298 297 297 300 300 300 299 298 298 298 299 301 306 308 307 306 307 307 307 312 313 311 307 307 308 309 315 311 309 310 309 309 311 312 312 312 313 315 316 318 318
297 298 299 298 298 297 297 296 298 299 299 299 299 298 298 298 298 305 307 308 307 307 306 307 307 308 307 307 308 309 308 308 309 315 315 313 314 313 315 313 314 314 315 316 317 317 319
297 296 296 296 296 297 297 297 298 298 298 298 299 298 298 298 298 305 307 306 307 307 308 310 311 309 310 310 311 311 310 308 308 310 314 314 315 317 316 316 314 314 315 318 320 324 325
297 297 296 295 296 295 296 296 296 297 297 297 298 298 298 297 298 300 304 305 307 307 312 314 310 309 311 311 312 310 310 310 308 307 311 313 315 315 315 315 315 315 317 319 320 324 324
296 296 294 295 296 296 295 296 297 297 297 297 297 298 297 297 300 303 305 305 307 312 313 310 311 310 311 312 312 312 312 309 309 308 308 310 313 313 314 316 317 318 319 319 319 322 327
295 294 295 295 296 295 294 295 295 296 297 296 297 298 298 297 298 304 303 305 310 312 311 309 311 313 313 312 313 313 313 308 307 309 309 310 311 314 316 317 317 317 320 325 325 326 325
294 294 294 295 294 293 293 294 294 294 296 296 296 298 297 297 297 299 301 307 310 310 310 311 310 310 310 310 311 313 313 312 308 308 308 309 311 312 316 315 315 317 318 324 326 326 326
294 294 294 293 293 293 293 294 294 295 295 296 297 298 297 296 296 299 301 305 308 307 308 310 309 309 310 309 310 313 313 313 313 309 309 310 311 311 311 313 314 315 317 317 321 323 325
293 293 293 292 292 293 293 293 294 294 294 296 297 297 297 297 298 300 303 305 304 306 307 308 309 310 308 309 311 311 312 316 318 315 310 312 314 313 312 313 313 313 316 321 320 325 327
293 293 293 292 292 292 293 292 294 294 293 295 296 298 298 298 299 300 303 304 305 305 306 307 308 308 309 311 310 310 316 316 313 312 312 314 314 314 313 315 316 316 317 318 320 321 330
293 294 293 293 293 292 293 293 293 294 294 295 296 298 299 302 301 302 302 304 304 305 305 306 307 306 307 309 310 310 312 313 309 309 312 312 313 314 312 313 314 316 317 318 323 325 323
294 293 293 293 293 293 293 292 294 294 295 295 297 298 298 300 300 303 304 304 304 305 305 306 306 307 307 307 308 309 310 311 309 309 309 309 312 316 317 318 317 317 317 318 319 320 324
293 293 292 293 293 293 294 294 293 294 294 295 296 293 299 299 300 303 303 304 305 304 304 304 305 305 306 306 306 307 308 311 309 309 307 308 311 314 318 321 317 320 318 318 319 323 321
292 292 293 293 293 294 295 295 294 294 294 295 295 294 299 299 300 302 303 304 306 306 305 305 304 304 305 306 306 306 307 309 310 310 308 309 312 314 314 314 315 319 318 319 321 320 322
292 292 292 293 293 294 295 296 296 294 294 294 296 296 298 299 300 301 302 302 303 303 304 306 307 306 306 305 305 306 309 308 309 311 311 310 310 312 313 313 312 315 317 318 317 319 320
292 293 293 293 295 295 296 297 297 295 294 295 295 296 296 298 299 301 301 303 304 303 303 304 306 307 307 307 306 307 309 309 310 310 310 311 311 311 312 313 315 315 314 315 317 319 319
292 292 293 294 295 296 296 297 298 296 295 293 295 296 297 295 296 299 300 301 303 303 304 304 305 305 307 306 306 308 308 309 309 309 309 310 310 310 310 311 315 316 315 315 315 315 314
292 293 294 295 296 296 297 297 298 297 296 294 293 296 297 292 297 298 299 300 301 302 303 304 304 305 305 305 307 308 306 307 308 309 309 308 309 307 310 312 312 311 313 312 312 313 315
293 294 294 295 296 297 297 297 297 298 297 295 293 294 297 297 296 298 299 299 300 299 301 302 304 305 305 307 307 307 306 307 307 308 308 308 307 308 308 314 311 311 313 314 314 315 315
293 294 294 295 296 297 297 297 298 298 298 297 295 294 296 297 297 297 298 299 300 300 301 303 304 305 305 304 307 304 305 307 308 310 309 308 307 309 309 311 312 312 314 314 315 316 314
293 294 294 295 296 296 297 298 298 298 298 298 296 295 295 297 297 297 298 298 299 300 301 303 302 302 304 301 304 303 303 307 309 310 311 309 309 308 308 309 310 311 313 315 314 313 312
293 294 294 295 295 297 297 298 298 298 298 298 296 296 295 296 297 297 297 296 297 298 300 301 300 302 305 304 303 304 303 305 308 311 310 312 310 309 309 308 312 313 314 312 312 311 310

GFSGBSN_850_thetae_084.txt.gz
Theta_e
301 301 302 302 303 303 303 303 303 303 302 301 301 301 301 300 299 298 298 298 298 297 297 297 297 298 299 301 302 308 311 307 310 311 311 312 313 310 313 313 316 315 316 317 317 316 316
303 302 302 302 302 302 302 302 302 302 301 301 301 300 300 299 298 298 298 297 297 297 297 296 297 297 302 304 304 307 306 310 311 312 313 315 314 311 315 316 314 316 316 316 316 316 316
301 301 300 300 301 301 301 302 303 302 302 302 301 301 300 300 299 299 300 298 297 297 296 296 297 302 305 302 304 303 307 308 309 311 311 311 317 316 317 316 318 317 316 315 315 315 314
301 301 299 299 299 300 300 300 300 301 301 302 302 301 300 300 299 299 299 297 296 296 298 301 302 304 304 302 302 305 305 306 309 310 310 311 312 310 316 317 318 317 315 315 316 315 315
300 301 301 300 298 298 299 299 299 299 299 300 302 301 300 299 299 298 298 296 299 301 302 303 306 305 304 303 307 309 310 308 308 310 310 311 311 310 313 315 316 315 316 316 316 316 316
299 297 299 300 299 298 299 299 298 299 299 299 300 300 300 299 298 297 297 305 308 309 306 306 308 309 306 308 310 310 310 311 315 314 312 310 311 307 310 312 318 317 316 314 315 314 316
298 298 298 299 300 299 298 298 298 297 297 300 300 300 300 299 298 298 302 307 307 307 306 310 310 310 306 312 312 310 309 308 314 313 308 310 307 306 308 311 314 315 315 315 314 314 317
298 298 298 298 298 298 297 297 297 297 297 299 299 299 299 299 298 298 305 306 306 306 306 306 306 306 310 311 310 311 309 307 314 312 308 308 307 307 309 310 311 313 313 311 312 314 319
297 297 296 295 296 296 296 297 297 297 298 298 297 298 298 298 298 298 304 305 306 307 305 306 306 306 305 306 310 310 308 306 308 314 311 308 310 308 309 309 310 310 312 312 313 317 318
297 297 297 297 296 296 296 295 295 296 296 296 297 297 297 298 298 299 302 304 306 306 306 307 309 308 308 307 308 307 309 307 307 307 313 313 313 312 313 315 314 314 313 315 317 321 321
295 295 296 296 294 295 296 295 295 295 296 297 297 297 297 298 297 296 301 305 305 307 307 310 311 309 310 310 310 310 311 309 306 307 310 312 315 314 315 315 313 315 318 318 319 320 321
296 295 294 294 295 295 296 296 295 295 295 296 297 297 297 297 298 297 301 303 306 309 309 312 310 309 310 311 311 311 310 309 309 307 307 307 310 313 313 315 315 317 318 319 319 320 320
295 294 293 294 294 295 294 294 293 293 294 294 295 296 296 297 297 297 298 302 307 308 309 311 311 310 312 312 312 312 310 307 307 307 307 308 308 314 315 317 316 317 317 321 324 324 319
294 294 294 294 293 293 294 294 293 293 294 295 295 296 296 296 297 297 298 304 305 307 309 309 310 312 312 312 312 312 311 309 307 307 307 308 309 313 314 314 316 317 317 320 325 323 323
294 294 293 293 293 292 292 293 293 292 293 294 295 295 296 298 298 297 298 304 305 307 307 307 309 308 309 310 309 312 312 313 310 306 308 307 309 309 313 313 313 316 317 316 321 322 322
293 293 293 293 294 292 292 292 293 292 293 294 294 296 296 298 297 298 301 302 304 305 305 306 308 309 310 310 310 310 315 315 317 310 308 311 314 312 311 311 313 314 316 321 321 322 326
292 293 293 293 293 293 293 292 293 293 293 294 295 296 296 299 298 299 301 302 303 304 305 306 306 306 306 307 308 309 316 315 311 310 312 313 314 314 313 313 313 314 317 317 318 319 324
292 293 294 293 293 293 293 293 292 294 294 294 295 296 299 299 298 300 299 303 303 304 304 305 306 307 306 307 307 309 312 310 309 309 311 310 311 314 313 312 312 314 317 318 322 324 321
292 293 293 292 292 293 293 293 294 293 294 294 295 296 297 297 298 299 301 302 302 303 303 304 305 305 305 306 306 308 309 309 309 309 308 308 313 314 316 317 317 318 317 317 318 318 320
291 293 293 292 292 293 294 295 295 294 294 294 295 297 297 297 298 300 303 303 304 304 304 304 304 305 305 305 306 307 307 309 309 309 307 308 309 313 315 316 317 317 316 318 319 322 320
292 292 292 292 292 293 293 294 295 295 294 294 294 294 297 298 300 300 301 304 304 304 305 305 305 305 305 305 305 304 306 308 309 309 308 307 308 311 313 314 313 314 316 317 318 320 323
291 292 291 291 292 293 293 294 295 296 295 294 294 294 296 296 299 300 301 302 302 302 303 304 305 306 307 306 307 308 308 308 308 309 310 309 310 309 310 311 311 313 312 319 317 317 318
291 292 293 293 292 293 294 295 296 296 296 294 294 294 295 295 297 298 300 300 301 302 304 303 304 306 306 307 306 305 306 307 308 309 309 310 310 309 311 311 311 313 314 316 317 317 316
293 293 292 292 293 295 295 296 296 297 297 295 294 295 295 294 295 296 297 298 300 301 302 303 304 305 305 305 305 305 306 307 307 307 308 309 310 310 310 309 311 311 309 311 316 316 317
292 292 292 293 294 294 295 296 296 297 297 296 295 294 296 290 295 296 297 298 299 299 302 302 302 304 305 304 306 305 304 305 306 308 308 307 307 306 308 310 309 307 309 313 312 316 314
292 292 292 293 294 294 296 297 297 297 298 296 296 294 295 296 294 296 298 299 298 298 299 300 303 304 304 304 303 305 306 306 307 307 308 307 306 306 305 310 309 309 311 312 313 317 313
291 291 292 293 293 294 296 297 297 297 297 298 296 296 293 296 296 296 296 297 298 299 298 300 302 303 304 301 305 303 304 306 306 309 308 306 304 308 306 306 308 309 313 313 315 315 311
291 291 292 293 293 294 295 296 297 297 298 298 297 296 294 295 295 297 297 298 298 299 301 300 298 300 303 301 302 303 301 304 306 307 308 309 309 306 306 307 308 311 313 314 312 309 309
290 292 292 293 294 294 294 295 297 297 298 298 298 297 296 294 296 296 296 296 296 296 297 299 299 300 302 305 302 303 301 300 305 307 309 310 310 309 307 306 309 310 311 310 309 308 307

GFSGBSN_850_thetae_087.txt.gz
Theta_e
300 301 301 301 300 302 302 302 302 302 302 302 302 301 301 299 298 298 297 297 297 297 297 297 297 296 298 300 301 305 312 311 306 310 310 310 312 311 310 312 315 314 315 316 317 317 316
301 300 300 299 300 301 301 301 301 300 302 302 302 302 301 300 299 298 298 297 296 297 297 296 296 297 303 303 303 304 305 307 307 310 311 311 313 312 311 312 313 314 316 316 317 316 316
299 300 300 299 298 298 298 298 298 298 298 299 299 301 301 301 300 299 297 297 296 297 296 296 298 302 304 301 302 303 307 306 308 309 312 314 314 314 313 314 315 316 315 315 313 314 313
301 301 302 301 299 298 297 299 299 299 299 299 299 299 300 299 299 299 297 296 296 296 297 299 302 304 305 300 300 303 302 303 307 308 310 311 311 311 315 316 316 317 315 315 315 313 314
299 297 297 300 300 299 299 298 298 298 298 296 298 300 300 299 299 299 297 296 298 306 307 306 305 305 306 303 303 304 307 308 305 306 309 309 309 310 311 313 315 314 316 315 316 314 315
296 297 297 298 299 299 298 298 297 297 296 297 298 299 299 299 298 298 297 302 306 308 307 305 307 307 305 306 311 309 309 310 309 307 308 309 310 305 309 312 316 317 315 314 315 314 313
297 297 298 299 299 298 298 297 297 297 296 297 297 298 298 298 297 298 298 306 305 306 306 306 308 308 307 309 311 309 307 307 310 313 307 308 307 305 306 311 314 315 315 315 313 313 316
295 296 295 296 295 295 296 297 297 295 295 295 296 297 296 296 296 297 298 301 303 303 304 306 306 306 305 307 309 310 309 308 313 311 307 307 306 307 306 308 311 313 314 313 310 312 316
296 297 298 297 297 296 297 297 295 295 295 295 296 296 296 296 297 298 298 301 303 304 305 305 304 305 306 305 307 308 309 307 308 313 309 307 308 308 307 308 309 309 309 310 311 316 316
296 296 295 296 296 295 294 295 296 295 295 295 295 297 297 296 297 297 298 299 304 305 304 305 307 307 305 305 306 305 309 308 306 309 312 310 310 309 307 308 308 310 312 313 316 317 316
295 296 295 293 293 293 294 295 295 293 293 293 295 295 297 297 296 297 297 299 304 306 304 306 310 308 307 305 309 307 307 307 305 306 310 313 314 312 313 313 312 314 316 317 318 318 319
296 295 294 292 294 294 294 294 294 293 292 293 295 294 295 296 296 297 297 299 303 305 306 308 309 309 308 309 311 309 308 308 307 306 306 309 308 311 313 315 314 316 316 316 318 318 318
295 294 293 294 294 293 292 293 293 294 293 293 294 294 295 295 296 296 297 299 304 305 305 309 309 310 310 310 311 311 308 307 305 307 307 307 307 312 315 316 315 315 313 310 314 320 317
294 294 294 294 292 293 293 292 293 293 293 292 293 294 294 295 295 296 297 302 304 303 305 307 307 307 311 311 311 312 308 307 306 306 305 306 308 312 314 314 316 316 313 311 318 322 322
294 294 293 293 293 293 292 292 292 292 293 293 293 294 294 294 295 297 296 302 302 305 305 306 307 311 310 309 308 312 311 310 307 306 308 308 308 308 313 312 313 316 315 314 316 315 319
294 293 293 293 292 293 292 293 293 292 293 293 294 294 294 296 297 297 297 301 302 303 304 305 308 307 308 307 309 309 313 313 314 308 307 311 311 312 310 312 312 313 314 316 320 320 322
293 293 292 293 294 293 293 293 293 292 293 294 294 295 295 298 297 297 295 301 301 302 303 305 306 306 306 306 307 310 315 311 310 312 311 313 313 314 312 311 312 314 316 316 316 320 324
292 292 291 294 294 293 292 293 293 293 293 294 294 293 295 295 297 296 295 301 302 302 302 303 305 305 305 306 307 309 311 311 308 310 311 308 311 313 313 312 311 311 314 316 318 320 322
292 293 292 293 293 292 292 293 294 295 294 294 294 295 296 297 298 294 299 300 300 300 301 302 304 305 305 306 306 308 308 308 308 308 308 308 311 312 313 315 315 316 317 316 317 318 320
293 292 292 293 292 291 292 293 294 295 295 294 294 295 295 297 297 298 299 300 303 303 302 304 304 304 305 305 305 306 307 308 309 309 307 307 309 311 309 311 315 316 317 316 317 320 321
293 292 292 292 292 292 292 292 294 294 295 294 294 292 295 296 298 298 298 301 303 303 304 304 305 306 306 305 305 307 307 307 309 309 307 307 308 309 310 311 312 313 314 314 316 317 320
292 292 291 290 291 291 292 293 294 295 296 295 294 293 295 295 296 297 298 301 302 303 303 303 304 305 306 306 307 307 306 307 308 307 309 308 309 308 309 309 309 310 310 312 315 317 318
292 291 291 293 292 292 292 293 295 296 296 295 294 294 294 295 295 296 297 297 299 300 303 303 303 305 304 306 306 305 305 306 306 307 307 308 309 308 310 308 308 310 310 308 317 316 316
290 292 293 293 292 292 294 295 295 296 296 297 294 293 294 293 294 296 296 297 297 299 301 301 302 304 304 305 305 305 305 306 305 305 306 307 308 308 309 308 309 308 307 308 311 317 315
291 293 294 292 291 293 294 294 295 296 297 297 296 294 294 291 295 296 296 297 298 299 299 301 302 304 305 304 304 305 304 304 304 305 306 305 306 305 307 308 307 306 306 310 312 312 314
292 293 292 292 292 293 294 294 296 297 297 297 297 294 294 295 293 295 297 297 297 298 299 300 301 303 304 301 302 305 305 306 306 306 306 305 304 305 304 308 305 306 309 311 312 313 311
292 293 292 291 292 293 293 294 296 297 297 298 298 296 294 294 294 295 295 297 298 298 298 300 299 301 302 301 303 305 305 304 305 307 307 305 305 308 307 308 306 307 310 311 313 312 310
293 292 291 290 291 292 293 294 295 296 297 298 298 297 296 293 293 296 296 295 296 298 297 298 297 297 301 302 302 302 301 303 305 305 307 306 306 305 306 308 308 310 311 311 309 308 308
292 291 290 290 292 293 293 294 294 296 297 297 298 297 296 295 294 296 294 295 297 296 296 298 298 298 300 303 303 303 302 298 304 304 307 303 305 309 307 306 308 307 307 307 307 307 306

GFSGBSN_850_thetae_093.txt.gz
Theta_e
298 297 297 297 296 296 295 295 295 296 296 295 295 295 295 295 295 295 295 296 296 296 296 296 296 296 299 301 300 301 300 303 301 302 308 307 311 313 313 314 314 315 314 313 313 313 313
297 297 297 298 297 296 295 295 295 295 294 294 294 294 294 294 295 295 295 295 296 296 296 296 296 299 303 301 301 300 301 301 303 306 308 307 310 311 311 311 313 313 314 314 314 315 314
298 300 301 299 298 297 296 295 295 294 294 294 294 294 294 294 294 294 295 295 296 296 296 297 300 304 304 300 300 300 300 301 301 305 310 311 310 310 310 311 310 311 312 312 314 315 315
298 296 295 295 298 298 295 295 294 294 294 293 293 294 294 294 294 294 294 295 295 295 297 301 304 306 305 301 300 300 300 300 301 300 304 305 311 311 312 313 315 316 313 315 314 313 314
296 295 295 295 295 295 295 294 293 293 293 293 293 293 293 293 293 293 294 294 295 296 302 305 305 305 305 303 305 310 310 308 304 301 305 303 309 312 311 314 312 314 316 317 317 314 315
297 297 296 296 295 294 294 294 294 293 293 293 293 292 292 292 292 293 294 295 297 300 305 303 305 304 302 303 306 306 309 308 308 305 304 305 307 309 308 312 313 314 317 316 317 316 314
297 295 294 294 294 295 295 295 296 293 293 293 292 292 292 292 292 294 296 295 299 300 299 298 299 303 302 302 302 303 309 307 308 306 306 306 308 309 309 311 311 314 315 316 315 314 315
295 296 297 297 295 294 294 295 296 295 295 292 292 292 292 293 293 294 296 298 297 297 298 298 299 300 301 300 302 302 303 307 308 309 307 307 309 308 308 309 311 313 313 314 314 314 314
296 295 295 294 293 293 292 293 294 294 293 292 292 292 292 293 293 296 296 296 296 296 299 300 301 301 302 303 302 303 304 308 309 312 308 307 308 308 308 308 310 311 312 312 313 313 313
295 295 294 294 292 292 293 294 294 294 292 292 292 292 292 293 294 294 294 295 296 298 301 303 304 304 304 305 305 304 303 307 306 313 310 309 308 308 308 309 309 309 309 310 311 313 313
295 296 296 294 292 293 292 291 291 291 291 292 292 293 292 292 293 294 294 295 296 301 301 302 305 306 305 305 305 306 304 306 307 311 312 312 312 309 308 308 308 309 309 310 315 316 317
296 296 295 294 295 295 292 293 291 291 292 292 292 293 292 293 293 293 294 295 298 301 300 302 306 305 306 306 305 305 305 306 307 307 308 311 308 310 310 314 309 315 316 317 317 317 317
296 295 296 296 294 292 292 293 291 292 293 292 292 293 293 293 294 294 294 296 299 300 300 303 304 305 306 307 307 306 305 306 308 309 308 307 307 313 315 316 315 313 314 317 315 317 313
295 295 293 294 293 294 293 292 292 292 292 292 292 293 293 295 296 294 296 298 298 298 300 303 304 305 307 309 309 307 306 306 305 305 307 308 308 312 313 316 317 314 315 315 314 317 318
295 295 294 294 294 293 292 292 292 292 293 293 293 293 293 296 295 296 295 296 297 301 301 302 303 308 309 306 307 308 307 307 307 306 307 307 307 311 313 314 314 316 316 313 315 315 316
295 294 294 292 294 293 294 293 291 292 294 294 294 293 294 294 295 296 295 297 297 297 297 301 305 306 309 307 307 311 312 311 311 306 307 308 313 311 313 313 313 314 314 316 316 319 319
294 293 294 294 292 294 293 292 291 294 295 294 294 293 293 294 295 296 296 295 296 297 299 303 302 301 307 307 307 312 313 312 309 310 309 312 314 313 312 313 315 315 315 315 315 315 317
294 293 292 292 291 293 293 291 292 294 295 295 294 291 294 295 296 297 297 297 297 297 297 300 302 303 306 306 308 311 310 309 308 310 311 311 314 315 314 313 313 313 315 315 315 316 315
293 293 292 293 292 293 293 292 292 293 295 295 293 293 294 296 295 295 297 297 297 297 297 299 300 302 303 307 309 311 309 308 309 309 308 310 311 318 316 314 312 314 316 316 316 315 315
294 293 292 293 291 292 292 291 292 294 295 295 293 291 293 295 295 295 297 296 298 299 299 300 304 303 305 307 308 308 309 307 308 310 309 310 310 310 313 312 313 312 311 314 315 314 313
293 292 293 293 291 292 292 292 291 294 295 294 293 290 293 292 294 294 296 296 297 298 303 303 304 305 306 307 307 307 307 308 307 307 309 309 310 310 309 310 311 311 310 310 313 313 314
292 292 292 292 291 292 291 291 291 294 295 295 294 293 293 294 294 294 296 297 297 297 301 303 302 302 305 306 306 306 305 307 307 307 307 308 311 309 308 308 308 308 307 308 309 310 311
292 291 291 291 292 291 293 292 292 294 295 294 295 294 294 293 294 294 296 295 296 297 299 300 301 302 304 304 304 304 304 304 304 307 307 308 308 306 307 308 306 305 307 305 306 307 313
292 291 292 291 290 292 294 292 291 294 296 295 294 294 293 293 293 294 294 295 296 296 298 300 301 302 303 303 303 303 304 304 305 306 306 308 307 308 307 308 305 305 306 306 308 308 312
291 291 291 291 292 294 294 292 293 295 296 296 296 295 294 293 294 294 295 295 295 297 299 300 301 299 301 302 304 304 304 304 304 306 305 306 307 308 307 306 305 305 309 308 308 307 310
291 291 291 291 293 293 292 291 293 295 295 296 295 295 294 294 293 294 295 295 297 298 297 299 298 300 301 301 303 305 305 305 306 306 305 305 305 307 307 305 305 305 307 309 309 306 307
291 291 290 291 293 293 291 290 293 294 294 296 298 296 295 294 294 294 295 296 296 296 296 297 297 298 300 301 305 305 305 304 305 305 306 307 306 306 305 305 306 307 308 307 307 308 305
290 290 290 291 292 293 292 290 292 293 294 296 297 296 297 295 295 294 294 293 294 294 296 296 297 297 299 302 303 304 304 304 304 305 307 306 306 306 305 306 306 305 308 309 308 305 304
289 290 290 291 294 292 291 289 291 292 293 295 296 296 296 295 296 295 295 296 295 295 296 296 297 297 299 299 300 300 302 302 302 306 305 307 307 306 307 308 302 301 301 298 300 299 299

GFSGBSN_850_thetae_099.txt.gz
Theta_e
298 297 297 297 296 296 296 296 296 296 296 296 296 296 296 296 296 296 297 297 297 296 296 296 296 296 298 304 305 305 304 304 303 303 307 312 314 313 315 317 318 320 320 320 320 320 320
298 297 297 296 296 296 295 295 295 296 296 296 296 296 295 295 295 296 297 298 298 296 296 296 296 296 305 306 304 304 304 304 304 305 305 309 311 314 314 315 319 319 320 321 320 320 319
298 297 297 297 296 296 295 295 296 296 296 296 296 295 295 295 296 297 297 297 296 295 295 295 296 298 306 304 304 304 304 304 304 304 306 310 310 312 314 316 316 317 320 321 321 321 321
298 297 297 296 296 296 295 295 295 295 295 295 295 294 295 296 296 296 296 296 296 296 296 296 297 307 307 304 304 304 304 304 304 305 305 307 311 311 312 315 316 317 318 320 321 320 320
298 297 296 295 295 295 295 295 295 295 295 294 294 295 295 295 295 295 295 296 297 298 298 299 305 307 308 305 305 306 308 307 309 308 306 304 306 310 313 315 317 317 319 319 319 321 321
298 296 295 295 295 294 294 295 294 294 294 294 294 294 295 295 294 294 295 298 300 300 304 303 305 307 307 306 304 305 307 308 310 311 310 305 305 308 311 316 318 319 319 320 321 322 322
297 295 295 295 294 294 294 294 294 294 294 294 294 294 295 294 294 294 296 300 301 302 302 300 300 303 302 301 301 301 301 301 305 310 312 308 307 308 311 315 316 317 318 320 320 321 322
297 296 295 294 294 294 294 294 294 294 294 293 294 294 293 294 294 297 299 300 298 298 299 299 299 300 300 301 302 305 305 303 303 306 312 310 307 308 312 314 315 316 317 320 320 319 320
298 298 296 295 294 294 294 294 293 293 293 293 293 293 293 294 297 299 299 298 298 299 300 299 300 303 306 307 307 307 306 304 304 307 309 312 308 308 310 312 313 316 317 317 317 316 318
297 296 296 295 294 293 293 293 293 293 293 293 293 293 293 294 299 299 299 298 298 299 301 303 303 307 307 306 308 305 307 304 305 307 311 312 309 310 310 311 313 314 315 315 314 316 319
297 296 296 294 293 293 293 293 292 293 292 292 293 293 293 297 299 299 298 298 298 299 303 303 306 307 305 303 304 306 308 306 305 307 309 313 309 311 311 312 313 313 314 314 315 315 316
297 295 296 294 294 294 292 292 292 292 292 293 293 293 293 298 300 299 299 299 301 304 303 300 302 302 302 303 307 308 309 308 305 306 309 312 311 312 311 311 311 312 312 312 313 313 315
296 297 296 295 294 293 291 292 292 292 292 294 294 294 294 298 300 299 299 301 303 301 300 299 300 301 301 307 307 311 310 310 307 306 310 314 315 312 311 312 312 311 312 314 315 316 317
296 296 296 294 293 292 292 292 292 291 292 294 294 293 297 299 298 300 301 304 302 300 300 300 300 301 304 306 307 308 311 309 307 310 313 316 317 312 313 312 312 312 312 319 319 321 319
295 295 295 294 293 294 292 292 291 290 293 295 296 299 299 298 298 300 302 302 299 300 300 300 300 302 305 304 305 309 312 310 308 309 314 316 312 313 313 312 312 313 315 316 319 319 319
295 295 295 294 294 294 293 293 291 291 294 295 299 299 300 294 298 301 304 302 301 301 301 300 301 304 303 304 307 309 308 309 309 311 311 312 313 311 313 315 313 313 314 317 318 318 316
295 296 294 293 294 293 295 293 290 292 294 295 300 301 299 295 300 302 305 303 302 300 300 301 300 300 302 305 305 309 314 309 310 310 311 311 314 311 313 315 314 315 317 316 316 317 321
295 295 294 294 294 293 294 292 291 292 294 297 300 303 298 300 304 302 304 301 301 301 301 302 301 303 303 305 306 309 314 314 312 313 309 311 313 313 313 313 315 314 316 315 318 318 317
295 294 293 293 291 292 293 292 291 292 295 299 301 300 299 300 303 303 302 303 302 303 304 305 304 303 303 307 309 309 309 310 311 313 313 314 314 314 315 315 316 317 317 316 317 318 319
294 294 293 293 295 293 293 293 290 292 295 299 300 303 301 300 300 301 302 303 303 302 303 303 306 306 307 307 306 309 308 309 309 311 311 313 315 313 315 315 314 317 316 316 316 317 317
293 294 293 292 294 292 293 292 291 293 295 298 300 301 299 303 302 301 301 302 302 303 303 304 306 306 307 308 306 306 307 308 309 309 310 313 317 315 315 314 314 315 316 316 316 315 315
293 294 293 293 293 292 293 292 291 293 295 298 296 301 299 300 300 301 301 302 301 301 303 304 304 305 306 306 305 305 306 307 309 308 309 310 311 311 311 313 312 311 310 310 310 311 312
295 295 293 292 293 292 292 291 291 293 296 298 297 297 298 300 300 301 301 299 300 301 302 303 304 305 306 305 304 305 306 306 308 308 309 309 309 310 310 308 309 310 310 309 311 312 313
294 294 293 292 292 291 292 293 291 293 295 298 297 297 298 301 300 299 299 298 299 300 302 303 303 304 303 303 306 307 308 308 308 309 308 309 307 309 309 308 310 310 311 311 312 312 311
293 293 293 292 292 291 292 293 292 292 294 296 296 298 298 300 300 300 299 299 300 300 302 302 302 301 303 305 308 307 308 309 307 308 308 308 309 308 308 310 310 310 310 311 312 312 309
292 291 292 292 292 291 292 294 295 291 293 296 295 296 298 299 301 298 300 300 301 301 301 301 301 302 304 307 307 307 308 308 307 307 308 308 309 310 309 307 310 312 309 309 311 313 308
293 292 292 291 292 291 293 294 293 291 295 295 296 295 297 298 299 299 300 300 299 299 301 301 301 303 304 307 308 307 308 307 308 307 308 308 309 310 309 309 311 305 306 307 312 309 305
294 293 291 291 291 292 294 293 292 292 293 295 296 296 296 297 298 299 299 299 299 299 301 300 303 302 303 306 305 306 307 307 308 307 308 310 311 311 311 309 311 300 307 308 301 299 301
292 292 291 291 291 292 294 294 292 290 293 294 295 296 296 296 298 298 298 298 299 299 299 299 300 301 301 303 304 303 306 306 307 311 307 309 308 308 306 305 300 298 298 296 297 297 297

GFSGBSN_850_thetae_102.txt.gz
Theta_e
301 300 298 297 297 297 296 296 296 296 296 296 296 297 297 297 298 299 298 298 298 297 298 297 296 296 296 304 306 305 305 305 304 305 305 305 309 313 316 314 314 318 321 321 321 321 321
303 300 298 297 297 296 296 296 296 296 296 296 296 297 297 298 298 298 298 298 297 297 297 297 297 296 302 306 304 306 305 306 305 305 306 306 306 310 313 316 316 316 318 320 321 321 321
305 301 298 297 296 296 296 296 295 295 296 296 296 297 297 298 297 297 297 297 297 298 298 298 298 296 303 304 304 306 306 306 305 305 305 306 307 309 310 313 314 316 316 318 321 321 321
304 301 299 298 297 296 296 295 295 295 295 296 296 297 297 297 296 296 297 297 298 299 300 300 300 298 306 306 307 307 306 305 306 306 305 305 305 307 311 311 312 316 317 318 319 320 322
303 302 302 298 296 296 296 295 295 295 295 296 296 296 296 296 296 296 297 298 300 301 301 303 303 307 309 309 308 307 306 308 308 307 307 306 306 306 309 314 314 314 318 318 318 319 321
303 299 300 298 295 295 295 295 295 295 295 295 296 296 295 295 295 296 297 300 301 302 304 304 307 306 308 309 307 304 303 304 309 308 309 310 309 308 308 314 316 314 316 317 319 319 320
298 297 299 297 295 295 295 295 295 295 294 295 295 295 295 295 296 297 300 301 300 302 300 300 301 303 302 302 301 302 302 303 302 302 305 308 312 310 307 309 312 314 315 318 318 320 321
298 296 297 298 296 295 294 294 294 294 294 294 295 295 294 295 297 299 302 300 299 298 300 300 300 301 301 301 301 303 306 306 307 305 303 306 310 311 307 307 308 312 316 318 319 319 321
298 297 299 298 295 294 294 294 294 294 294 294 294 294 295 295 298 302 302 300 299 300 300 300 302 303 307 307 307 305 307 308 309 309 306 304 307 312 308 307 307 311 314 318 319 320 317
299 299 299 298 295 294 294 294 293 293 293 294 294 294 295 296 301 302 301 300 300 301 303 304 306 308 305 303 303 304 305 306 308 308 306 304 306 310 310 307 308 312 314 317 318 319 320
299 299 299 297 295 294 293 293 293 293 293 293 294 294 294 297 300 302 300 301 301 302 307 303 302 302 301 301 302 302 305 306 310 307 305 304 306 310 312 307 309 312 315 316 316 317 317
299 298 298 295 294 293 293 292 292 292 292 293 294 295 294 300 302 301 299 302 303 306 304 301 301 302 302 302 304 306 308 309 309 307 305 305 308 312 313 311 310 313 315 315 315 315 321
298 297 296 295 294 293 293 292 292 292 292 294 295 294 295 300 301 298 301 304 306 304 302 301 302 303 303 305 307 306 307 310 311 308 304 307 308 311 312 311 312 314 315 315 317 320 318
298 297 297 296 294 294 292 292 292 292 293 294 294 294 300 301 295 298 303 306 302 302 302 302 303 303 304 307 305 305 308 313 310 306 307 307 318 314 314 311 312 312 314 317 314 315 314
297 297 297 296 294 293 293 292 291 291 293 295 300 301 302 301 295 301 305 304 302 302 302 302 303 303 304 304 305 308 310 313 307 306 308 317 318 313 313 312 313 312 313 315 323 321 324
297 297 297 295 294 295 293 293 292 291 294 295 301 301 302 296 297 304 306 304 303 302 302 303 304 303 305 306 307 308 311 310 308 309 311 313 317 314 313 312 312 313 313 316 319 326 327
296 296 295 295 294 295 294 294 291 292 294 296 303 303 302 296 304 304 307 304 303 303 303 303 304 305 306 306 307 309 309 314 313 312 312 312 314 313 315 316 313 313 315 317 318 319 323
296 296 296 294 294 294 295 293 290 292 294 298 303 306 302 300 306 305 305 303 303 304 304 306 306 306 306 306 308 308 308 311 309 314 314 312 315 313 312 315 315 315 316 316 321 317 321
296 296 295 294 295 293 294 293 291 292 299 302 304 304 302 302 305 304 304 304 304 304 305 306 306 307 307 307 308 309 307 306 310 314 314 315 314 317 314 313 316 316 316 317 318 319 320
295 295 294 294 292 292 293 293 290 292 295 302 303 306 303 303 303 303 303 304 304 303 304 305 306 307 308 309 306 307 307 307 309 311 311 315 315 316 316 315 317 318 318 318 318 319 318
295 295 294 293 295 294 293 293 290 293 295 301 302 304 302 305 304 302 303 303 303 303 303 304 305 305 306 309 306 306 306 308 308 309 310 312 315 315 316 316 315 317 318 317 316 315 318
295 294 294 293 294 293 293 293 290 293 296 301 297 304 302 301 302 302 302 303 302 302 303 304 304 305 305 305 304 306 306 308 309 309 309 310 315 311 314 316 314 313 312 312 312 314 316
294 294 295 293 294 293 293 292 291 294 297 299 299 299 300 302 302 302 302 301 301 301 302 303 304 305 305 303 304 305 307 308 309 310 309 310 311 313 310 310 311 312 311 313 312 311 313
293 294 294 293 293 293 293 292 291 294 298 299 298 298 300 303 302 301 300 300 301 301 302 302 303 304 303 303 306 308 308 309 308 308 308 310 310 311 309 309 315 312 313 312 311 310 309
293 295 294 293 292 292 292 293 292 293 296 298 298 298 300 302 302 301 300 301 301 301 302 302 303 302 303 305 308 309 309 310 308 307 308 308 310 312 314 312 312 312 310 309 313 309 308
294 294 293 293 292 292 292 293 292 291 294 296 298 298 298 300 303 300 300 301 302 301 301 301 302 302 304 307 308 309 308 307 308 308 308 308 311 314 313 311 315 308 305 307 309 309 305
293 292 292 293 293 292 292 293 294 292 293 296 297 296 298 299 300 301 301 300 300 301 301 302 300 303 303 306 308 309 311 307 309 309 309 311 311 312 312 312 309 302 304 305 312 305 303
293 292 292 292 292 292 292 294 293 292 293 295 297 296 297 298 299 300 300 300 300 300 301 300 302 303 303 306 305 305 306 306 308 309 308 308 311 310 310 311 310 300 304 304 300 298 299
294 293 292 292 292 291 293 294 293 290 292 294 296 296 296 296 298 299 298 299 299 300 300 300 301 302 302 303 303 302 305 308 306 310 307 309 307 306 305 304 300 299 298 297 298 297 297

GFSGBSN_850_thetae_108.txt.gz
Theta_e
322 318 314 310 304 302 300 299 298 297 297 297 297 297 297 298 298 298 299 298 299 299 299 299 299 299 299 300 301 302 303 304 305 306 305 305 304 304 304 311 311 307 308 308 308 309 311
321 321 315 312 311 301 301 298 298 298 297 297 297 297 297 298 298 298 298 299 299 299 299 300 299 300 301 299 302 302 303 304 305 305 306 306 305 305 303 302 303 308 308 310 312 311 310
323 320 315 313 308 302 301 298 298 298 297 297 297 297 297 297 298 298 298 299 299 299 300 300 300 302 302 302 307 307 307 306 305 303 303 303 305 304 305 303 304 305 304 306 308 309 311
322 320 318 313 307 302 299 298 298 298 297 296 297 296 297 297 297 298 298 299 299 300 300 301 301 302 302 307 308 305 305 306 305 305 304 303 304 306 304 305 304 303 303 303 306 308 310
319 319 319 314 308 301 298 299 297 297 297 296 296 296 296 297 297 298 298 299 299 299 301 302 302 304 305 303 306 304 303 303 303 304 304 304 303 306 306 303 303 303 302 302 304 307 308
319 316 319 316 308 299 299 298 297 297 296 296 296 296 296 296 297 298 299 299 299 301 302 300 303 304 303 303 306 302 303 302 302 303 304 303 303 301 302 302 304 303 302 302 304 307 308
321 313 313 310 304 299 299 299 298 297 296 296 296 296 296 296 297 299 300 298 298 300 299 299 300 300 302 305 304 304 303 302 302 305 302 304 303 301 300 302 308 306 303 303 303 304 308
321 313 311 311 302 299 300 300 297 296 296 296 295 295 296 296 298 301 301 299 299 299 300 302 302 301 302 304 301 302 303 302 303 305 305 304 305 305 307 306 303 304 308 307 304 304 306
320 313 309 306 303 301 300 301 297 296 296 295 295 295 295 296 300 301 301 300 300 301 299 302 303 302 304 303 303 303 303 303 302 303 304 305 305 305 307 307 306 302 303 308 308 304 307
317 312 308 305 304 299 302 298 297 296 295 295 295 295 296 297 299 300 301 299 300 302 300 302 302 303 303 303 303 303 305 304 304 305 305 304 305 305 307 307 308 306 305 308 310 306 306
315 311 307 305 304 303 300 298 295 295 295 295 295 295 295 298 300 301 299 300 303 303 301 303 302 302 302 303 303 305 305 304 305 305 306 306 306 307 307 308 308 307 306 307 308 305 307
313 309 306 303 303 302 301 296 295 295 296 295 295 295 295 298 301 301 298 302 304 299 301 302 302 302 302 303 305 305 305 306 306 306 306 307 307 307 306 305 306 308 310 310 311 309 307
310 307 305 303 302 302 297 295 295 295 295 295 294 295 295 298 296 296 302 304 301 300 302 302 301 302 302 303 305 305 306 308 311 309 307 307 308 304 307 307 306 309 311 310 310 312 314
309 306 303 302 301 298 296 294 295 295 294 294 294 294 296 295 296 297 305 302 300 302 301 302 302 303 302 304 305 305 306 307 310 310 309 307 307 309 310 308 306 311 310 311 317 319 317
306 304 302 301 300 297 294 295 295 293 293 293 295 297 298 298 298 300 305 298 301 301 302 303 303 303 302 304 305 305 306 306 310 308 313 311 309 307 307 307 309 310 312 311 316 316 312
304 302 300 300 299 297 294 294 293 292 292 295 300 301 301 301 301 304 300 302 302 302 304 304 303 303 301 304 306 305 306 306 307 307 309 311 311 309 313 312 311 311 312 313 311 311 311
301 300 299 299 297 297 295 293 292 292 293 296 301 302 302 302 302 305 299 300 303 303 304 305 304 304 305 305 306 303 305 305 306 308 310 312 309 314 313 314 314 312 313 315 315 317 317
300 299 298 298 298 296 296 292 292 291 294 295 302 300 299 300 302 298 297 302 303 303 304 304 304 305 304 302 307 304 302 306 305 307 310 310 311 314 314 314 313 314 315 315 315 317 317
299 298 298 297 296 297 296 293 291 292 295 302 304 302 299 304 297 295 300 303 303 302 303 304 304 304 303 301 302 300 302 305 305 306 310 311 314 313 314 315 314 315 315 315 316 315 319
298 298 297 296 297 296 296 293 291 293 297 302 303 299 302 302 301 300 301 303 303 302 302 303 303 302 303 301 304 300 301 304 303 306 309 309 312 312 313 313 310 315 317 316 316 319 316
297 297 296 295 296 296 295 292 291 294 300 302 302 300 302 297 299 300 300 301 302 301 301 301 302 301 302 300 301 301 302 302 305 307 308 309 311 311 314 313 314 313 313 315 318 314 314
297 296 296 296 295 294 294 292 291 294 299 302 301 302 300 299 303 300 300 301 302 300 300 300 300 300 301 302 301 301 301 303 305 306 308 309 311 310 313 311 311 311 309 311 312 312 312
297 296 296 294 294 294 292 292 291 294 301 300 299 299 301 300 299 297 297 299 299 300 300 301 300 300 301 302 301 301 302 303 304 305 308 309 309 312 314 312 312 308 308 307 307 308 309
296 295 295 294 295 294 293 291 293 298 299 299 299 299 299 295 298 298 300 299 300 301 300 300 300 301 301 302 302 305 306 305 306 308 308 309 308 311 312 313 309 306 304 305 304 303 304
295 294 293 295 294 294 293 291 294 299 299 298 298 299 300 293 299 300 300 301 299 300 299 301 299 301 302 301 303 306 306 306 309 309 308 308 309 312 314 313 309 306 302 302 306 304 301
295 295 294 294 294 294 293 291 294 296 298 297 297 298 298 297 298 300 299 299 297 297 297 300 299 301 301 301 303 309 310 307 310 309 307 307 307 311 312 310 310 304 300 300 302 303 300
294 295 295 294 293 293 292 291 294 297 298 297 297 297 297 298 300 300 298 299 300 298 297 298 299 301 301 297 302 304 306 306 309 308 308 306 306 306 308 307 305 299 299 301 306 301 298
295 295 294 293 293 293 292 292 292 296 296 297 296 296 297 297 298 299 300 300 300 299 295 299 297 299 297 298 300 301 304 303 307 307 307 306 307 303 304 304 303 298 299 301 300 298 297
296 295 294 293 293 292 292 292 291 293 295 296 296 296 296 296 297 299 299 297 297 299 298 300 300 300 300 296 297 299 301 301 305 304 306 305 303 302 302 301 298 297 297 297 297 297 297

GFSGBSN_850_thetae_114.txt.gz
Theta_e
325 325 325 324 325 325 323 319 315 307 304 301 299 299 298 298 299 299 299 299 299 299 299 300 300 300 300 301 301 300 302 303 304 303 304 305 305 304 303 305 303 303 305 307 305 302 303
324 324 325 324 324 324 324 324 319 308 307 302 299 298 298 298 298 299 299 299 298 299 299 300 300 299 301 299 301 304 305 304 305 304 304 304 304 303 303 301 301 302 302 302 302 303 303
326 325 325 325 325 324 324 325 322 314 308 302 299 298 298 298 298 298 299 299 298 299 299 299 299 300 300 303 305 307 303 302 302 301 301 303 304 303 303 301 303 303 301 303 304 303 302
325 325 325 325 325 324 324 324 323 320 309 302 298 298 298 298 297 298 298 298 298 299 299 299 300 300 301 303 303 302 302 302 301 302 301 302 303 302 302 303 302 302 302 303 303 302 303
326 324 323 324 323 325 324 324 323 321 313 304 298 297 298 297 297 297 298 298 299 299 300 301 300 302 302 302 303 303 303 303 303 302 302 302 302 302 302 301 301 301 303 303 304 303 301
323 320 318 322 321 322 323 324 323 321 315 304 298 297 297 297 297 297 298 298 299 299 302 300 302 303 302 302 302 303 303 302 302 302 302 304 303 299 297 299 302 301 302 302 303 304 303
317 317 319 321 318 320 320 323 322 320 315 303 297 297 297 296 296 296 297 299 299 299 299 300 300 301 301 302 303 303 302 304 302 302 301 302 301 301 300 299 301 301 301 300 301 301 301
311 316 320 320 316 319 320 320 320 319 315 301 298 298 297 295 295 296 298 298 299 299 301 301 302 302 302 302 302 303 303 304 302 301 301 302 303 302 302 301 303 303 304 304 303 302 304
308 309 312 316 319 317 320 318 319 317 313 304 298 298 297 295 295 297 299 298 300 302 300 302 302 302 302 302 302 303 304 304 302 302 302 302 303 303 302 302 302 302 303 302 302 304 305
305 307 308 311 316 318 316 316 317 315 314 302 298 303 295 294 296 299 299 299 302 302 300 301 302 303 302 302 302 304 305 304 303 303 303 303 303 303 303 303 302 303 303 303 304 306 307
304 305 306 308 315 318 317 314 315 315 309 301 306 299 297 294 299 300 299 301 303 303 298 302 301 302 303 303 303 304 304 304 304 304 304 306 305 305 306 305 303 304 305 306 306 307 307
302 303 305 306 311 316 316 314 314 314 311 303 307 297 294 296 299 299 298 302 303 298 299 301 301 301 302 302 303 304 304 305 307 305 304 304 306 305 305 305 305 305 305 306 307 306 308
303 305 306 306 307 312 314 313 313 313 306 304 299 297 294 296 299 299 298 304 299 298 301 301 301 302 302 302 303 304 303 304 310 309 308 307 306 305 306 307 305 305 306 307 308 310 310
303 304 305 307 309 312 314 312 313 312 306 304 298 294 294 297 299 298 303 300 300 301 300 301 302 301 301 303 303 303 303 303 308 308 308 310 308 305 305 306 305 305 306 310 312 313 315
303 304 305 307 311 313 312 309 311 310 307 302 295 294 294 297 296 302 304 299 300 300 300 302 302 302 302 302 303 302 303 304 306 306 309 308 308 307 308 307 307 307 308 310 312 312 314
304 304 305 308 311 313 310 309 310 307 304 303 294 294 295 297 297 304 299 302 300 301 302 303 303 302 300 302 302 303 303 304 305 305 305 307 312 308 308 311 306 308 309 314 312 315 314
305 306 308 308 312 312 309 311 308 305 301 296 294 299 299 298 301 304 299 300 301 303 303 304 302 302 303 299 300 300 303 303 304 304 303 304 310 309 309 312 311 312 311 312 313 313 315
309 312 313 312 311 306 307 310 303 304 300 293 298 301 301 302 301 297 300 300 302 302 303 303 302 302 300 297 300 296 299 303 303 302 303 306 311 309 310 309 311 312 313 313 315 314 315
314 314 312 311 308 306 309 306 303 302 297 298 301 301 301 303 299 300 300 302 302 302 301 302 303 301 298 296 294 297 297 301 303 301 305 308 310 311 309 311 311 312 312 312 313 315 313
312 312 310 309 305 303 302 303 301 300 296 302 301 300 300 302 300 300 302 302 302 301 301 301 301 300 299 298 300 296 297 301 301 301 305 307 312 312 309 310 308 309 313 314 315 312 309
311 306 304 303 301 302 304 302 300 294 301 301 301 299 300 301 300 299 301 301 301 301 300 299 300 299 299 297 299 300 300 299 300 304 305 308 311 309 308 306 306 305 309 309 308 308 307
301 300 299 299 298 301 300 299 293 298 302 302 302 300 301 301 300 299 302 300 301 300 298 298 300 299 298 299 299 300 300 299 300 302 303 306 308 309 311 310 309 304 304 304 306 306 304
298 297 297 297 300 299 295 292 294 300 302 300 301 301 301 299 299 299 299 300 301 298 299 299 299 299 299 299 300 300 300 300 299 300 302 306 309 310 312 308 307 304 303 302 302 303 305
298 298 298 298 297 293 293 294 294 301 302 300 301 301 301 299 299 299 300 299 298 298 299 299 299 298 299 300 300 301 299 299 299 300 301 305 309 310 313 310 308 303 301 302 301 299 301
297 297 297 295 297 298 292 293 299 301 302 300 300 301 301 297 298 298 299 298 298 299 299 299 299 298 300 300 301 304 304 304 305 307 306 304 308 311 312 309 306 304 300 300 302 300 298
297 297 297 297 291 291 292 294 299 301 301 300 300 300 300 299 299 299 297 298 297 296 296 298 298 300 299 298 302 304 305 305 306 307 306 305 304 308 309 309 307 300 298 299 300 302 297
295 296 295 293 291 291 293 295 298 300 300 299 300 300 300 299 299 298 297 298 298 296 295 296 298 299 298 295 299 301 301 303 305 306 306 304 305 305 307 306 303 298 298 300 305 300 296
296 295 293 293 291 292 295 298 298 298 299 297 297 299 300 299 299 299 299 299 298 296 292 296 295 296 294 295 298 298 300 302 302 305 306 302 304 303 305 303 303 297 300 300 299 296 295
295 294 294 293 291 292 297 298 298 297 295 295 296 298 300 299 299 299 298 298 297 296 297 298 298 299 297 294 296 296 298 298 303 307 304 304 301 302 300 299 297 296 296 296 297 297 294

GFSGBSN_850_thetae_117.txt.gz
Theta_e
325 325 325 325 324 324 323 324 324 322 317 311 307 303 300 299 298 297 298 298 298 298 299 300 300 301 301 301 301 301 304 304 304 304 304 304 304 304 304 303 303 304 304 304 304 303 303
326 326 325 324 324 324 324 323 323 323 321 316 308 304 302 299 298 297 297 297 298 298 299 299 300 300 300 300 303 306 303 302 301 301 301 303 304 303 302 303 303 304 303 303 303 303 304
325 326 326 325 324 325 324 324 324 324 324 321 319 305 302 298 298 297 297 297 298 298 299 299 300 300 300 302 304 302 302 302 302 301 301 301 302 303 303 303 303 302 303 304 304 304 304
323 323 325 323 325 324 323 323 324 324 324 322 320 309 302 298 298 297 297 298 297 298 299 300 300 300 301 303 303 303 303 303 303 303 302 301 302 302 302 302 303 304 304 304 304 305 304
318 321 319 321 325 324 325 322 323 324 323 323 321 312 303 298 298 297 297 297 297 298 299 300 300 302 302 302 302 303 303 303 303 302 302 301 302 302 302 303 303 303 304 304 304 304 304
312 317 317 321 322 324 321 323 323 322 323 323 321 319 306 297 297 297 297 297 298 298 300 300 302 302 302 302 302 303 302 304 303 302 302 303 301 302 301 303 304 303 303 303 303 303 303
309 311 316 319 320 321 317 318 320 320 321 321 320 319 306 298 296 296 296 298 298 299 299 300 300 301 301 302 303 302 303 305 302 302 303 301 303 305 305 303 303 303 303 303 303 303 304
306 308 310 315 316 316 316 318 319 318 319 319 317 317 307 296 296 297 296 298 299 299 301 301 301 301 302 302 303 302 304 305 303 304 301 304 306 306 303 303 303 303 303 304 304 304 303
299 304 307 308 310 313 316 317 319 317 316 319 316 315 308 296 296 296 296 298 299 301 301 301 301 301 302 302 302 303 304 304 303 303 304 306 307 303 303 304 304 304 304 304 304 304 304
297 297 301 305 307 308 315 317 318 314 317 317 317 316 304 299 298 296 298 298 301 302 301 301 302 302 302 302 302 303 304 304 304 305 305 306 304 304 305 306 305 305 304 304 304 305 307
302 301 299 300 303 306 307 312 315 314 316 316 316 312 301 300 298 298 298 299 302 301 298 301 301 301 303 303 303 304 304 304 306 307 306 308 307 307 308 308 304 305 304 305 306 307 307
301 301 301 299 299 302 305 307 314 316 316 316 316 312 299 301 297 299 298 302 302 301 299 301 301 302 303 302 303 304 304 305 305 306 305 306 306 306 307 306 305 306 307 307 308 308 309
301 302 303 303 302 301 303 305 310 315 313 315 314 310 305 300 297 299 298 303 301 300 300 301 301 302 302 302 303 304 304 308 307 308 307 307 308 306 306 307 306 307 308 311 310 312 311
299 301 302 302 303 302 303 307 311 314 313 313 312 302 303 296 296 299 301 301 300 300 300 301 302 301 302 303 303 304 303 305 307 306 307 308 308 306 306 307 309 307 308 311 313 312 313
301 300 302 303 302 303 303 305 310 312 308 311 310 302 297 295 300 299 303 303 300 300 301 302 302 302 302 302 303 303 303 305 306 305 305 306 308 307 307 309 308 309 310 309 313 312 314
300 302 302 302 301 302 302 303 310 310 305 312 307 298 297 296 300 302 302 303 301 301 302 302 302 302 303 302 303 303 303 304 304 305 304 305 309 307 308 309 309 310 309 315 313 315 314
301 301 302 301 302 303 303 303 308 310 306 307 299 296 294 297 299 302 304 302 301 302 302 303 303 303 303 302 303 304 303 303 303 305 302 303 305 308 309 310 311 311 312 313 315 315 317
301 301 302 303 303 303 303 304 307 306 301 304 297 299 296 298 302 301 301 301 302 302 303 303 302 302 302 300 303 300 303 303 302 302 303 305 309 308 309 309 311 311 313 313 314 315 316
302 303 304 307 310 305 304 306 306 304 304 300 299 299 299 300 302 301 301 302 302 302 302 303 303 302 298 300 298 300 300 302 302 301 306 307 309 311 310 310 306 309 310 312 313 314 316
304 312 316 314 314 305 305 308 305 301 304 305 299 301 300 301 301 302 302 303 302 301 301 301 301 301 300 301 300 300 301 301 301 300 304 307 309 309 308 308 308 306 307 311 314 312 306
315 315 311 310 307 306 307 303 305 301 304 302 299 300 301 301 301 301 302 302 302 302 300 300 300 300 300 299 300 301 301 301 300 303 304 307 309 309 309 307 305 305 304 306 306 307 305
312 313 308 307 307 307 303 304 299 307 299 300 299 300 301 300 301 302 303 302 302 299 299 299 301 299 299 300 300 300 300 300 301 301 302 306 308 309 310 310 309 304 303 303 305 304 302
310 311 310 307 305 303 301 303 302 302 299 300 300 300 300 301 301 302 301 301 301 300 299 298 299 300 300 299 299 299 299 299 300 300 301 304 306 309 311 310 308 306 303 302 302 302 304
300 301 302 302 303 301 301 301 300 299 300 301 300 300 300 300 301 301 301 300 299 299 300 299 299 299 298 299 299 299 298 298 299 300 300 305 305 308 312 310 310 305 301 301 300 299 300
297 297 298 298 297 297 298 299 300 299 300 301 300 300 300 300 300 300 300 300 299 299 299 299 298 298 298 299 302 305 305 305 304 303 302 303 306 308 312 310 307 304 300 301 302 300 297
297 299 298 297 296 297 297 299 299 300 301 299 300 301 300 300 300 299 299 299 298 297 297 298 298 299 299 301 304 305 306 305 307 308 306 305 305 307 310 311 310 301 299 299 300 301 296
295 295 295 295 295 295 297 298 299 299 300 300 300 300 300 298 298 298 298 298 297 296 297 296 298 299 298 299 303 304 304 303 306 306 306 304 305 305 305 307 302 298 298 300 304 301 295
296 296 297 296 296 296 297 299 300 300 300 300 300 299 300 298 299 299 299 298 297 296 297 296 298 298 297 299 300 300 303 302 304 305 305 302 303 303 304 305 305 297 300 302 298 295 294
295 293 294 295 296 297 298 299 300 301 299 299 300 300 300 299 298 299 298 297 296 295 297 297 297 298 297 298 298 299 301 301 303 307 303 303 301 301 300 299 297 296 295 296 297 295 294

GFSGBSN_850_thetae_120.txt.gz
Theta_e
326 326 325 326 325 325 324 324 323 324 323 321 316 314 313 306 302 300 299 299 299 299 300 300 300 300 301 303 302 301 304 303 302 303 303 305 306 306 307 307 306 307 308 306 306 306 306
325 325 325 325 325 325 324 324 324 323 323 323 319 317 314 307 302 299 299 300 299 299 299 299 300 300 301 304 304 305 302 302 303 303 303 303 305 305 306 306 307 307 306 306 306 307 306
324 324 326 326 326 325 325 324 324 324 323 323 321 319 321 312 303 298 298 299 299 299 299 299 300 300 301 303 304 302 302 303 303 303 303 303 303 304 306 307 306 306 307 308 309 307 307
320 322 322 322 325 325 325 324 324 324 324 323 322 321 320 316 306 299 298 298 299 299 299 299 300 300 304 303 303 303 303 304 303 303 303 303 302 303 304 305 307 308 308 309 309 308 307
315 319 321 322 322 323 320 323 324 323 323 324 323 322 321 313 306 299 299 298 299 298 299 299 300 302 305 302 303 303 303 303 304 303 303 302 303 305 306 308 309 308 308 308 308 308 307
309 310 315 317 319 320 317 322 323 322 322 322 322 322 322 317 304 299 298 298 298 298 299 300 301 304 303 304 302 303 303 305 304 304 304 305 305 307 307 308 309 308 309 309 309 308 308
305 308 309 309 313 315 315 319 319 320 318 319 320 320 320 320 308 297 297 298 301 302 299 303 303 303 302 302 303 303 303 304 305 306 309 306 309 309 308 308 307 307 307 308 309 309 307
299 299 304 308 309 314 317 318 319 319 316 318 318 319 319 318 299 297 297 300 300 299 302 301 301 301 301 302 304 304 304 307 308 310 307 309 311 308 307 307 307 308 308 309 309 308 308
295 295 297 299 306 309 314 317 316 317 316 314 318 316 318 317 298 296 298 297 298 299 305 303 302 303 303 303 305 305 305 307 309 309 309 310 310 307 308 309 309 310 309 309 308 309 310
296 295 295 296 297 302 307 309 311 312 315 316 318 316 315 314 307 298 298 300 298 301 306 306 304 303 303 303 305 304 305 307 309 310 310 310 309 308 309 310 310 311 308 307 307 310 312
297 296 296 297 299 298 302 305 308 311 316 317 317 314 315 315 309 302 300 298 299 301 308 304 303 303 303 305 305 306 305 306 309 310 310 311 309 310 311 311 308 309 309 308 309 311 312
300 300 297 298 301 298 297 299 303 307 314 315 315 315 313 311 302 301 299 299 301 305 306 303 303 304 305 305 305 305 306 306 307 309 310 310 309 309 311 310 309 309 310 312 312 312 315
301 301 299 298 299 301 301 299 299 304 307 313 313 313 313 312 305 300 299 301 303 307 303 303 303 304 305 305 306 306 308 310 310 311 311 310 311 310 309 311 311 310 313 316 316 318 314
300 301 299 299 298 301 303 303 299 304 306 309 312 313 312 311 304 302 300 304 304 308 303 303 304 304 305 305 306 306 307 309 308 307 309 311 312 311 309 311 311 312 313 314 316 316 316
298 299 299 299 298 301 302 303 303 305 307 309 307 309 308 303 303 298 303 303 306 308 304 304 304 304 305 305 306 306 307 308 308 306 308 310 311 309 309 310 311 312 313 313 314 315 316
297 299 300 299 300 301 302 302 302 304 306 309 302 303 300 298 298 299 303 303 305 303 304 304 304 305 306 305 306 306 307 307 307 306 305 308 311 309 310 310 311 313 312 314 316 318 319
299 299 300 299 300 300 302 303 302 303 305 309 304 300 298 298 298 300 303 304 303 302 303 303 305 304 305 306 306 307 307 306 305 306 304 306 308 310 310 312 311 312 313 313 314 315 318
299 300 299 299 300 300 302 302 302 302 303 302 302 300 297 298 300 301 304 303 302 303 303 304 304 305 306 306 305 311 308 306 304 303 308 308 310 311 311 311 309 309 312 314 317 317 317
299 299 298 298 300 300 301 301 301 302 304 302 301 295 297 298 302 303 303 303 303 304 303 304 304 305 304 307 307 306 306 304 304 303 308 309 310 313 312 313 310 308 307 308 311 315 317
298 299 299 299 300 300 300 301 302 302 302 303 300 298 296 296 301 303 305 303 303 303 303 304 304 304 303 304 303 305 306 304 303 302 303 307 310 312 312 310 308 308 306 308 314 318 312
299 299 300 301 303 304 303 301 301 302 302 304 300 301 299 301 300 303 304 304 304 303 303 303 304 303 303 303 304 304 304 303 302 304 306 308 309 311 309 309 310 306 306 307 308 310 312
299 299 302 306 310 314 314 302 301 302 302 304 300 301 300 302 300 304 304 304 303 303 303 303 303 304 303 302 302 303 303 303 302 305 304 308 311 311 311 311 311 307 305 306 307 306 304
300 302 308 311 312 313 314 306 302 302 303 304 302 301 300 300 302 305 305 304 304 302 300 302 303 303 302 302 301 301 301 301 301 302 304 308 308 309 312 312 310 311 304 304 304 303 306
303 308 309 307 309 310 312 304 303 302 304 304 301 301 303 303 304 305 304 303 303 302 301 301 301 302 301 300 300 301 300 300 301 302 303 307 306 307 312 312 315 306 303 303 302 301 302
303 308 306 306 306 305 304 302 302 303 304 304 301 302 303 303 303 302 303 303 301 301 301 301 300 300 299 300 301 305 307 308 308 307 306 305 305 309 312 314 307 305 303 304 305 301 299
300 304 306 304 302 301 301 301 301 302 302 301 300 301 302 303 303 301 302 301 302 301 301 300 299 298 300 302 304 306 307 306 308 309 307 306 306 308 310 312 312 304 301 300 302 305 298
299 299 300 300 300 300 299 299 300 300 300 300 300 300 301 299 300 301 302 302 300 301 301 300 300 300 300 304 306 306 307 306 308 308 308 308 307 308 309 310 305 300 299 299 306 304 298
298 298 298 298 298 299 299 300 300 300 299 300 300 300 300 300 298 300 299 299 299 300 301 299 300 300 301 304 304 305 306 306 307 306 306 305 306 307 307 309 308 298 301 304 299 297 297
296 297 298 299 299 299 299 299 300 300 300 300 301 301 300 300 299 298 298 298 298 297 298 299 301 301 301 303 303 304 305 306 307 307 305 306 305 305 303 302 298 296 296 297 297 296 296

GFSGBSN_850_thetae_123.txt.gz
Theta_e
326 326 325 325 325 325 325 325 324 324 323 324 323 320 313 313 306 304 300 300 300 301 300 300 300 301 301 307 307 306 304 304 305 305 305 307 309 309 311 310 310 310 311 310 309 309 309
326 325 326 326 326 325 325 325 325 324 323 323 323 323 320 318 310 303 301 299 300 301 300 300 300 300 306 307 305 306 306 305 305 306 306 307 307 307 308 310 310 310 310 310 310 310 310
325 326 325 324 325 324 325 326 325 324 324 324 323 323 322 319 315 308 302 300 300 300 302 300 300 300 306 307 306 306 305 306 306 306 307 307 306 307 309 311 310 309 310 312 312 311 310
317 321 322 321 323 324 324 324 325 324 324 324 324 323 323 321 318 309 306 302 301 301 303 300 299 301 307 305 306 306 306 306 306 306 306 306 305 306 308 309 309 311 312 313 313 312 310
308 310 316 318 322 322 320 324 323 323 323 324 324 324 323 322 321 313 306 303 302 302 301 300 302 307 308 304 305 305 305 306 306 307 306 305 305 308 310 311 312 314 313 312 312 313 311
308 308 311 314 318 320 322 322 323 319 322 322 322 322 322 321 321 316 307 301 301 305 305 300 305 308 307 306 305 304 305 306 307 308 308 307 309 311 312 312 313 312 311 312 312 313 312
301 306 308 309 310 315 317 317 317 316 319 321 320 319 319 319 318 318 308 304 309 309 306 308 307 307 305 304 303 305 305 307 307 309 311 311 311 313 313 312 311 311 312 312 313 313 311
297 298 300 304 308 308 309 311 313 313 320 320 319 317 318 317 317 316 304 305 304 303 304 307 304 303 304 304 306 306 305 308 310 312 312 312 313 313 311 310 311 312 313 314 313 312 311
296 295 296 297 299 303 307 309 312 317 317 318 318 315 317 317 316 315 309 303 302 298 304 309 306 305 304 304 306 308 307 309 310 312 312 312 313 310 309 311 312 313 314 314 312 311 312
298 296 295 295 296 296 299 304 308 313 315 315 317 316 315 316 313 313 306 308 307 299 309 313 306 305 304 305 306 307 307 309 311 311 312 312 312 311 310 312 313 314 313 311 311 312 314
301 298 297 295 296 296 296 297 301 307 308 309 313 312 316 316 314 310 306 301 299 302 316 312 307 305 305 305 308 307 307 308 311 313 311 313 312 311 312 313 312 313 313 313 313 315 316
302 300 299 298 296 296 298 297 297 299 303 306 310 313 316 315 314 310 304 303 302 306 312 308 306 306 306 306 307 308 308 308 310 311 311 312 312 311 312 313 312 313 314 315 316 317 317
301 301 297 298 300 298 299 299 298 298 299 303 309 314 314 314 310 309 302 304 304 311 309 308 306 306 307 307 308 308 309 311 313 313 314 314 313 312 312 313 313 314 315 317 316 319 318
300 300 298 302 302 300 299 299 302 302 300 306 310 311 313 312 310 304 303 304 308 314 313 307 307 307 307 308 308 308 309 311 310 310 310 311 315 313 313 312 313 313 314 315 315 317 316
299 300 300 297 299 300 299 299 302 303 302 306 307 307 309 309 307 302 302 307 312 315 313 307 306 307 307 308 308 308 308 310 311 309 311 312 313 312 311 312 312 314 314 315 318 316 320
299 298 300 298 297 301 300 299 302 302 303 305 306 303 305 304 300 301 304 309 309 310 307 307 306 307 308 308 306 308 308 309 310 308 308 311 315 311 312 312 313 313 314 315 317 320 319
298 298 296 298 298 299 300 300 301 302 303 305 306 302 301 301 300 300 305 308 311 307 306 306 307 308 307 309 307 308 309 309 308 309 308 310 311 313 312 314 313 314 315 315 316 316 319
297 298 298 299 300 299 300 300 300 301 302 304 303 304 299 299 299 300 306 307 307 307 305 306 307 307 308 309 308 317 310 309 307 307 310 310 311 313 313 313 311 311 313 312 316 316 318
297 297 298 298 299 299 300 300 300 301 303 302 302 298 298 299 306 304 304 306 306 306 306 305 306 307 307 309 310 308 309 306 305 306 310 310 312 315 315 314 312 312 310 309 310 312 316
295 297 298 298 298 299 300 299 299 300 303 302 301 299 297 297 301 307 305 308 307 305 306 305 305 305 305 305 305 307 309 306 305 305 303 308 311 313 317 315 311 311 309 308 311 315 319
294 295 297 298 299 299 299 299 300 300 302 302 302 303 301 300 301 305 307 307 307 306 305 305 305 304 304 305 305 306 307 305 305 304 304 310 311 311 312 311 311 309 307 308 308 311 313
295 298 299 299 299 299 299 300 301 301 303 302 302 305 303 305 301 305 307 308 307 306 304 305 305 304 304 304 304 304 306 306 305 308 310 309 312 312 312 312 311 311 307 308 308 307 306
297 299 298 298 299 299 299 299 300 300 302 302 303 303 304 304 304 304 309 307 307 306 304 304 304 305 304 304 303 304 304 304 304 308 308 310 310 311 313 313 312 314 307 307 306 306 308
299 299 298 299 299 300 300 300 300 300 300 303 303 304 305 309 307 306 306 307 306 305 304 303 304 304 303 303 302 302 302 302 303 303 304 308 308 309 312 313 314 307 307 307 306 305 304
297 298 299 300 303 306 307 307 307 301 301 302 304 305 305 309 306 305 306 306 305 304 304 303 303 303 302 302 302 302 305 305 305 306 308 308 308 310 312 313 309 306 305 306 307 305 303
297 300 304 305 305 307 308 307 310 305 302 303 304 304 304 309 307 305 306 305 306 305 304 303 301 302 301 302 302 305 306 305 308 308 308 307 308 310 311 311 314 308 304 303 304 307 301
300 302 305 305 306 310 310 311 311 302 302 303 303 304 305 306 305 305 306 306 303 303 303 302 301 302 302 303 305 306 308 307 309 310 310 309 309 310 310 311 308 302 301 302 308 307 300
299 300 303 303 303 304 304 303 301 302 302 302 302 304 304 304 303 303 302 302 302 302 302 301 302 302 302 305 306 306 308 308 309 309 309 309 309 309 309 309 310 300 301 305 302 300 299
298 299 300 300 300 301 300 300 301 301 301 302 302 303 303 301 300 300 301 301 301 302 302 301 303 301 302 305 305 306 307 308 307 308 307 307 307 308 306 305 299 298 300 300 299 299 298

GFSGBSN_850_thetae_126.txt.gz
Theta_e
325 325 326 326 325 325 325 325 326 325 325 324 324 323 323 320 314 312 308 302 301 302 303 303 300 301 302 311 309 307 305 304 306 306 307 308 308 310 311 312 311 311 312 312 312 311 311
320 323 325 326 326 325 326 326 325 325 325 324 323 323 323 323 320 319 312 308 303 302 304 305 300 300 306 309 308 308 307 306 307 307 308 308 309 308 308 310 311 311 312 311 311 311 311
318 323 326 326 324 326 325 326 324 325 325 324 323 323 323 322 322 320 315 312 308 304 304 305 301 300 307 308 308 308 307 307 307 307 308 308 308 308 309 311 311 311 311 311 313 313 312
309 317 321 324 325 324 324 324 325 324 324 324 324 324 324 323 322 322 320 318 316 308 307 306 303 300 308 308 307 307 308 307 308 307 308 308 308 307 308 309 310 311 312 313 314 314 313
307 308 310 315 321 322 321 322 323 323 323 323 322 323 323 323 322 322 321 320 320 316 312 308 304 311 311 307 305 307 306 307 307 308 308 307 307 308 310 311 312 314 313 314 313 314 313
307 307 308 308 311 316 318 320 321 320 322 322 321 321 321 321 321 320 321 320 319 316 309 308 307 307 310 309 307 306 306 306 308 309 309 309 308 311 312 313 313 314 312 311 312 313 313
301 306 307 308 308 312 314 317 319 321 322 321 315 321 320 319 319 318 318 319 310 314 308 310 311 310 310 307 306 306 306 307 308 309 311 312 312 312 313 314 313 312 311 311 313 314 313
299 299 300 303 307 308 309 310 313 314 315 313 314 320 319 318 318 317 317 310 304 304 307 310 311 311 309 307 307 307 307 307 309 311 312 313 312 313 314 312 311 311 312 313 314 314 313
300 297 297 297 298 300 304 308 308 309 310 313 319 319 317 316 317 316 315 313 309 301 305 312 314 314 311 307 306 307 308 308 310 311 312 313 313 313 312 312 310 312 313 314 314 312 312
301 298 297 295 295 296 296 299 304 307 310 313 316 317 317 316 315 314 310 309 309 306 313 317 313 310 310 306 307 306 309 309 311 311 312 312 313 313 313 312 311 312 314 313 313 313 314
302 303 297 297 296 296 296 296 297 300 306 308 313 314 316 315 312 311 306 309 302 310 317 315 310 307 307 306 308 308 308 309 309 311 312 311 313 312 311 311 313 314 313 314 313 314 315
302 302 302 299 297 296 296 296 300 299 298 303 305 307 309 314 313 313 311 304 305 315 317 315 309 308 308 307 308 309 308 308 310 311 312 312 312 313 312 312 313 313 313 314 315 316 319
302 302 302 301 298 298 298 298 301 299 300 298 301 304 309 313 312 313 309 304 311 315 314 313 311 308 308 309 308 309 310 310 310 313 313 312 312 312 312 312 313 313 315 316 315 319 318
301 301 302 302 301 298 303 300 299 300 302 302 301 305 310 311 311 311 308 307 313 315 314 312 310 309 308 308 309 309 309 309 311 312 311 311 314 314 313 313 313 314 314 315 314 317 318
300 301 301 300 302 299 301 302 299 300 303 303 305 308 307 308 308 305 306 311 312 312 313 314 315 311 310 309 309 310 310 309 310 312 310 315 312 313 314 313 312 314 314 315 317 315 318
298 299 299 300 299 302 298 300 300 301 303 303 305 305 305 306 305 303 305 310 310 312 313 313 313 310 310 310 308 309 309 310 309 311 309 312 314 312 313 312 312 312 313 315 317 319 317
297 297 298 299 300 298 300 298 301 300 303 302 303 303 302 304 301 302 306 308 310 309 310 311 311 310 309 311 310 308 308 310 310 310 309 310 311 313 312 312 312 314 315 316 316 317 318
296 297 297 297 298 299 298 299 301 300 302 302 303 305 301 301 300 301 307 307 308 310 310 311 309 309 310 310 310 311 309 309 309 309 309 309 312 313 313 313 313 312 313 312 314 313 316
294 294 295 296 297 298 297 300 300 300 302 303 303 299 300 301 304 305 305 306 307 308 310 309 308 307 309 312 310 312 311 309 307 307 310 311 311 313 315 313 312 312 312 311 310 311 313
295 294 294 296 297 297 299 300 300 300 301 302 302 300 298 300 301 306 307 307 307 308 309 308 307 308 308 308 308 309 309 308 306 306 305 309 311 314 317 317 314 313 311 310 310 313 315
295 295 295 294 295 296 298 299 299 300 300 302 302 302 301 300 300 303 307 307 307 308 308 308 308 307 308 307 307 306 307 308 306 305 304 307 312 311 312 312 313 311 309 309 309 310 313
294 293 293 293 295 294 297 298 298 300 300 300 301 304 303 303 302 301 305 309 308 308 308 308 307 307 307 306 306 306 306 307 306 306 305 308 312 309 311 311 312 313 309 308 309 307 307
293 292 293 295 294 295 295 296 298 300 300 301 302 302 303 305 306 304 304 307 308 308 308 307 307 307 307 305 304 304 305 306 306 307 308 311 311 311 312 313 312 314 311 309 309 308 308
292 293 294 294 294 294 297 299 299 299 299 301 301 303 304 307 307 306 305 305 308 308 309 307 306 306 305 304 304 303 304 304 304 305 307 310 310 310 312 314 315 309 308 308 308 307 305
292 292 292 292 296 296 297 299 299 299 299 300 302 302 304 307 306 306 305 305 306 307 308 307 305 304 304 303 304 302 302 302 303 304 304 305 309 310 311 312 310 308 308 308 308 307 305
292 291 292 296 298 298 298 298 299 299 299 300 301 303 303 306 307 305 306 304 308 308 305 304 304 304 304 304 304 302 304 304 304 305 303 305 310 310 311 311 310 308 307 305 306 309 304
293 295 297 297 297 298 299 298 298 299 299 299 301 303 303 304 305 306 307 307 307 307 306 305 303 303 303 305 304 304 307 307 307 309 310 310 310 309 310 309 308 304 303 303 308 307 303
295 297 298 300 301 302 303 303 303 300 299 299 301 302 304 304 305 305 306 305 307 306 306 304 303 303 304 305 304 305 308 310 309 310 309 310 309 310 310 310 310 301 302 306 304 302 301
297 299 301 303 303 303 305 305 305 305 300 300 302 301 303 305 304 305 306 306 306 305 303 302 303 302 302 304 306 307 309 311 308 312 309 310 309 310 306 305 300 299 302 301 301 300 299

GFSGBSN_850_thetae_129.txt.gz
Theta_e
327 327 328 327 326 326 324 324 325 325 325 325 325 324 324 323 323 321 321 318 313 308 308 309 309 303 302 308 311 308 307 305 307 307 307 308 308 309 307 307 308 308 309 311 311 311 310
320 322 321 323 325 327 325 325 325 325 325 325 325 324 323 323 322 322 321 320 317 314 311 308 308 306 301 309 308 308 307 305 307 307 307 308 309 308 308 308 308 310 311 310 311 310 310
313 314 317 320 324 325 326 323 325 324 325 325 325 324 324 323 323 323 322 321 320 318 316 310 307 304 304 308 308 308 307 307 307 307 307 308 308 308 308 307 309 310 308 307 309 310 309
307 308 309 318 323 325 326 324 325 325 325 325 325 324 324 324 324 323 322 322 321 320 319 315 308 304 307 310 309 307 307 308 307 308 308 308 308 307 307 308 309 309 308 308 310 310 311
306 306 307 308 316 320 323 325 324 324 324 324 323 323 322 322 322 323 323 322 321 321 320 316 309 308 311 309 308 307 307 307 307 307 308 308 307 307 307 307 306 308 308 309 310 310 310
306 306 307 307 308 311 315 320 320 318 320 323 322 321 321 321 320 320 322 320 321 320 312 311 309 308 309 309 308 307 307 306 306 308 308 309 308 306 306 306 307 310 310 307 307 308 309
305 304 305 307 307 308 310 312 311 316 318 320 322 320 319 320 319 318 319 319 314 313 310 310 310 310 310 310 308 307 307 306 307 308 307 309 307 307 307 308 311 310 309 307 307 309 311
301 301 300 302 306 307 308 309 312 313 315 318 318 318 317 319 318 318 318 316 311 312 306 316 315 315 315 315 309 307 307 307 308 307 308 308 309 310 312 312 310 309 309 309 309 311 311
304 302 300 299 301 301 305 307 308 308 309 310 310 315 318 317 317 317 316 315 313 309 304 311 313 313 313 315 311 308 308 307 307 307 309 310 311 313 312 311 312 309 309 309 311 311 310
302 303 303 301 297 297 297 299 302 306 307 309 314 316 317 316 315 315 312 312 313 310 309 314 316 313 314 311 307 308 307 307 308 309 310 309 310 312 312 312 311 309 310 312 312 312 311
302 301 303 302 301 299 297 296 296 298 301 306 311 314 315 315 313 311 308 310 310 310 313 312 309 308 310 308 309 308 307 309 308 308 309 310 310 310 311 312 310 309 313 312 312 311 310
302 302 302 302 302 303 299 297 302 298 298 299 305 308 313 313 311 311 311 309 309 312 314 314 308 308 307 306 307 308 308 308 308 309 310 310 311 310 311 312 311 312 312 311 312 312 311
302 302 302 302 302 301 301 300 303 302 300 298 298 302 307 309 312 311 310 307 312 315 314 314 313 309 308 308 307 307 309 309 307 309 309 310 310 309 310 310 311 311 311 312 312 312 314
301 301 301 301 301 302 299 302 299 300 301 301 299 300 305 309 311 310 310 309 314 313 315 314 313 309 308 308 308 308 307 307 308 308 308 310 309 312 311 310 311 311 311 313 314 313 313
300 301 301 301 301 301 300 301 301 299 302 303 303 305 307 307 309 310 308 312 310 312 311 312 313 315 315 309 308 309 308 308 309 309 311 312 314 312 311 312 312 312 311 312 315 314 309
298 299 300 300 300 300 301 299 302 299 302 302 304 304 305 307 306 307 307 308 309 309 309 311 314 313 313 309 308 307 309 309 309 309 308 312 310 311 310 312 311 311 311 313 313 312 315
296 298 299 299 299 299 300 301 299 300 302 302 303 303 303 304 305 304 306 304 307 308 308 310 312 312 312 308 309 308 309 309 310 309 308 310 308 311 310 312 311 311 311 316 316 314 310
299 297 297 297 298 299 299 299 299 300 302 302 301 302 302 304 302 302 303 306 306 306 306 309 309 311 309 308 309 307 309 309 308 308 310 309 312 313 311 311 311 312 314 315 311 312 309
298 298 297 296 297 297 298 299 299 300 301 302 302 300 302 302 303 302 302 305 304 305 306 307 309 309 307 307 305 308 309 309 308 309 310 311 310 311 313 313 314 314 311 310 310 308 307
296 297 297 297 295 295 296 298 299 300 301 302 301 299 300 300 302 302 303 304 305 305 305 306 308 308 307 307 308 305 310 310 306 307 306 309 311 312 312 313 313 316 313 310 309 303 306
296 296 297 296 296 295 297 298 298 299 301 301 302 300 300 299 300 302 303 305 304 304 306 306 306 308 307 306 307 306 308 308 307 306 305 307 308 311 311 311 310 312 312 310 310 308 310
295 296 296 296 296 296 295 297 298 299 301 301 301 301 300 302 300 300 301 303 305 306 305 304 307 307 307 306 304 305 306 307 307 307 306 305 306 307 307 308 309 310 308 306 309 307 306
294 296 296 296 296 295 294 295 297 299 300 301 301 301 302 301 300 300 300 302 303 305 306 305 307 306 306 306 306 304 304 304 306 306 305 306 307 309 310 311 313 312 308 306 309 308 308
293 296 295 295 295 295 293 295 295 298 299 301 301 301 301 301 302 302 302 301 302 303 306 307 307 306 306 306 304 304 303 304 306 306 306 308 309 309 310 308 311 308 308 308 309 307 303
293 293 294 294 294 293 293 294 296 295 298 299 301 300 302 302 301 303 304 303 302 302 304 306 307 307 305 304 303 303 303 303 304 305 305 305 308 308 308 309 309 308 307 308 309 307 303
291 292 293 293 293 293 293 294 294 295 296 297 300 301 300 302 302 302 303 304 303 302 303 306 305 305 304 303 303 304 303 303 303 303 304 304 308 306 307 310 308 307 304 304 306 307 304
291 292 292 292 292 293 294 293 293 294 295 297 299 300 301 301 301 304 302 303 304 304 303 305 305 304 304 302 305 304 303 304 306 306 302 303 305 308 307 308 306 303 302 304 307 303 303
291 291 292 292 293 293 292 291 291 294 296 297 299 300 300 301 302 302 303 303 305 304 303 304 303 303 304 303 303 302 304 304 305 309 307 305 308 308 307 308 307 301 302 305 302 300 299
292 292 292 292 291 290 291 294 297 298 298 298 300 299 300 301 303 303 303 304 305 305 305 303 303 302 303 302 302 302 304 305 308 310 309 310 308 307 304 303 299 300 301 301 300 297 296

GFSGBSN_850_thetae_132.txt.gz
Theta_e
326 326 326 328 328 327 326 326 324 324 325 325 325 325 325 324 323 323 323 322 320 318 317 315 315 317 316 311 309 309 308 307 306 307 307 308 308 308 306 306 307 307 308 310 310 310 310
324 324 324 326 327 327 326 326 325 325 325 325 325 325 325 324 323 322 322 322 321 320 319 317 315 316 315 309 310 308 308 308 307 307 307 308 307 308 307 307 306 308 308 308 309 310 309
321 318 318 319 319 320 322 325 325 325 323 323 324 324 325 325 324 323 323 322 322 322 320 319 318 316 315 315 308 308 308 307 307 307 307 308 308 307 307 306 307 308 307 306 308 309 308
312 309 310 311 314 317 322 326 326 325 324 325 324 325 324 324 324 324 323 322 322 322 321 320 319 314 315 314 311 308 308 307 307 307 307 308 308 307 307 307 307 307 307 307 308 308 309
307 306 306 306 307 311 320 322 324 324 324 324 324 323 323 323 323 323 322 322 322 321 321 317 312 310 312 311 309 309 308 307 307 307 307 308 308 307 306 305 304 306 307 307 308 308 309
306 306 306 306 306 307 310 318 322 324 324 324 323 323 322 321 322 321 322 322 321 320 316 312 310 308 310 310 309 308 308 307 306 307 308 308 308 304 303 303 306 308 308 307 306 306 307
307 306 306 307 307 307 308 311 312 317 320 319 318 321 321 320 320 319 319 320 315 315 311 313 311 310 314 315 310 308 308 307 306 307 306 308 306 306 306 305 307 308 308 307 305 307 309
306 305 303 305 307 307 307 308 309 311 311 314 314 319 319 317 317 317 318 316 316 311 310 315 316 316 318 316 311 310 307 306 307 306 307 306 306 308 309 309 309 308 307 307 307 309 310
305 305 304 302 304 305 306 307 308 309 310 311 314 317 317 315 317 317 317 316 315 314 306 311 313 312 313 313 313 313 308 307 307 306 307 307 309 310 310 310 310 309 308 307 308 310 309
303 303 304 303 301 302 302 302 305 307 307 308 309 311 315 315 315 315 315 312 313 312 307 311 313 312 313 313 310 310 311 308 306 307 307 307 308 309 309 309 310 310 309 309 311 310 310
302 303 303 303 303 301 299 297 298 300 304 307 310 310 315 315 315 315 312 312 311 310 305 310 309 308 310 312 308 307 307 307 307 307 308 308 307 308 309 310 310 309 311 311 311 310 309
301 302 301 303 302 303 301 298 303 298 298 302 310 314 315 314 313 311 312 311 309 307 312 312 307 307 306 306 307 307 308 308 308 307 308 308 309 308 308 310 310 310 311 310 311 310 310
302 302 302 301 302 302 302 300 304 302 298 297 303 309 312 312 312 312 311 306 309 312 311 314 310 307 307 307 306 307 307 308 307 307 309 308 308 308 308 308 309 310 309 310 311 311 314
302 302 302 302 302 302 301 301 301 303 300 298 298 304 310 310 311 310 309 309 312 310 313 313 312 312 307 307 307 307 306 307 306 306 306 308 309 310 310 308 309 310 310 311 314 311 312
301 301 301 301 301 301 301 300 301 299 301 301 302 302 306 308 308 309 309 309 307 310 311 310 312 314 314 310 306 307 306 305 306 307 308 310 310 310 310 310 310 311 311 311 312 312 310
299 299 300 301 301 301 301 300 302 300 301 302 304 303 304 306 307 308 307 308 308 309 308 310 312 312 313 308 308 306 307 308 308 307 308 310 308 309 310 309 311 310 310 310 309 310 316
299 298 297 300 300 300 300 300 299 300 301 303 303 302 304 306 307 306 306 303 306 307 307 308 310 311 311 309 308 307 307 308 308 309 308 309 306 309 310 310 310 310 310 313 314 313 315
299 299 298 299 300 299 300 300 300 301 301 301 302 298 303 306 304 303 304 303 304 304 306 306 308 309 309 308 307 304 307 308 308 308 309 309 310 309 310 310 310 310 311 313 313 315 310
299 299 299 297 298 298 299 299 300 300 301 301 301 300 303 303 303 303 301 303 303 303 305 306 307 308 306 305 303 305 307 308 308 308 309 309 310 308 309 312 312 314 312 311 310 307 307
297 298 298 298 298 297 297 299 299 300 301 301 300 300 301 302 301 301 301 301 303 304 303 304 305 306 306 307 306 304 309 308 306 307 309 309 309 309 311 312 312 313 313 311 309 304 304
296 297 297 298 298 297 296 297 299 299 300 301 300 297 300 300 301 300 301 302 301 302 303 305 304 305 305 305 306 306 305 308 306 306 305 306 305 309 309 310 310 310 310 311 311 309 308
294 294 295 296 297 297 297 295 296 299 300 301 301 300 299 299 300 301 301 300 302 303 302 304 304 304 304 305 304 303 305 305 306 305 304 304 301 305 306 308 309 308 307 308 310 308 305
293 292 292 294 296 297 297 296 297 298 299 302 301 300 300 299 298 300 300 300 301 301 302 303 303 303 304 305 306 305 304 304 305 305 304 304 303 306 306 307 309 309 307 308 307 307 306
291 292 292 292 293 297 297 296 297 298 298 301 300 301 301 299 298 299 300 299 300 300 302 304 304 303 305 306 305 304 303 303 303 303 305 304 304 306 307 308 306 304 308 308 308 308 303
291 291 291 292 293 296 297 296 296 296 297 299 300 300 300 300 300 300 300 300 300 300 301 301 302 304 306 304 304 305 302 303 303 304 305 305 306 309 308 308 305 307 306 307 308 307 302
291 291 291 292 294 296 296 297 295 295 296 296 299 300 300 300 299 300 301 302 300 298 299 301 302 303 305 302 303 305 305 303 303 303 304 304 305 307 307 308 307 305 304 303 306 306 301
291 291 291 292 294 296 295 296 295 295 295 295 296 299 300 300 300 301 300 300 302 301 300 303 304 304 304 302 304 303 302 303 303 303 303 304 305 306 306 307 306 303 302 303 308 304 301
291 291 291 292 292 293 294 294 294 294 294 296 296 297 298 299 300 300 300 301 302 302 301 303 301 302 303 304 305 302 302 303 303 304 304 304 304 305 305 307 306 301 301 304 300 297 298
291 291 291 291 292 292 293 293 293 293 293 295 295 296 297 299 300 300 300 301 302 302 303 303 303 302 303 301 302 300 302 303 303 304 308 306 306 307 305 303 299 300 301 302 300 298 296

GFSGBSN_850_thetae_135.txt.gz
Theta_e
326 326 327 327 326 327 327 327 325 324 324 324 324 324 324 324 324 323 322 322 321 321 321 321 321 320 319 317 312 309 308 308 307 306 307 307 308 307 305 305 306 305 306 308 308 309 309
322 322 325 326 325 326 326 327 327 326 325 324 325 324 324 323 324 324 323 322 322 322 321 321 320 320 319 314 313 308 309 308 307 307 307 307 307 307 307 306 305 306 306 306 308 308 308
323 322 321 322 324 324 323 325 326 326 326 325 325 323 322 323 323 324 323 323 322 322 321 321 321 320 319 318 311 309 309 308 307 307 307 307 307 307 307 305 306 307 305 305 306 307 307
321 322 322 321 321 319 320 319 321 324 325 325 323 324 323 323 323 323 324 323 323 322 321 321 321 319 318 317 315 312 309 308 307 307 307 307 307 307 307 306 306 306 306 305 306 306 306
320 316 314 313 314 310 310 313 316 323 325 325 324 325 323 323 322 323 323 323 322 322 321 320 318 313 315 312 310 310 309 309 307 306 307 307 308 307 306 304 302 303 305 307 307 306 307
308 308 308 311 310 306 307 307 316 320 322 323 323 323 323 323 323 322 321 322 322 322 319 314 312 311 312 311 310 314 308 307 307 306 308 308 307 304 302 302 304 307 307 306 305 305 306
309 308 307 305 305 305 305 306 310 315 320 321 322 321 323 322 321 321 320 319 317 315 311 315 313 314 317 317 315 313 308 307 306 306 306 307 305 306 305 304 306 306 307 306 304 304 307
307 308 307 307 306 305 306 306 307 308 312 315 319 319 318 320 320 318 318 316 316 313 312 315 315 314 315 316 313 310 307 306 306 306 306 305 305 307 307 307 307 306 307 307 305 306 308
306 307 306 305 303 304 303 305 307 307 308 310 311 311 311 317 318 317 316 316 316 313 309 311 312 312 313 313 312 313 312 306 306 306 306 305 307 308 308 308 308 308 308 306 307 308 308
304 304 304 304 301 301 301 304 307 307 308 309 311 314 317 316 316 315 316 316 313 312 305 308 312 311 313 313 310 308 313 308 306 305 305 305 307 307 308 308 308 308 308 308 308 309 309
303 303 303 303 303 302 302 302 302 306 307 307 308 310 314 314 313 314 312 312 312 311 304 307 311 308 310 310 308 307 307 307 305 306 307 306 307 306 307 307 309 309 310 310 310 309 309
302 302 302 302 302 302 302 299 299 299 301 306 308 311 313 314 314 313 311 311 311 305 306 311 307 307 307 306 307 307 307 308 307 307 306 306 307 307 307 308 307 309 310 309 309 308 309
302 301 302 301 302 301 302 300 301 300 298 302 311 312 314 314 312 310 310 309 307 306 308 312 308 307 306 306 306 306 307 307 306 307 307 306 306 307 308 307 307 309 308 309 310 310 312
303 302 301 301 301 301 301 301 302 303 299 299 309 312 313 312 311 311 308 308 306 308 310 311 312 310 306 306 306 306 306 305 306 306 305 306 307 309 309 309 308 308 309 310 314 310 310
300 302 302 302 302 301 301 301 301 303 300 302 303 309 311 311 311 310 308 309 306 308 310 309 311 312 312 310 306 306 305 304 305 305 307 308 308 308 308 308 309 309 310 310 312 310 309
300 300 302 302 301 301 301 300 301 299 301 301 301 304 308 309 310 307 307 307 307 308 308 309 310 311 312 308 307 305 306 307 307 306 307 308 307 308 309 309 309 310 309 313 311 313 314
300 300 300 301 301 302 301 301 301 300 301 302 302 302 303 306 306 306 307 306 305 307 306 308 309 310 310 309 308 307 306 307 308 308 307 308 304 307 309 309 310 309 310 311 311 310 310
300 299 299 299 300 301 301 301 300 301 301 302 302 298 305 305 304 305 304 303 304 304 304 306 307 309 309 307 308 303 307 306 308 308 308 308 306 308 309 309 309 309 311 312 314 314 310
299 299 300 298 298 300 300 300 300 300 302 302 301 301 304 305 301 303 301 303 303 303 304 305 307 307 305 304 304 304 305 307 307 307 307 307 307 307 308 311 311 312 312 311 310 308 311
299 299 299 300 298 299 300 299 300 300 302 302 300 301 302 303 302 300 301 302 303 303 303 303 304 305 306 306 305 304 307 307 306 307 309 309 307 308 308 308 310 311 310 311 310 308 307
296 296 297 299 299 298 299 298 300 300 302 301 300 296 301 302 302 301 300 301 302 301 302 303 304 303 303 304 305 305 304 306 306 306 305 305 304 307 307 308 308 308 308 308 309 309 308
295 295 296 297 298 298 298 297 298 300 301 302 300 298 299 298 301 301 300 300 301 301 301 302 303 303 302 303 304 304 304 305 305 305 303 303 300 301 301 305 305 305 305 306 306 307 309
295 295 295 296 297 297 298 298 297 299 299 302 301 300 299 299 299 300 300 299 300 301 301 302 302 302 302 302 304 305 304 305 304 304 303 303 302 303 305 305 305 306 305 305 307 307 308
293 292 293 294 295 296 297 297 297 297 299 300 300 300 300 296 298 300 299 300 299 300 300 302 301 300 303 303 304 303 303 303 302 302 304 302 303 303 306 306 307 303 306 306 307 308 305
292 292 292 292 292 293 294 296 297 296 297 298 300 300 300 298 299 298 299 299 299 299 300 300 300 301 303 303 303 305 303 303 303 302 302 303 302 305 307 306 304 305 306 307 307 308 303
292 291 291 291 290 291 292 293 297 297 296 297 299 299 300 299 299 299 299 299 297 297 298 300 300 301 302 302 304 306 306 304 303 302 302 303 303 305 307 309 309 303 304 303 305 307 301
291 291 291 290 291 291 292 293 295 297 296 297 298 298 299 299 299 300 298 299 300 299 298 301 303 302 302 303 305 304 303 302 302 302 302 303 305 307 307 307 306 304 303 303 307 304 300
291 290 290 290 290 291 291 292 295 297 296 296 296 297 297 298 299 299 299 300 300 301 299 302 301 302 301 302 302 303 301 301 301 303 304 304 306 305 305 307 305 302 301 304 300 297 298
290 290 290 290 291 291 292 294 296 296 296 296 295 296 297 297 299 299 300 300 301 301 301 301 302 302 302 300 299 299 300 299 301 303 303 304 303 305 305 304 300 300 301 301 299 299 297